HappyWetter - St.Margarethen im Burgenland
Wetterdaten: Mittwoch, 11.01.2012
Datum Zeit Temp. A. Feuchte A. Luftdruck Regen Wind Richtung Richtung Sonnenschein ET Solar Taupunkt Windchill Windben Empfang
11.01.2012 00:00 2,9 C 76 % 1031,5 hPa 0,0 l/m 1,7 km/h (1 Bft) NW 325 0 min 0,000 mm 0 W/m -0,9 C 2,9 C 6,4 km/h (2 Bft) 100,00 %
11.01.2012 00:02 2,9 C 76 % 1031,5 hPa 0,0 l/m 2,8 km/h (1 Bft) NW 325 0 min 0,000 mm 0 W/m -0,9 C 2,9 C 6,4 km/h (2 Bft) 97,62 %
11.01.2012 00:03 2,9 C 76 % 1031,5 hPa 0,0 l/m 3,0 km/h (1 Bft) NW 325 0 min 0,000 mm 0 W/m -0,9 C 2,9 C 6,4 km/h (2 Bft) 100,00 %
11.01.2012 00:04 2,9 C 76 % 1031,5 hPa 0,0 l/m 4,6 km/h (1 Bft) NW 326 0 min 0,000 mm 0 W/m -0,9 C 2,9 C 6,4 km/h (2 Bft) 100,00 %
11.01.2012 00:05 2,9 C 76 % 1031,4 hPa 0,0 l/m 3,4 km/h (1 Bft) NW 325 0 min 0,000 mm 0 W/m -0,9 C 2,9 C 6,4 km/h (2 Bft) 100,00 %
11.01.2012 00:06 2,9 C 76 % 1031,5 hPa 0,0 l/m 1,1 km/h (1 Bft) NW 326 0 min 0,000 mm 0 W/m -0,9 C 2,9 C 6,4 km/h (2 Bft) 100,00 %
11.01.2012 00:07 2,9 C 76 % 1031,5 hPa 0,0 l/m 1,5 km/h (1 Bft) NW 326 0 min 0,000 mm 0 W/m -0,9 C 2,9 C 4,8 km/h (1 Bft) 100,00 %
11.01.2012 00:08 2,9 C 76 % 1031,5 hPa 0,0 l/m 1,3 km/h (1 Bft) NW 326 0 min 0,000 mm 0 W/m -0,9 C 2,9 C 4,8 km/h (1 Bft) 100,00 %
11.01.2012 00:09 2,9 C 76 % 1031,5 hPa 0,0 l/m 2,0 km/h (1 Bft) NW 326 0 min 0,000 mm 0 W/m -0,9 C 2,9 C 4,8 km/h (1 Bft) 100,00 %
11.01.2012 00:10 2,9 C 76 % 1031,5 hPa 0,0 l/m 3,6 km/h (1 Bft) NW 326 0 min 0,000 mm 0 W/m -0,9 C 2,9 C 6,4 km/h (2 Bft) 100,00 %
11.01.2012 00:11 2,9 C 77 % 1031,4 hPa 0,0 l/m 3,2 km/h (1 Bft) NW 326 0 min 0,000 mm 0 W/m -0,7 C 2,9 C 8,0 km/h (2 Bft) 100,00 %
11.01.2012 00:12 2,9 C 77 % 1031,4 hPa 0,0 l/m 2,2 km/h (1 Bft) NW 326 0 min 0,000 mm 0 W/m -0,7 C 2,9 C 3,2 km/h (1 Bft) 100,00 %
11.01.2012 00:13 2,9 C 77 % 1031,4 hPa 0,0 l/m 3,4 km/h (1 Bft) NW 326 0 min 0,000 mm 0 W/m -0,7 C 2,9 C 6,4 km/h (2 Bft) 100,00 %
11.01.2012 00:14 2,9 C 76 % 1031,3 hPa 0,0 l/m 3,8 km/h (1 Bft) NW 326 0 min 0,000 mm 0 W/m -0,9 C 2,9 C 4,8 km/h (1 Bft) 100,00 %
11.01.2012 00:15 2,9 C 76 % 1031,3 hPa 0,0 l/m 2,2 km/h (1 Bft) NW 326 0 min 0,000 mm 0 W/m -0,9 C 2,9 C 4,8 km/h (1 Bft) 100,00 %
11.01.2012 00:16 2,9 C 77 % 1031,3 hPa 0,0 l/m 2,3 km/h (1 Bft) NW 326 0 min 0,000 mm 0 W/m -0,7 C 2,9 C 6,4 km/h (2 Bft) 100,00 %
11.01.2012 00:17 2,9 C 77 % 1031,3 hPa 0,0 l/m 1,7 km/h (1 Bft) NW 326 0 min 0,000 mm 0 W/m -0,7 C 2,9 C 3,2 km/h (1 Bft) 100,00 %
11.01.2012 00:18 2,9 C 77 % 1031,4 hPa 0,0 l/m 0,3 km/h (0 Bft) NW 326 0 min 0,000 mm 0 W/m -0,7 C 2,9 C 1,6 km/h (1 Bft) 100,00 %
11.01.2012 00:19 2,9 C 77 % 1031,4 hPa 0,0 l/m 2,4 km/h (1 Bft) NW 326 0 min 0,000 mm 0 W/m -0,7 C 2,9 C 4,8 km/h (1 Bft) 100,00 %
11.01.2012 00:20 2,9 C 77 % 1031,4 hPa 0,0 l/m 2,3 km/h (1 Bft) NW 326 0 min 0,000 mm 0 W/m -0,7 C 2,9 C 4,8 km/h (1 Bft) 100,00 %
11.01.2012 00:21 2,9 C 77 % 1031,4 hPa 0,0 l/m 0,1 km/h (0 Bft) NW 326 0 min 0,000 mm 0 W/m -0,7 C 2,9 C 1,6 km/h (1 Bft) 100,00 %
11.01.2012 00:22 2,9 C 77 % 1031,5 hPa 0,0 l/m 1,5 km/h (1 Bft) NW 326 0 min 0,000 mm 0 W/m -0,7 C 2,9 C 4,8 km/h (1 Bft) 100,00 %
11.01.2012 00:23 2,9 C 77 % 1031,4 hPa 0,0 l/m 3,3 km/h (1 Bft) NW 326 0 min 0,000 mm 0 W/m -0,7 C 2,9 C 8,0 km/h (2 Bft) 100,00 %
11.01.2012 00:24 2,9 C 77 % 1031,4 hPa 0,0 l/m 0,7 km/h (0 Bft) NW 326 0 min 0,000 mm 0 W/m -0,7 C 2,9 C 3,2 km/h (1 Bft) 100,00 %
11.01.2012 00:25 2,9 C 77 % 1031,4 hPa 0,0 l/m 2,2 km/h (1 Bft) NW 326 0 min 0,000 mm 0 W/m -0,7 C 2,9 C 3,2 km/h (1 Bft) 100,00 %
11.01.2012 00:26 2,9 C 77 % 1031,4 hPa 0,0 l/m 0,0 km/h (0 Bft) NW 326 0 min 0,000 mm 0 W/m -0,7 C 2,9 C 0,0 km/h (0 Bft) 100,00 %
11.01.2012 00:27 2,9 C 77 % 1031,4 hPa 0,0 l/m 0,0 km/h (0 Bft) NW 326 0 min 0,000 mm 0 W/m -0,7 C 2,9 C 0,0 km/h (0 Bft) 95,83 %
11.01.2012 00:28 2,9 C 77 % 1031,4 hPa 0,0 l/m 0,0 km/h (0 Bft) NW 326 0 min 0,000 mm 0 W/m -0,7 C 2,9 C 0,0 km/h (0 Bft) 100,00 %
11.01.2012 00:29 2,9 C 77 % 1031,4 hPa 0,0 l/m 1,9 km/h (1 Bft) NW 326 0 min 0,000 mm 0 W/m -0,7 C 2,9 C 6,4 km/h (2 Bft) 100,00 %
11.01.2012 00:30 2,9 C 77 % 1031,4 hPa 0,0 l/m 0,5 km/h (0 Bft) NW 326 0 min 0,000 mm 0 W/m -0,7 C 2,9 C 1,6 km/h (1 Bft) 100,00 %
11.01.2012 00:31 2,9 C 77 % 1031,3 hPa 0,0 l/m 0,0 km/h (0 Bft) NW 326 0 min 0,000 mm 0 W/m -0,7 C 2,9 C 0,0 km/h (0 Bft) 100,00 %
11.01.2012 00:32 2,9 C 77 % 1031,3 hPa 0,0 l/m 0,0 km/h (0 Bft) NW 326 0 min 0,000 mm 0 W/m -0,7 C 2,9 C 0,0 km/h (0 Bft) 100,00 %
11.01.2012 00:33 2,9 C 77 % 1031,3 hPa 0,0 l/m 2,7 km/h (1 Bft) NW 326 0 min 0,000 mm 0 W/m -0,7 C 2,9 C 4,8 km/h (1 Bft) 100,00 %
11.01.2012 00:34 2,8 C 77 % 1031,3 hPa 0,0 l/m 2,2 km/h (1 Bft) NW 326 0 min 0,000 mm 0 W/m -0,8 C 2,8 C 3,2 km/h (1 Bft) 100,00 %
11.01.2012 00:35 2,8 C 77 % 1031,3 hPa 0,0 l/m 0,0 km/h (0 Bft) NW 326 0 min 0,000 mm 0 W/m -0,8 C 2,8 C 0,0 km/h (0 Bft) 100,00 %
11.01.2012 00:36 2,8 C 77 % 1031,2 hPa 0,0 l/m 0,0 km/h (0 Bft) NW 326 0 min 0,000 mm 0 W/m -0,8 C 2,8 C 0,0 km/h (0 Bft) 100,00 %
11.01.2012 00:37 2,8 C 77 % 1031,2 hPa 0,0 l/m 1,0 km/h (0 Bft) NW 326 0 min 0,000 mm 0 W/m -0,8 C 2,8 C 6,4 km/h (2 Bft) 100,00 %
11.01.2012 00:38 2,8 C 77 % 1031,2 hPa 0,0 l/m 3,6 km/h (1 Bft) N-NW 329 0 min 0,000 mm 0 W/m -0,8 C 2,8 C 8,0 km/h (2 Bft) 100,00 %
11.01.2012 00:39 2,8 C 77 % 1031,3 hPa 0,0 l/m 0,0 km/h (0 Bft) N-NW 329 0 min 0,000 mm 0 W/m -0,8 C 2,8 C 0,0 km/h (0 Bft) 100,00 %
11.01.2012 00:40 2,8 C 77 % 1031,2 hPa 0,0 l/m 1,9 km/h (1 Bft) N-NW 329 0 min 0,000 mm 0 W/m -0,8 C 2,8 C 6,4 km/h (2 Bft) 91,67 %
11.01.2012 00:41 2,8 C 77 % 1031,3 hPa 0,0 l/m 2,7 km/h (1 Bft) N-NW 329 0 min 0,000 mm 0 W/m -0,8 C 2,8 C 4,8 km/h (1 Bft) 97,50 %
11.01.2012 00:42 2,8 C 77 % 1031,2 hPa 0,0 l/m 2,4 km/h (1 Bft) N-NW 329 0 min 0,000 mm 0 W/m -0,8 C 2,8 C 6,4 km/h (2 Bft) 100,00 %
11.01.2012 00:43 2,8 C 78 % 1031,2 hPa 0,0 l/m 4,8 km/h (1 Bft) N-NW 329 0 min 0,000 mm 0 W/m -0,6 C 2,8 C 8,0 km/h (2 Bft) 100,00 %
11.01.2012 00:44 2,8 C 78 % 1031,2 hPa 0,0 l/m 1,7 km/h (1 Bft) N-NW 329 0 min 0,000 mm 0 W/m -0,6 C 2,8 C 4,8 km/h (1 Bft) 100,00 %
11.01.2012 00:45 2,8 C 78 % 1031,2 hPa 0,0 l/m 0,0 km/h (0 Bft) N-NW 329 0 min 0,000 mm 0 W/m -0,6 C 2,8 C 0,0 km/h (0 Bft) 100,00 %
11.01.2012 00:46 2,8 C 78 % 1031,2 hPa 0,0 l/m 0,0 km/h (0 Bft) N-NW 329 0 min 0,000 mm 0 W/m -0,6 C 2,8 C 0,0 km/h (0 Bft) 100,00 %
11.01.2012 00:47 2,8 C 78 % 1031,2 hPa 0,0 l/m 0,0 km/h (0 Bft) N-NW 329 0 min 0,000 mm 0 W/m -0,6 C 2,8 C 0,0 km/h (0 Bft) 100,00 %
11.01.2012 00:48 2,8 C 78 % 1031,2 hPa 0,0 l/m 0,0 km/h (0 Bft) N-NW 329 0 min 0,000 mm 0 W/m -0,6 C 2,8 C 0,0 km/h (0 Bft) 100,00 %
11.01.2012 00:49 2,8 C 78 % 1031,2 hPa 0,0 l/m 0,0 km/h (0 Bft) N-NW 329 0 min 0,000 mm 0 W/m -0,6 C 2,8 C 0,0 km/h (0 Bft) 100,00 %
11.01.2012 00:50 2,8 C 79 % 1031,2 hPa 0,0 l/m 0,9 km/h (0 Bft) N-NW 329 0 min 0,000 mm 0 W/m -0,5 C 2,8 C 4,8 km/h (1 Bft) 100,00 %
11.01.2012 00:51 2,8 C 79 % 1031,2 hPa 0,0 l/m 3,9 km/h (1 Bft) N-NW 329 0 min 0,000 mm 0 W/m -0,5 C 2,8 C 6,4 km/h (2 Bft) 100,00 %
11.01.2012 00:52 2,8 C 79 % 1031,2 hPa 0,0 l/m 5,0 km/h (1 Bft) N-NW 329 0 min 0,000 mm 0 W/m -0,5 C 2,8 C 8,0 km/h (2 Bft) 100,00 %
11.01.2012 00:53 2,9 C 79 % 1031,1 hPa 0,0 l/m 4,5 km/h (1 Bft) N-NW 329 0 min 0,000 mm 0 W/m -0,4 C 2,9 C 6,4 km/h (2 Bft) 100,00 %
11.01.2012 00:54 2,9 C 79 % 1031,2 hPa 0,0 l/m 3,0 km/h (1 Bft) N-NW 329 0 min 0,000 mm 0 W/m -0,4 C 2,9 C 6,4 km/h (2 Bft) 100,00 %
11.01.2012 00:55 2,9 C 79 % 1031,2 hPa 0,0 l/m 4,0 km/h (1 Bft) N-NW 331 0 min 0,000 mm 0 W/m -0,4 C 2,9 C 6,4 km/h (2 Bft) 100,00 %
11.01.2012 00:56 2,9 C 79 % 1031,3 hPa 0,0 l/m 5,2 km/h (1 Bft) N-NW 335 0 min 0,000 mm 0 W/m -0,4 C 2,9 C 8,0 km/h (2 Bft) 100,00 %
11.01.2012 00:57 2,9 C 79 % 1031,2 hPa 0,0 l/m 5,5 km/h (1 Bft) N-NW 337 0 min 0,000 mm 0 W/m -0,4 C 2,9 C 8,0 km/h (2 Bft) 100,00 %
11.01.2012 00:58 3,0 C 79 % 1031,2 hPa 0,0 l/m 3,6 km/h (1 Bft) N-NW 337 0 min 0,000 mm 0 W/m -0,3 C 3,0 C 6,4 km/h (2 Bft) 100,00 %
11.01.2012 00:59 3,1 C 79 % 1031,2 hPa 0,0 l/m 5,5 km/h (1 Bft) N-NW 340 0 min 0,000 mm 0 W/m -0,2 C 3,1 C 9,7 km/h (2 Bft) 100,00 %
11.01.2012 01:00 3,1 C 79 % 1031,2 hPa 0,0 l/m 4,3 km/h (1 Bft) N-NW 340 0 min 0,025 mm 0 W/m -0,2 C 3,1 C 6,4 km/h (2 Bft) 100,00 %
11.01.2012 01:01 3,1 C 79 % 1031,2 hPa 0,0 l/m 3,5 km/h (1 Bft) N-NW 340 0 min 0,000 mm 0 W/m -0,2 C 3,1 C 4,8 km/h (1 Bft) 100,00 %
11.01.2012 01:02 3,1 C 79 % 1031,3 hPa 0,0 l/m 3,7 km/h (1 Bft) N-NW 340 0 min 0,000 mm 0 W/m -0,2 C 3,1 C 6,4 km/h (2 Bft) 100,00 %
11.01.2012 01:03 3,1 C 79 % 1031,2 hPa 0,0 l/m 4,1 km/h (1 Bft) N-NW 340 0 min 0,000 mm 0 W/m -0,2 C 3,1 C 6,4 km/h (2 Bft) 100,00 %
11.01.2012 01:05 3,2 C 79 % 1031,3 hPa 0,0 l/m 2,8 km/h (1 Bft) N-NW 340 0 min 0,000 mm 0 W/m -0,1 C 3,2 C 4,8 km/h (1 Bft) 100,00 %
11.01.2012 01:06 3,2 C 79 % 1031,4 hPa 0,0 l/m 0,0 km/h (0 Bft) N-NW 340 0 min 0,000 mm 0 W/m -0,1 C 3,2 C 0,0 km/h (0 Bft) 100,00 %
11.01.2012 01:07 3,2 C 78 % 1031,3 hPa 0,0 l/m 0,0 km/h (0 Bft) N-NW 340 0 min 0,000 mm 0 W/m -0,3 C 3,2 C 0,0 km/h (0 Bft) 100,00 %
11.01.2012 01:08 3,2 C 78 % 1031,4 hPa 0,0 l/m 0,0 km/h (0 Bft) N-NW 340 0 min 0,000 mm 0 W/m -0,3 C 3,2 C 0,0 km/h (0 Bft) 100,00 %
11.01.2012 01:09 3,2 C 79 % 1031,4 hPa 0,0 l/m 0,7 km/h (0 Bft) N-NW 340 0 min 0,000 mm 0 W/m -0,1 C 3,2 C 4,8 km/h (1 Bft) 96,00 %
11.01.2012 01:10 3,2 C 79 % 1031,4 hPa 0,0 l/m 1,3 km/h (1 Bft) N-NW 340 0 min 0,000 mm 0 W/m -0,1 C 3,2 C 4,8 km/h (1 Bft) 100,00 %
11.01.2012 01:11 3,2 C 79 % 1031,4 hPa 0,0 l/m 0,0 km/h (0 Bft) N-NW 340 0 min 0,000 mm 0 W/m -0,1 C 3,2 C 0,0 km/h (0 Bft) 100,00 %
11.01.2012 01:12 3,2 C 79 % 1031,4 hPa 0,0 l/m 0,0 km/h (0 Bft) N-NW 340 0 min 0,000 mm 0 W/m -0,1 C 3,2 C 0,0 km/h (0 Bft) 100,00 %
11.01.2012 01:13 3,2 C 79 % 1031,4 hPa 0,0 l/m 0,1 km/h (0 Bft) N-NW 340 0 min 0,000 mm 0 W/m -0,1 C 3,2 C 1,6 km/h (1 Bft) 100,00 %
11.01.2012 01:14 3,2 C 79 % 1031,4 hPa 0,0 l/m 1,4 km/h (1 Bft) N-NW 340 0 min 0,000 mm 0 W/m -0,1 C 3,2 C 3,2 km/h (1 Bft) 100,00 %
11.01.2012 01:15 3,2 C 79 % 1031,4 hPa 0,0 l/m 2,0 km/h (1 Bft) N-NW 340 0 min 0,000 mm 0 W/m -0,1 C 3,2 C 6,4 km/h (2 Bft) 95,83 %
11.01.2012 01:16 3,3 C 79 % 1031,4 hPa 0,0 l/m 1,5 km/h (1 Bft) N-NW 340 0 min 0,000 mm 0 W/m 0,0 C 3,3 C 6,4 km/h (2 Bft) 100,00 %
11.01.2012 01:17 3,3 C 79 % 1031,5 hPa 0,0 l/m 7,3 km/h (2 Bft) N-NW 344 0 min 0,000 mm 0 W/m 0,0 C 2,5 C 11,3 km/h (2 Bft) 100,00 %
11.01.2012 01:18 3,3 C 79 % 1031,4 hPa 0,0 l/m 3,8 km/h (1 Bft) N-NW 344 0 min 0,000 mm 0 W/m 0,0 C 3,3 C 4,8 km/h (1 Bft) 95,83 %
11.01.2012 01:19 3,3 C 79 % 1031,4 hPa 0,0 l/m 1,7 km/h (1 Bft) N-NW 344 0 min 0,000 mm 0 W/m 0,0 C 3,3 C 4,8 km/h (1 Bft) 100,00 %
11.01.2012 01:20 3,3 C 79 % 1031,5 hPa 0,0 l/m 3,0 km/h (1 Bft) N-NW 344 0 min 0,000 mm 0 W/m 0,0 C 3,3 C 4,8 km/h (1 Bft) 100,00 %
11.01.2012 01:21 3,3 C 79 % 1031,5 hPa 0,0 l/m 2,0 km/h (1 Bft) N-NW 344 0 min 0,000 mm 0 W/m 0,0 C 3,3 C 4,8 km/h (1 Bft) 100,00 %
11.01.2012 01:22 3,4 C 79 % 1031,4 hPa 0,0 l/m 0,0 km/h (0 Bft) N-NW 344 0 min 0,000 mm 0 W/m 0,1 C 3,4 C 0,0 km/h (0 Bft) 100,00 %
11.01.2012 01:23 3,4 C 79 % 1031,5 hPa 0,0 l/m 4,7 km/h (1 Bft) N-NW 345 0 min 0,000 mm 0 W/m 0,1 C 3,4 C 8,0 km/h (2 Bft) 100,00 %
11.01.2012 01:24 3,4 C 79 % 1031,5 hPa 0,0 l/m 0,2 km/h (0 Bft) N-NW 345 0 min 0,000 mm 0 W/m 0,1 C 3,4 C 1,6 km/h (1 Bft) 100,00 %
11.01.2012 01:25 3,4 C 79 % 1031,5 hPa 0,0 l/m 0,0 km/h (0 Bft) N-NW 345 0 min 0,000 mm 0 W/m 0,1 C 3,4 C 0,0 km/h (0 Bft) 100,00 %
11.01.2012 01:26 3,4 C 79 % 1031,5 hPa 0,0 l/m 0,0 km/h (0 Bft) N-NW 345 0 min 0,000 mm 0 W/m 0,1 C 3,4 C 0,0 km/h (0 Bft) 100,00 %
11.01.2012 01:27 3,4 C 79 % 1031,5 hPa 0,0 l/m 0,0 km/h (0 Bft) N-NW 345 0 min 0,000 mm 0 W/m 0,1 C 3,4 C 0,0 km/h (0 Bft) 100,00 %
11.01.2012 01:28 3,4 C 79 % 1031,6 hPa 0,0 l/m 3,2 km/h (1 Bft) N-NW 345 0 min 0,000 mm 0 W/m 0,1 C 3,4 C 6,4 km/h (2 Bft) 100,00 %
11.01.2012 01:29 3,4 C 79 % 1031,6 hPa 0,0 l/m 2,9 km/h (1 Bft) N-NW 345 0 min 0,000 mm 0 W/m 0,1 C 3,4 C 4,8 km/h (1 Bft) 100,00 %
11.01.2012 01:30 3,4 C 79 % 1031,6 hPa 0,0 l/m 2,0 km/h (1 Bft) N-NW 345 0 min 0,000 mm 0 W/m 0,1 C 3,4 C 4,8 km/h (1 Bft) 100,00 %
11.01.2012 01:31 3,4 C 79 % 1031,6 hPa 0,0 l/m 0,4 km/h (0 Bft) N-NW 345 0 min 0,000 mm 0 W/m 0,1 C 3,4 C 1,6 km/h (1 Bft) 100,00 %
11.01.2012 01:32 3,4 C 79 % 1031,5 hPa 0,0 l/m 2,5 km/h (1 Bft) N-NW 345 0 min 0,000 mm 0 W/m 0,1 C 3,4 C 6,4 km/h (2 Bft) 100,00 %
11.01.2012 01:33 3,4 C 79 % 1031,6 hPa 0,0 l/m 1,5 km/h (1 Bft) N-NW 345 0 min 0,000 mm 0 W/m 0,1 C 3,4 C 4,8 km/h (1 Bft) 100,00 %
11.01.2012 01:34 3,4 C 79 % 1031,6 hPa 0,0 l/m 0,6 km/h (0 Bft) N-NW 346 0 min 0,000 mm 0 W/m 0,1 C 3,4 C 3,2 km/h (1 Bft) 100,00 %
11.01.2012 01:35 3,4 C 79 % 1031,6 hPa 0,0 l/m 0,0 km/h (0 Bft) N-NW 346 0 min 0,000 mm 0 W/m 0,1 C 3,4 C 0,0 km/h (0 Bft) 100,00 %
11.01.2012 01:36 3,5 C 79 % 1031,5 hPa 0,0 l/m 1,5 km/h (1 Bft) N-NW 346 0 min 0,000 mm 0 W/m 0,2 C 3,5 C 4,8 km/h (1 Bft) 100,00 %
11.01.2012 01:37 3,5 C 79 % 1031,6 hPa 0,0 l/m 1,7 km/h (1 Bft) N-NW 346 0 min 0,000 mm 0 W/m 0,2 C 3,5 C 4,8 km/h (1 Bft) 100,00 %
11.01.2012 01:38 3,5 C 79 % 1031,6 hPa 0,0 l/m 1,8 km/h (1 Bft) N-NW 345 0 min 0,000 mm 0 W/m 0,2 C 3,5 C 4,8 km/h (1 Bft) 100,00 %
11.01.2012 01:39 3,5 C 79 % 1031,6 hPa 0,0 l/m 3,0 km/h (1 Bft) N-NW 345 0 min 0,000 mm 0 W/m 0,2 C 3,5 C 4,8 km/h (1 Bft) 100,00 %
11.01.2012 01:40 3,5 C 79 % 1031,6 hPa 0,0 l/m 0,2 km/h (0 Bft) N-NW 345 0 min 0,000 mm 0 W/m 0,2 C 3,5 C 1,6 km/h (1 Bft) 100,00 %
11.01.2012 01:41 3,6 C 79 % 1031,5 hPa 0,0 l/m 0,9 km/h (0 Bft) N-NW 346 0 min 0,000 mm 0 W/m 0,3 C 3,6 C 3,2 km/h (1 Bft) 100,00 %
11.01.2012 01:42 3,6 C 79 % 1031,6 hPa 0,0 l/m 0,0 km/h (0 Bft) N-NW 346 0 min 0,000 mm 0 W/m 0,3 C 3,6 C 0,0 km/h (0 Bft) 100,00 %
11.01.2012 01:43 3,6 C 79 % 1031,6 hPa 0,0 l/m 0,0 km/h (0 Bft) N-NW 346 0 min 0,000 mm 0 W/m 0,3 C 3,6 C 0,0 km/h (0 Bft) 100,00 %
11.01.2012 01:44 3,6 C 79 % 1031,5 hPa 0,0 l/m 1,5 km/h (1 Bft) N-NW 345 0 min 0,000 mm 0 W/m 0,3 C 3,6 C 6,4 km/h (2 Bft) 100,00 %
11.01.2012 01:45 3,6 C 79 % 1031,6 hPa 0,0 l/m 5,1 km/h (1 Bft) N-NW 345 0 min 0,000 mm 0 W/m 0,3 C 3,6 C 9,7 km/h (2 Bft) 100,00 %
11.01.2012 01:46 3,6 C 79 % 1031,6 hPa 0,0 l/m 4,9 km/h (1 Bft) N-NW 346 0 min 0,000 mm 0 W/m 0,3 C 3,6 C 6,4 km/h (2 Bft) 100,00 %
11.01.2012 01:47 3,6 C 79 % 1031,5 hPa 0,0 l/m 2,3 km/h (1 Bft) N-NW 346 0 min 0,000 mm 0 W/m 0,3 C 3,6 C 6,4 km/h (2 Bft) 100,00 %
11.01.2012 01:48 3,6 C 79 % 1031,5 hPa 0,0 l/m 0,2 km/h (0 Bft) N-NW 346 0 min 0,000 mm 0 W/m 0,3 C 3,6 C 3,2 km/h (1 Bft) 100,00 %
11.01.2012 01:49 3,6 C 79 % 1031,6 hPa 0,0 l/m 2,0 km/h (1 Bft) N-NW 346 0 min 0,000 mm 0 W/m 0,3 C 3,6 C 6,4 km/h (2 Bft) 100,00 %
11.01.2012 01:50 3,6 C 79 % 1031,6 hPa 0,0 l/m 3,8 km/h (1 Bft) N-NW 346 0 min 0,000 mm 0 W/m 0,3 C 3,6 C 6,4 km/h (2 Bft) 100,00 %
11.01.2012 01:51 3,6 C 79 % 1031,5 hPa 0,0 l/m 4,2 km/h (1 Bft) N-NW 346 0 min 0,000 mm 0 W/m 0,3 C 3,6 C 6,4 km/h (2 Bft) 100,00 %
11.01.2012 01:52 3,6 C 79 % 1031,6 hPa 0,0 l/m 4,0 km/h (1 Bft) N-NW 346 0 min 0,000 mm 0 W/m 0,3 C 3,6 C 8,0 km/h (2 Bft) 100,00 %
11.01.2012 01:53 3,6 C 79 % 1031,6 hPa 0,0 l/m 0,5 km/h (0 Bft) N-NW 346 0 min 0,000 mm 0 W/m 0,3 C 3,6 C 4,8 km/h (1 Bft) 100,00 %
11.01.2012 01:54 3,6 C 79 % 1031,5 hPa 0,0 l/m 4,1 km/h (1 Bft) N-NW 346 0 min 0,000 mm 0 W/m 0,3 C 3,6 C 8,0 km/h (2 Bft) 100,00 %
11.01.2012 01:55 3,7 C 79 % 1031,7 hPa 0,0 l/m 4,3 km/h (1 Bft) N-NW 347 0 min 0,000 mm 0 W/m 0,4 C 3,7 C 6,4 km/h (2 Bft) 100,00 %
11.01.2012 01:56 3,7 C 80 % 1031,6 hPa 0,0 l/m 0,2 km/h (0 Bft) N-NW 347 0 min 0,000 mm 0 W/m 0,6 C 3,7 C 3,2 km/h (1 Bft) 100,00 %
11.01.2012 01:57 3,7 C 80 % 1031,6 hPa 0,0 l/m 0,5 km/h (0 Bft) N-NW 347 0 min 0,000 mm 0 W/m 0,6 C 3,7 C 3,2 km/h (1 Bft) 100,00 %
11.01.2012 01:58 3,7 C 80 % 1031,6 hPa 0,0 l/m 0,0 km/h (0 Bft) N-NW 346 0 min 0,000 mm 0 W/m 0,6 C 3,7 C 0,0 km/h (0 Bft) 100,00 %
11.01.2012 01:59 3,7 C 80 % 1031,6 hPa 0,0 l/m 3,6 km/h (1 Bft) N-NW 346 0 min 0,000 mm 0 W/m 0,6 C 3,7 C 6,4 km/h (2 Bft) 100,00 %
11.01.2012 02:00 3,7 C 80 % 1031,6 hPa 0,0 l/m 3,6 km/h (1 Bft) N-NW 345 0 min 0,026 mm 0 W/m 0,6 C 3,7 C 6,4 km/h (2 Bft) 95,83 %
11.01.2012 02:01 3,7 C 80 % 1031,6 hPa 0,0 l/m 0,8 km/h (0 Bft) N-NW 345 0 min 0,000 mm 0 W/m 0,6 C 3,7 C 6,4 km/h (2 Bft) 100,00 %
11.01.2012 02:02 3,7 C 80 % 1031,6 hPa 0,0 l/m 4,2 km/h (1 Bft) N-NW 346 0 min 0,000 mm 0 W/m 0,6 C 3,7 C 6,4 km/h (2 Bft) 100,00 %
11.01.2012 02:03 3,7 C 80 % 1031,6 hPa 0,0 l/m 7,2 km/h (2 Bft) N-NW 343 0 min 0,000 mm 0 W/m 0,6 C 3,0 C 9,7 km/h (2 Bft) 100,00 %
11.01.2012 02:04 3,7 C 80 % 1031,5 hPa 0,0 l/m 6,7 km/h (2 Bft) N-NW 340 0 min 0,000 mm 0 W/m 0,6 C 3,4 C 9,7 km/h (2 Bft) 100,00 %
11.01.2012 02:05 3,7 C 80 % 1031,5 hPa 0,0 l/m 7,6 km/h (2 Bft) NW 326 0 min 0,000 mm 0 W/m 0,6 C 2,6 C 11,3 km/h (2 Bft) 100,00 %
11.01.2012 02:06 3,7 C 80 % 1031,6 hPa 0,0 l/m 7,5 km/h (2 Bft) NW 326 0 min 0,000 mm 0 W/m 0,6 C 2,7 C 11,3 km/h (2 Bft) 100,00 %
11.01.2012 02:07 3,7 C 80 % 1031,5 hPa 0,0 l/m 7,8 km/h (2 Bft) NW 323 0 min 0,000 mm 0 W/m 0,6 C 2,4 C 9,7 km/h (2 Bft) 100,00 %
11.01.2012 02:08 3,8 C 80 % 1031,5 hPa 0,0 l/m 6,1 km/h (2 Bft) NW 312 0 min 0,000 mm 0 W/m 0,7 C 3,8 C 9,7 km/h (2 Bft) 100,00 %
11.01.2012 02:09 3,8 C 80 % 1031,5 hPa 0,0 l/m 7,7 km/h (2 Bft) NW 313 0 min 0,000 mm 0 W/m 0,7 C 2,6 C 11,3 km/h (2 Bft) 100,00 %
11.01.2012 02:10 3,8 C 80 % 1031,5 hPa 0,0 l/m 9,1 km/h (2 Bft) W-NW 302 0 min 0,000 mm 0 W/m 0,7 C 1,4 C 16,1 km/h (3 Bft) 100,00 %
11.01.2012 02:11 3,9 C 80 % 1031,5 hPa 0,0 l/m 8,3 km/h (2 Bft) NW 307 0 min 0,000 mm 0 W/m 0,8 C 2,2 C 11,3 km/h (2 Bft) 100,00 %
11.01.2012 02:12 3,9 C 80 % 1031,5 hPa 0,0 l/m 9,4 km/h (2 Bft) NW 304 0 min 0,000 mm 0 W/m 0,8 C 1,3 C 14,5 km/h (3 Bft) 100,00 %
11.01.2012 02:13 3,9 C 80 % 1031,5 hPa 0,0 l/m 7,4 km/h (2 Bft) NW 306 0 min 0,000 mm 0 W/m 0,8 C 3,0 C 8,0 km/h (2 Bft) 100,00 %
11.01.2012 02:14 3,9 C 80 % 1031,5 hPa 0,0 l/m 8,6 km/h (2 Bft) NW 311 0 min 0,000 mm 0 W/m 0,8 C 1,9 C 16,1 km/h (3 Bft) 100,00 %
11.01.2012 02:15 4,0 C 80 % 1031,5 hPa 0,0 l/m 12,0 km/h (2 Bft) W-NW 287 0 min 0,000 mm 0 W/m 0,9 C -0,4 C 16,1 km/h (3 Bft) 96,00 %
11.01.2012 02:16 4,1 C 80 % 1031,5 hPa 0,0 l/m 12,2 km/h (2 Bft) W-NW 298 0 min 0,000 mm 0 W/m 1,0 C -0,4 C 17,7 km/h (3 Bft) 100,00 %
11.01.2012 02:17 4,1 C 80 % 1031,6 hPa 0,0 l/m 14,4 km/h (3 Bft) NW 308 0 min 0,000 mm 0 W/m 1,0 C -1,7 C 19,3 km/h (3 Bft) 100,00 %
11.01.2012 02:18 4,2 C 80 % 1031,6 hPa 0,0 l/m 9,7 km/h (2 Bft) NW 309 0 min 0,000 mm 0 W/m 1,1 C 1,4 C 12,9 km/h (3 Bft) 100,00 %
11.01.2012 02:19 4,2 C 79 % 1031,6 hPa 0,0 l/m 10,7 km/h (2 Bft) NW 304 0 min 0,000 mm 0 W/m 0,9 C 0,7 C 16,1 km/h (3 Bft) 92,86 %
11.01.2012 02:20 4,2 C 79 % 1031,6 hPa 0,0 l/m 11,3 km/h (2 Bft) NW 310 0 min 0,000 mm 0 W/m 0,9 C 0,3 C 17,7 km/h (3 Bft) 100,00 %
11.01.2012 02:21 4,3 C 79 % 1031,6 hPa 0,0 l/m 10,4 km/h (2 Bft) NW 308 0 min 0,000 mm 0 W/m 1,0 C 1,0 C 12,9 km/h (3 Bft) 100,00 %
11.01.2012 02:22 4,3 C 79 % 1031,6 hPa 0,0 l/m 12,2 km/h (2 Bft) NW 313 0 min 0,000 mm 0 W/m 1,0 C -0,2 C 17,7 km/h (3 Bft) 100,00 %
11.01.2012 02:23 4,3 C 79 % 1031,6 hPa 0,0 l/m 11,7 km/h (2 Bft) NW 304 0 min 0,000 mm 0 W/m 1,0 C 0,1 C 16,1 km/h (3 Bft) 100,00 %
11.01.2012 02:24 4,4 C 79 % 1031,6 hPa 0,0 l/m 11,3 km/h (2 Bft) NW 310 0 min 0,000 mm 0 W/m 1,1 C 0,5 C 16,1 km/h (3 Bft) 100,00 %
11.01.2012 02:25 4,4 C 78 % 1031,6 hPa 0,0 l/m 7,7 km/h (2 Bft) NW 304 0 min 0,000 mm 0 W/m 0,9 C 3,2 C 9,7 km/h (2 Bft) 100,00 %
11.01.2012 02:26 4,4 C 78 % 1031,6 hPa 0,0 l/m 7,6 km/h (2 Bft) NW 313 0 min 0,000 mm 0 W/m 0,9 C 3,3 C 11,3 km/h (2 Bft) 92,86 %
11.01.2012 02:27 4,4 C 78 % 1031,6 hPa 0,0 l/m 7,3 km/h (2 Bft) NW 311 0 min 0,000 mm 0 W/m 0,9 C 3,6 C 9,7 km/h (2 Bft) 96,77 %
11.01.2012 02:28 4,5 C 78 % 1031,6 hPa 0,0 l/m 9,1 km/h (2 Bft) NW 311 0 min 0,000 mm 0 W/m 1,0 C 2,2 C 16,1 km/h (3 Bft) 100,00 %
11.01.2012 02:29 4,5 C 78 % 1031,6 hPa 0,0 l/m 7,8 km/h (2 Bft) NW 311 0 min 0,000 mm 0 W/m 1,0 C 3,2 C 11,3 km/h (2 Bft) 100,00 %
11.01.2012 02:30 4,6 C 78 % 1031,6 hPa 0,0 l/m 6,0 km/h (2 Bft) NW 311 0 min 0,000 mm 0 W/m 1,1 C 4,6 C 8,0 km/h (2 Bft) 100,00 %
11.01.2012 02:31 4,6 C 77 % 1031,6 hPa 0,0 l/m 6,4 km/h (2 Bft) NW 312 0 min 0,000 mm 0 W/m 0,9 C 4,6 C 9,7 km/h (2 Bft) 100,00 %
11.01.2012 02:32 4,6 C 77 % 1031,6 hPa 0,0 l/m 6,2 km/h (2 Bft) NW 310 0 min 0,000 mm 0 W/m 0,9 C 4,6 C 9,7 km/h (2 Bft) 100,00 %
11.01.2012 02:33 4,6 C 77 % 1031,6 hPa 0,0 l/m 4,4 km/h (1 Bft) NW 310 0 min 0,000 mm 0 W/m 0,9 C 4,6 C 6,4 km/h (2 Bft) 100,00 %
11.01.2012 02:34 4,6 C 77 % 1031,6 hPa 0,0 l/m 6,1 km/h (2 Bft) NW 310 0 min 0,000 mm 0 W/m 0,9 C 4,6 C 8,0 km/h (2 Bft) 100,00 %
11.01.2012 02:35 4,6 C 77 % 1031,6 hPa 0,0 l/m 6,0 km/h (2 Bft) NW 313 0 min 0,000 mm 0 W/m 0,9 C 4,6 C 8,0 km/h (2 Bft) 100,00 %
11.01.2012 02:36 4,6 C 77 % 1031,6 hPa 0,0 l/m 4,6 km/h (1 Bft) NW 314 0 min 0,000 mm 0 W/m 0,9 C 4,6 C 6,4 km/h (2 Bft) 100,00 %
11.01.2012 02:37 4,6 C 77 % 1031,6 hPa 0,0 l/m 6,9 km/h (2 Bft) NW 317 0 min 0,000 mm 0 W/m 0,9 C 4,2 C 9,7 km/h (2 Bft) 100,00 %
11.01.2012 02:38 4,5 C 77 % 1031,6 hPa 0,0 l/m 6,5 km/h (2 Bft) NW 317 0 min 0,000 mm 0 W/m 0,8 C 4,4 C 9,7 km/h (2 Bft) 100,00 %
11.01.2012 02:39 4,5 C 77 % 1031,5 hPa 0,0 l/m 6,1 km/h (2 Bft) NW 317 0 min 0,000 mm 0 W/m 0,8 C 4,5 C 8,0 km/h (2 Bft) 100,00 %
11.01.2012 02:40 4,4 C 77 % 1031,6 hPa 0,0 l/m 6,2 km/h (2 Bft) NW 318 0 min 0,000 mm 0 W/m 0,7 C 4,4 C 8,0 km/h (2 Bft) 100,00 %
11.01.2012 02:41 4,4 C 77 % 1031,6 hPa 0,0 l/m 6,3 km/h (2 Bft) NW 319 0 min 0,000 mm 0 W/m 0,7 C 4,4 C 8,0 km/h (2 Bft) 100,00 %
11.01.2012 02:42 4,4 C 77 % 1031,6 hPa 0,0 l/m 6,8 km/h (2 Bft) NW 319 0 min 0,000 mm 0 W/m 0,7 C 4,1 C 9,7 km/h (2 Bft) 100,00 %
11.01.2012 02:43 4,3 C 77 % 1031,5 hPa 0,0 l/m 6,5 km/h (2 Bft) NW 320 0 min 0,000 mm 0 W/m 0,6 C 4,2 C 8,0 km/h (2 Bft) 100,00 %
11.01.2012 02:44 4,3 C 77 % 1031,6 hPa 0,0 l/m 5,6 km/h (1 Bft) NW 319 0 min 0,000 mm 0 W/m 0,6 C 4,3 C 9,7 km/h (2 Bft) 100,00 %
11.01.2012 02:45 4,3 C 77 % 1031,5 hPa 0,0 l/m 6,5 km/h (2 Bft) NW 318 0 min 0,000 mm 0 W/m 0,6 C 4,2 C 8,0 km/h (2 Bft) 100,00 %
11.01.2012 02:46 4,3 C 77 % 1031,5 hPa 0,0 l/m 7,5 km/h (2 Bft) NW 315 0 min 0,000 mm 0 W/m 0,6 C 3,3 C 11,3 km/h (2 Bft) 100,00 %
11.01.2012 02:47 4,2 C 77 % 1031,5 hPa 0,0 l/m 8,0 km/h (2 Bft) NW 313 0 min 0,000 mm 0 W/m 0,5 C 2,8 C 11,3 km/h (2 Bft) 100,00 %
11.01.2012 02:48 4,2 C 77 % 1031,5 hPa 0,0 l/m 8,4 km/h (2 Bft) NW 313 0 min 0,000 mm 0 W/m 0,5 C 2,4 C 11,3 km/h (2 Bft) 100,00 %
11.01.2012 02:49 4,2 C 77 % 1031,5 hPa 0,0 l/m 7,9 km/h (2 Bft) NW 311 0 min 0,000 mm 0 W/m 0,5 C 2,8 C 12,9 km/h (3 Bft) 100,00 %
11.01.2012 02:50 4,1 C 77 % 1031,5 hPa 0,0 l/m 7,0 km/h (2 Bft) NW 311 0 min 0,000 mm 0 W/m 0,4 C 3,6 C 11,3 km/h (2 Bft) 100,00 %
11.01.2012 02:51 4,1 C 77 % 1031,5 hPa 0,0 l/m 9,7 km/h (2 Bft) W-NW 300 0 min 0,000 mm 0 W/m 0,4 C 1,3 C 16,1 km/h (3 Bft) 100,00 %
11.01.2012 02:52 4,1 C 77 % 1031,4 hPa 0,0 l/m 7,7 km/h (2 Bft) W-NW 301 0 min 0,000 mm 0 W/m 0,4 C 2,9 C 14,5 km/h (3 Bft) 100,00 %
11.01.2012 02:53 4,1 C 78 % 1031,4 hPa 0,0 l/m 9,7 km/h (2 Bft) W-NW 295 0 min 0,000 mm 0 W/m 0,6 C 1,3 C 16,1 km/h (3 Bft) 100,00 %
11.01.2012 02:54 4,1 C 78 % 1031,4 hPa 0,0 l/m 11,3 km/h (2 Bft) W-NW 302 0 min 0,000 mm 0 W/m 0,6 C 0,2 C 16,1 km/h (3 Bft) 100,00 %
11.01.2012 02:55 4,1 C 78 % 1031,5 hPa 0,0 l/m 10,3 km/h (2 Bft) W-NW 295 0 min 0,000 mm 0 W/m 0,6 C 0,9 C 14,5 km/h (3 Bft) 100,00 %
11.01.2012 02:56 4,1 C 78 % 1031,4 hPa 0,0 l/m 9,4 km/h (2 Bft) W-NW 296 0 min 0,000 mm 0 W/m 0,6 C 1,5 C 16,1 km/h (3 Bft) 100,00 %
11.01.2012 02:57 4,1 C 79 % 1031,4 hPa 0,0 l/m 8,0 km/h (2 Bft) W-NW 300 0 min 0,000 mm 0 W/m 0,8 C 2,7 C 11,3 km/h (2 Bft) 100,00 %
11.01.2012 02:58 4,1 C 79 % 1031,4 hPa 0,0 l/m 9,1 km/h (2 Bft) W-NW 294 0 min 0,000 mm 0 W/m 0,8 C 1,8 C 12,9 km/h (3 Bft) 100,00 %
11.01.2012 02:59 4,1 C 79 % 1031,4 hPa 0,0 l/m 10,9 km/h (2 Bft) NW 306 0 min 0,000 mm 0 W/m 0,8 C 0,4 C 14,5 km/h (3 Bft) 100,00 %
11.01.2012 03:00 4,1 C 79 % 1031,4 hPa 0,0 l/m 9,2 km/h (2 Bft) W-NW 303 0 min 0,025 mm 0 W/m 0,8 C 1,7 C 12,9 km/h (3 Bft) 100,00 %
11.01.2012 03:01 4,1 C 79 % 1031,4 hPa 0,0 l/m 11,0 km/h (2 Bft) NW 310 0 min 0,000 mm 0 W/m 0,8 C 0,4 C 17,7 km/h (3 Bft) 100,00 %
11.01.2012 03:02 4,2 C 79 % 1031,4 hPa 0,0 l/m 6,4 km/h (2 Bft) NW 309 0 min 0,000 mm 0 W/m 0,9 C 4,2 C 17,7 km/h (3 Bft) 100,00 %
11.01.2012 03:03 4,2 C 79 % 1031,4 hPa 0,0 l/m 10,9 km/h (2 Bft) NW 307 0 min 0,000 mm 0 W/m 0,9 C 0,6 C 17,7 km/h (3 Bft) 100,00 %
11.01.2012 03:04 4,2 C 79 % 1031,4 hPa 0,0 l/m 11,1 km/h (2 Bft) W-NW 303 0 min 0,000 mm 0 W/m 0,9 C 0,4 C 16,1 km/h (3 Bft) 100,00 %
11.01.2012 03:05 4,2 C 79 % 1031,4 hPa 0,0 l/m 8,0 km/h (2 Bft) W-NW 303 0 min 0,000 mm 0 W/m 0,9 C 2,8 C 11,3 km/h (2 Bft) 100,00 %
11.01.2012 03:06 4,3 C 79 % 1031,4 hPa 0,0 l/m 11,8 km/h (2 Bft) W-NW 292 0 min 0,000 mm 0 W/m 1,0 C 0,1 C 16,1 km/h (3 Bft) 100,00 %
11.01.2012 03:07 4,3 C 79 % 1031,3 hPa 0,0 l/m 9,9 km/h (2 Bft) NW 304 0 min 0,000 mm 0 W/m 1,0 C 1,4 C 14,5 km/h (3 Bft) 100,00 %
11.01.2012 03:08 4,3 C 79 % 1031,4 hPa 0,0 l/m 12,2 km/h (2 Bft) NW 311 0 min 0,000 mm 0 W/m 1,0 C -0,2 C 17,7 km/h (3 Bft) 100,00 %
11.01.2012 03:09 4,3 C 79 % 1031,4 hPa 0,0 l/m 9,9 km/h (2 Bft) W-NW 302 0 min 0,000 mm 0 W/m 1,0 C 1,4 C 11,3 km/h (2 Bft) 100,00 %
11.01.2012 03:10 4,4 C 79 % 1031,4 hPa 0,0 l/m 8,6 km/h (2 Bft) NW 313 0 min 0,000 mm 0 W/m 1,1 C 2,5 C 11,3 km/h (2 Bft) 100,00 %
11.01.2012 03:11 4,4 C 79 % 1031,3 hPa 0,0 l/m 11,7 km/h (2 Bft) W-NW 297 0 min 0,000 mm 0 W/m 1,1 C 0,3 C 17,7 km/h (3 Bft) 100,00 %
11.01.2012 03:12 4,4 C 79 % 1031,4 hPa 0,0 l/m 8,9 km/h (2 Bft) NW 312 0 min 0,000 mm 0 W/m 1,1 C 2,2 C 12,9 km/h (3 Bft) 100,00 %
11.01.2012 03:13 4,4 C 79 % 1031,4 hPa 0,0 l/m 12,2 km/h (2 Bft) W-NW 302 0 min 0,000 mm 0 W/m 1,1 C -0,1 C 16,1 km/h (3 Bft) 100,00 %
11.01.2012 03:14 4,4 C 79 % 1031,4 hPa 0,0 l/m 9,6 km/h (2 Bft) W-NW 303 0 min 0,000 mm 0 W/m 1,1 C 1,7 C 16,1 km/h (3 Bft) 100,00 %
11.01.2012 03:15 4,5 C 79 % 1031,5 hPa 0,0 l/m 10,5 km/h (2 Bft) NW 306 0 min 0,000 mm 0 W/m 1,2 C 1,2 C 16,1 km/h (3 Bft) 100,00 %
11.01.2012 03:16 4,5 C 79 % 1031,4 hPa 0,0 l/m 9,8 km/h (2 Bft) NW 320 0 min 0,000 mm 0 W/m 1,2 C 1,7 C 16,1 km/h (3 Bft) 100,00 %
11.01.2012 03:17 4,6 C 79 % 1031,3 hPa 0,0 l/m 9,7 km/h (2 Bft) W-NW 298 0 min 0,000 mm 0 W/m 1,3 C 1,8 C 16,1 km/h (3 Bft) 100,00 %
11.01.2012 03:18 4,6 C 78 % 1031,4 hPa 0,0 l/m 9,5 km/h (2 Bft) NW 308 0 min 0,000 mm 0 W/m 1,1 C 2,0 C 16,1 km/h (3 Bft) 100,00 %
11.01.2012 03:19 4,6 C 78 % 1031,4 hPa 0,0 l/m 9,9 km/h (2 Bft) NW 308 0 min 0,000 mm 0 W/m 1,1 C 1,7 C 14,5 km/h (3 Bft) 100,00 %
11.01.2012 03:20 4,6 C 78 % 1031,4 hPa 0,0 l/m 9,2 km/h (2 Bft) NW 313 0 min 0,000 mm 0 W/m 1,1 C 2,2 C 16,1 km/h (3 Bft) 100,00 %
11.01.2012 03:21 4,6 C 78 % 1031,4 hPa 0,0 l/m 10,4 km/h (2 Bft) NW 309 0 min 0,000 mm 0 W/m 1,1 C 1,3 C 16,1 km/h (3 Bft) 100,00 %
11.01.2012 03:22 4,6 C 78 % 1031,4 hPa 0,0 l/m 9,7 km/h (2 Bft) NW 306 0 min 0,000 mm 0 W/m 1,1 C 1,8 C 11,3 km/h (2 Bft) 100,00 %
11.01.2012 03:23 4,7 C 78 % 1031,4 hPa 0,0 l/m 10,2 km/h (2 Bft) NW 309 0 min 0,000 mm 0 W/m 1,2 C 1,6 C 16,1 km/h (3 Bft) 100,00 %
11.01.2012 03:24 4,7 C 78 % 1031,4 hPa 0,0 l/m 7,7 km/h (2 Bft) NW 307 0 min 0,000 mm 0 W/m 1,2 C 3,5 C 11,3 km/h (2 Bft) 100,00 %
11.01.2012 03:25 4,7 C 78 % 1031,3 hPa 0,0 l/m 10,5 km/h (2 Bft) W-NW 302 0 min 0,000 mm 0 W/m 1,2 C 1,4 C 12,9 km/h (3 Bft) 100,00 %
11.01.2012 03:26 4,7 C 78 % 1031,4 hPa 0,0 l/m 9,6 km/h (2 Bft) NW 311 0 min 0,000 mm 0 W/m 1,2 C 2,0 C 14,5 km/h (3 Bft) 100,00 %
11.01.2012 03:27 4,7 C 78 % 1031,4 hPa 0,0 l/m 7,2 km/h (2 Bft) NW 307 0 min 0,000 mm 0 W/m 1,2 C 4,0 C 9,7 km/h (2 Bft) 100,00 %
11.01.2012 03:28 4,7 C 78 % 1031,4 hPa 0,0 l/m 7,6 km/h (2 Bft) NW 313 0 min 0,000 mm 0 W/m 1,2 C 3,6 C 11,3 km/h (2 Bft) 100,00 %
11.01.2012 03:29 4,7 C 78 % 1031,4 hPa 0,0 l/m 8,4 km/h (2 Bft) NW 304 0 min 0,000 mm 0 W/m 1,2 C 3,0 C 14,5 km/h (3 Bft) 100,00 %
11.01.2012 03:30 4,7 C 78 % 1031,4 hPa 0,0 l/m 6,4 km/h (2 Bft) NW 305 0 min 0,000 mm 0 W/m 1,2 C 4,7 C 9,7 km/h (2 Bft) 100,00 %
11.01.2012 03:32 4,7 C 78 % 1031,3 hPa 0,0 l/m 6,7 km/h (2 Bft) NW 304 0 min 0,000 mm 0 W/m 1,2 C 4,4 C 11,3 km/h (2 Bft) 100,00 %
11.01.2012 03:33 4,7 C 78 % 1031,3 hPa 0,0 l/m 8,1 km/h (2 Bft) W-NW 300 0 min 0,000 mm 0 W/m 1,2 C 3,2 C 11,3 km/h (2 Bft) 100,00 %
11.01.2012 03:34 4,7 C 78 % 1031,3 hPa 0,0 l/m 7,4 km/h (2 Bft) W-NW 299 0 min 0,000 mm 0 W/m 1,2 C 3,8 C 9,7 km/h (2 Bft) 100,00 %
11.01.2012 03:35 4,7 C 78 % 1031,4 hPa 0,0 l/m 6,0 km/h (2 Bft) NW 309 0 min 0,000 mm 0 W/m 1,2 C 4,7 C 9,7 km/h (2 Bft) 100,00 %
11.01.2012 03:36 4,7 C 78 % 1031,3 hPa 0,0 l/m 7,6 km/h (2 Bft) W-NW 299 0 min 0,000 mm 0 W/m 1,2 C 3,6 C 11,3 km/h (2 Bft) 100,00 %
11.01.2012 03:37 4,7 C 78 % 1031,3 hPa 0,0 l/m 7,7 km/h (2 Bft) W-NW 298 0 min 0,000 mm 0 W/m 1,2 C 3,5 C 9,7 km/h (2 Bft) 100,00 %
11.01.2012 03:38 4,7 C 78 % 1031,3 hPa 0,0 l/m 9,4 km/h (2 Bft) W-NW 300 0 min 0,000 mm 0 W/m 1,2 C 2,2 C 14,5 km/h (3 Bft) 100,00 %
11.01.2012 03:39 4,7 C 78 % 1031,3 hPa 0,0 l/m 9,3 km/h (2 Bft) W-NW 296 0 min 0,000 mm 0 W/m 1,2 C 2,3 C 14,5 km/h (3 Bft) 100,00 %
11.01.2012 03:40 4,7 C 78 % 1031,3 hPa 0,0 l/m 7,2 km/h (2 Bft) W-NW 294 0 min 0,000 mm 0 W/m 1,2 C 4,0 C 11,3 km/h (2 Bft) 100,00 %
11.01.2012 03:41 4,7 C 78 % 1031,4 hPa 0,0 l/m 5,4 km/h (1 Bft) W-NW 294 0 min 0,000 mm 0 W/m 1,2 C 4,7 C 8,0 km/h (2 Bft) 100,00 %
11.01.2012 03:42 4,7 C 78 % 1031,4 hPa 0,0 l/m 6,8 km/h (2 Bft) W-NW 296 0 min 0,000 mm 0 W/m 1,2 C 4,4 C 11,3 km/h (2 Bft) 100,00 %
11.01.2012 03:43 4,7 C 78 % 1031,4 hPa 0,0 l/m 6,4 km/h (2 Bft) W-NW 297 0 min 0,000 mm 0 W/m 1,2 C 4,7 C 11,3 km/h (2 Bft) 100,00 %
11.01.2012 03:44 4,7 C 78 % 1031,4 hPa 0,0 l/m 8,3 km/h (2 Bft) W-NW 303 0 min 0,000 mm 0 W/m 1,2 C 3,0 C 14,5 km/h (3 Bft) 100,00 %
11.01.2012 03:45 4,7 C 78 % 1031,4 hPa 0,0 l/m 6,5 km/h (2 Bft) W-NW 302 0 min 0,000 mm 0 W/m 1,2 C 4,6 C 8,0 km/h (2 Bft) 100,00 %
11.01.2012 03:46 4,8 C 78 % 1031,4 hPa 0,0 l/m 8,2 km/h (2 Bft) NW 308 0 min 0,000 mm 0 W/m 1,3 C 3,2 C 12,9 km/h (3 Bft) 100,00 %
11.01.2012 03:47 4,8 C 78 % 1031,4 hPa 0,0 l/m 9,1 km/h (2 Bft) NW 304 0 min 0,000 mm 0 W/m 1,3 C 2,5 C 11,3 km/h (2 Bft) 100,00 %
11.01.2012 03:48 4,8 C 78 % 1031,3 hPa 0,0 l/m 10,7 km/h (2 Bft) W-NW 299 0 min 0,000 mm 0 W/m 1,3 C 1,4 C 14,5 km/h (3 Bft) 100,00 %
11.01.2012 03:49 4,8 C 78 % 1031,4 hPa 0,0 l/m 7,7 km/h (2 Bft) NW 307 0 min 0,000 mm 0 W/m 1,3 C 3,6 C 14,5 km/h (3 Bft) 100,00 %
11.01.2012 03:50 4,8 C 78 % 1031,4 hPa 0,0 l/m 8,6 km/h (2 Bft) W-NW 303 0 min 0,000 mm 0 W/m 1,3 C 2,9 C 9,7 km/h (2 Bft) 100,00 %
11.01.2012 03:51 4,8 C 78 % 1031,4 hPa 0,0 l/m 9,7 km/h (2 Bft) NW 309 0 min 0,000 mm 0 W/m 1,3 C 2,1 C 12,9 km/h (3 Bft) 100,00 %
11.01.2012 03:52 4,9 C 78 % 1031,4 hPa 0,0 l/m 7,3 km/h (2 Bft) NW 306 0 min 0,000 mm 0 W/m 1,4 C 4,1 C 9,7 km/h (2 Bft) 100,00 %
11.01.2012 03:53 4,9 C 78 % 1031,4 hPa 0,0 l/m 8,8 km/h (2 Bft) W-NW 302 0 min 0,000 mm 0 W/m 1,4 C 2,9 C 12,9 km/h (3 Bft) 100,00 %
11.01.2012 03:54 4,9 C 78 % 1031,4 hPa 0,0 l/m 8,7 km/h (2 Bft) NW 304 0 min 0,000 mm 0 W/m 1,4 C 2,9 C 14,5 km/h (3 Bft) 100,00 %
11.01.2012 03:55 4,9 C 78 % 1031,4 hPa 0,0 l/m 9,2 km/h (2 Bft) W-NW 300 0 min 0,000 mm 0 W/m 1,4 C 2,5 C 14,5 km/h (3 Bft) 100,00 %
11.01.2012 03:56 4,9 C 78 % 1031,4 hPa 0,0 l/m 8,7 km/h (2 Bft) NW 310 0 min 0,000 mm 0 W/m 1,4 C 2,9 C 14,5 km/h (3 Bft) 100,00 %
11.01.2012 03:57 4,9 C 78 % 1031,4 hPa 0,0 l/m 6,6 km/h (2 Bft) NW 309 0 min 0,000 mm 0 W/m 1,4 C 4,7 C 9,7 km/h (2 Bft) 100,00 %
11.01.2012 03:58 4,9 C 78 % 1031,4 hPa 0,0 l/m 8,4 km/h (2 Bft) NW 308 0 min 0,000 mm 0 W/m 1,4 C 3,2 C 11,3 km/h (2 Bft) 100,00 %
11.01.2012 03:59 5,0 C 78 % 1031,4 hPa 0,0 l/m 6,8 km/h (2 Bft) NW 309 0 min 0,000 mm 0 W/m 1,5 C 4,7 C 9,7 km/h (2 Bft) 100,00 %
11.01.2012 04:00 5,0 C 78 % 1031,4 hPa 0,0 l/m 7,0 km/h (2 Bft) NW 311 0 min 0,026 mm 0 W/m 1,5 C 4,5 C 8,0 km/h (2 Bft) 100,00 %
11.01.2012 04:03 5,1 C 78 % 1031,4 hPa 0,0 l/m 6,2 km/h (2 Bft) NW 316 0 min 0,000 mm 0 W/m 1,6 C 5,1 C 8,0 km/h (2 Bft) 100,00 %
11.01.2012 04:04 5,1 C 78 % 1031,4 hPa 0,0 l/m 4,8 km/h (1 Bft) NW 316 0 min 0,000 mm 0 W/m 1,6 C 5,1 C 4,8 km/h (1 Bft) 100,00 %
11.01.2012 04:05 5,1 C 78 % 1031,4 hPa 0,0 l/m 4,9 km/h (1 Bft) NW 316 0 min 0,000 mm 0 W/m 1,6 C 5,1 C 9,7 km/h (2 Bft) 100,00 %
11.01.2012 04:06 5,1 C 78 % 1031,4 hPa 0,0 l/m 6,0 km/h (2 Bft) NW 317 0 min 0,000 mm 0 W/m 1,6 C 5,1 C 8,0 km/h (2 Bft) 100,00 %
11.01.2012 04:07 5,1 C 78 % 1031,4 hPa 0,0 l/m 6,4 km/h (2 Bft) NW 319 0 min 0,000 mm 0 W/m 1,6 C 5,1 C 9,7 km/h (2 Bft) 95,83 %
11.01.2012 04:08 5,1 C 78 % 1031,4 hPa 0,0 l/m 3,6 km/h (1 Bft) NW 319 0 min 0,000 mm 0 W/m 1,6 C 5,1 C 4,8 km/h (1 Bft) 100,00 %
11.01.2012 04:09 5,1 C 78 % 1031,5 hPa 0,0 l/m 5,0 km/h (1 Bft) NW 323 0 min 0,000 mm 0 W/m 1,6 C 5,1 C 9,7 km/h (2 Bft) 100,00 %
11.01.2012 04:10 5,1 C 78 % 1031,4 hPa 0,0 l/m 4,3 km/h (1 Bft) NW 323 0 min 0,000 mm 0 W/m 1,6 C 5,1 C 8,0 km/h (2 Bft) 100,00 %
11.01.2012 04:11 5,1 C 78 % 1031,4 hPa 0,0 l/m 4,3 km/h (1 Bft) NW 323 0 min 0,000 mm 0 W/m 1,6 C 5,1 C 8,0 km/h (2 Bft) 100,00 %
11.01.2012 04:12 5,1 C 78 % 1031,4 hPa 0,0 l/m 5,7 km/h (1 Bft) N-NW 328 0 min 0,000 mm 0 W/m 1,6 C 5,1 C 9,7 km/h (2 Bft) 100,00 %
11.01.2012 04:13 5,0 C 78 % 1031,4 hPa 0,0 l/m 4,0 km/h (1 Bft) N-NW 328 0 min 0,000 mm 0 W/m 1,5 C 5,0 C 6,4 km/h (2 Bft) 100,00 %
11.01.2012 04:14 5,0 C 78 % 1031,4 hPa 0,0 l/m 5,3 km/h (1 Bft) N-NW 327 0 min 0,000 mm 0 W/m 1,5 C 5,0 C 6,4 km/h (2 Bft) 100,00 %
11.01.2012 04:15 5,0 C 78 % 1031,4 hPa 0,0 l/m 3,4 km/h (1 Bft) N-NW 327 0 min 0,000 mm 0 W/m 1,5 C 5,0 C 6,4 km/h (2 Bft) 100,00 %
11.01.2012 04:16 4,9 C 78 % 1031,3 hPa 0,0 l/m 5,4 km/h (1 Bft) NW 326 0 min 0,000 mm 0 W/m 1,4 C 4,9 C 6,4 km/h (2 Bft) 100,00 %
11.01.2012 04:17 4,9 C 78 % 1031,4 hPa 0,0 l/m 5,7 km/h (1 Bft) NW 325 0 min 0,000 mm 0 W/m 1,4 C 4,9 C 8,0 km/h (2 Bft) 100,00 %
11.01.2012 04:18 4,9 C 78 % 1031,4 hPa 0,0 l/m 4,7 km/h (1 Bft) NW 324 0 min 0,000 mm 0 W/m 1,4 C 4,9 C 8,0 km/h (2 Bft) 100,00 %
11.01.2012 04:19 4,9 C 78 % 1031,4 hPa 0,0 l/m 5,9 km/h (2 Bft) NW 323 0 min 0,000 mm 0 W/m 1,4 C 4,9 C 11,3 km/h (2 Bft) 100,00 %
11.01.2012 04:20 4,9 C 78 % 1031,4 hPa 0,0 l/m 6,4 km/h (2 Bft) NW 323 0 min 0,000 mm 0 W/m 1,4 C 4,9 C 8,0 km/h (2 Bft) 100,00 %
11.01.2012 04:21 4,9 C 78 % 1031,4 hPa 0,0 l/m 6,6 km/h (2 Bft) NW 321 0 min 0,000 mm 0 W/m 1,4 C 4,7 C 9,7 km/h (2 Bft) 100,00 %
11.01.2012 04:22 4,9 C 78 % 1031,4 hPa 0,0 l/m 8,3 km/h (2 Bft) NW 307 0 min 0,000 mm 0 W/m 1,4 C 3,3 C 14,5 km/h (3 Bft) 100,00 %
11.01.2012 04:23 4,9 C 78 % 1031,3 hPa 0,0 l/m 8,0 km/h (2 Bft) NW 304 0 min 0,000 mm 0 W/m 1,4 C 3,5 C 12,9 km/h (3 Bft) 100,00 %
11.01.2012 04:24 4,9 C 78 % 1031,4 hPa 0,0 l/m 9,6 km/h (2 Bft) NW 306 0 min 0,000 mm 0 W/m 1,4 C 2,2 C 14,5 km/h (3 Bft) 100,00 %
11.01.2012 04:25 4,9 C 78 % 1031,4 hPa 0,0 l/m 9,6 km/h (2 Bft) NW 312 0 min 0,000 mm 0 W/m 1,4 C 2,2 C 19,3 km/h (3 Bft) 100,00 %
11.01.2012 04:26 4,9 C 78 % 1031,3 hPa 0,0 l/m 8,7 km/h (2 Bft) NW 306 0 min 0,000 mm 0 W/m 1,4 C 2,9 C 12,9 km/h (3 Bft) 100,00 %
11.01.2012 04:27 4,9 C 78 % 1031,4 hPa 0,0 l/m 9,4 km/h (2 Bft) NW 306 0 min 0,000 mm 0 W/m 1,4 C 2,4 C 17,7 km/h (3 Bft) 100,00 %
11.01.2012 04:28 4,9 C 78 % 1031,4 hPa 0,0 l/m 7,5 km/h (2 Bft) NW 307 0 min 0,000 mm 0 W/m 1,4 C 3,9 C 12,9 km/h (3 Bft) 100,00 %
11.01.2012 04:29 4,9 C 78 % 1031,4 hPa 0,0 l/m 8,7 km/h (2 Bft) NW 306 0 min 0,000 mm 0 W/m 1,4 C 2,9 C 16,1 km/h (3 Bft) 100,00 %
11.01.2012 04:30 4,9 C 78 % 1031,4 hPa 0,0 l/m 7,2 km/h (2 Bft) NW 309 0 min 0,000 mm 0 W/m 1,4 C 4,2 C 9,7 km/h (2 Bft) 100,00 %
11.01.2012 04:31 4,9 C 78 % 1031,5 hPa 0,0 l/m 7,8 km/h (2 Bft) NW 310 0 min 0,000 mm 0 W/m 1,4 C 3,7 C 11,3 km/h (2 Bft) 100,00 %
11.01.2012 04:32 5,0 C 78 % 1031,5 hPa 0,0 l/m 8,5 km/h (2 Bft) NW 315 0 min 0,000 mm 0 W/m 1,5 C 3,2 C 12,9 km/h (3 Bft) 100,00 %
11.01.2012 04:33 5,1 C 78 % 1031,5 hPa 0,0 l/m 9,7 km/h (2 Bft) W-NW 296 0 min 0,000 mm 0 W/m 1,6 C 2,4 C 14,5 km/h (3 Bft) 100,00 %
11.01.2012 04:34 5,1 C 78 % 1031,5 hPa 0,0 l/m 6,2 km/h (2 Bft) W-NW 297 0 min 0,000 mm 0 W/m 1,6 C 5,1 C 8,0 km/h (2 Bft) 100,00 %
11.01.2012 04:35 5,1 C 78 % 1031,5 hPa 0,0 l/m 5,8 km/h (2 Bft) W-NW 298 0 min 0,000 mm 0 W/m 1,6 C 5,1 C 8,0 km/h (2 Bft) 100,00 %
11.01.2012 04:36 5,1 C 78 % 1031,5 hPa 0,0 l/m 6,0 km/h (2 Bft) W-NW 303 0 min 0,000 mm 0 W/m 1,6 C 5,1 C 9,7 km/h (2 Bft) 100,00 %
11.01.2012 04:37 5,1 C 78 % 1031,5 hPa 0,0 l/m 8,0 km/h (2 Bft) NW 310 0 min 0,000 mm 0 W/m 1,6 C 3,7 C 12,9 km/h (3 Bft) 100,00 %
11.01.2012 04:38 5,2 C 78 % 1031,5 hPa 0,0 l/m 6,3 km/h (2 Bft) NW 311 0 min 0,000 mm 0 W/m 1,7 C 5,2 C 9,7 km/h (2 Bft) 100,00 %
11.01.2012 04:39 5,2 C 78 % 1031,5 hPa 0,0 l/m 6,2 km/h (2 Bft) NW 310 0 min 0,000 mm 0 W/m 1,7 C 5,2 C 11,3 km/h (2 Bft) 100,00 %
11.01.2012 04:40 5,2 C 78 % 1031,5 hPa 0,0 l/m 7,3 km/h (2 Bft) NW 317 0 min 0,000 mm 0 W/m 1,7 C 4,4 C 12,9 km/h (3 Bft) 100,00 %
11.01.2012 04:41 5,2 C 78 % 1031,5 hPa 0,0 l/m 8,5 km/h (2 Bft) NW 311 0 min 0,000 mm 0 W/m 1,7 C 3,4 C 12,9 km/h (3 Bft) 100,00 %
11.01.2012 04:42 5,2 C 78 % 1031,5 hPa 0,0 l/m 3,8 km/h (1 Bft) W-NW 303 0 min 0,000 mm 0 W/m 1,7 C 5,2 C 9,7 km/h (2 Bft) 100,00 %
11.01.2012 04:43 5,2 C 78 % 1031,5 hPa 0,0 l/m 4,6 km/h (1 Bft) NW 309 0 min 0,000 mm 0 W/m 1,7 C 5,2 C 8,0 km/h (2 Bft) 100,00 %
11.01.2012 04:44 5,3 C 78 % 1031,5 hPa 0,0 l/m 1,8 km/h (1 Bft) NW 309 0 min 0,000 mm 0 W/m 1,8 C 5,3 C 4,8 km/h (1 Bft) 100,00 %
11.01.2012 04:45 5,3 C 77 % 1031,5 hPa 0,0 l/m 0,6 km/h (0 Bft) NW 309 0 min 0,000 mm 0 W/m 1,6 C 5,3 C 3,2 km/h (1 Bft) 100,00 %
11.01.2012 04:46 5,3 C 77 % 1031,5 hPa 0,0 l/m 0,0 km/h (0 Bft) NW 309 0 min 0,000 mm 0 W/m 1,6 C 5,3 C 0,0 km/h (0 Bft) 100,00 %
11.01.2012 04:47 5,3 C 77 % 1031,5 hPa 0,0 l/m 0,1 km/h (0 Bft) NW 309 0 min 0,000 mm 0 W/m 1,6 C 5,3 C 1,6 km/h (1 Bft) 100,00 %
11.01.2012 04:48 5,3 C 77 % 1031,6 hPa 0,0 l/m 0,0 km/h (0 Bft) NW 309 0 min 0,000 mm 0 W/m 1,6 C 5,3 C 0,0 km/h (0 Bft) 100,00 %
11.01.2012 04:49 5,3 C 77 % 1031,5 hPa 0,0 l/m 0,0 km/h (0 Bft) NW 309 0 min 0,000 mm 0 W/m 1,6 C 5,3 C 0,0 km/h (0 Bft) 100,00 %
11.01.2012 04:50 5,2 C 77 % 1031,5 hPa 0,0 l/m 0,0 km/h (0 Bft) NW 309 0 min 0,000 mm 0 W/m 1,5 C 5,2 C 0,0 km/h (0 Bft) 100,00 %
11.01.2012 04:51 5,2 C 77 % 1031,5 hPa 0,0 l/m 0,3 km/h (0 Bft) NW 309 0 min 0,000 mm 0 W/m 1,5 C 5,2 C 3,2 km/h (1 Bft) 100,00 %
11.01.2012 04:52 5,2 C 78 % 1031,6 hPa 0,0 l/m 0,0 km/h (0 Bft) NW 309 0 min 0,000 mm 0 W/m 1,7 C 5,2 C 0,0 km/h (0 Bft) 100,00 %
11.01.2012 04:53 5,2 C 78 % 1031,6 hPa 0,0 l/m 2,0 km/h (1 Bft) NW 309 0 min 0,000 mm 0 W/m 1,7 C 5,2 C 6,4 km/h (2 Bft) 100,00 %
11.01.2012 04:54 5,2 C 78 % 1031,6 hPa 0,0 l/m 2,0 km/h (1 Bft) NW 309 0 min 0,000 mm 0 W/m 1,7 C 5,2 C 4,8 km/h (1 Bft) 100,00 %
11.01.2012 04:55 5,2 C 78 % 1031,6 hPa 0,0 l/m 2,1 km/h (1 Bft) NW 309 0 min 0,000 mm 0 W/m 1,7 C 5,2 C 4,8 km/h (1 Bft) 100,00 %
11.01.2012 04:56 5,2 C 78 % 1031,5 hPa 0,0 l/m 0,8 km/h (0 Bft) NW 309 0 min 0,000 mm 0 W/m 1,7 C 5,2 C 3,2 km/h (1 Bft) 100,00 %
11.01.2012 04:57 5,1 C 78 % 1031,6 hPa 0,0 l/m 0,0 km/h (0 Bft) NW 309 0 min 0,000 mm 0 W/m 1,6 C 5,1 C 0,0 km/h (0 Bft) 100,00 %
11.01.2012 04:58 5,1 C 78 % 1031,6 hPa 0,0 l/m 2,7 km/h (1 Bft) NW 310 0 min 0,000 mm 0 W/m 1,6 C 5,1 C 6,4 km/h (2 Bft) 100,00 %
11.01.2012 04:59 5,1 C 78 % 1031,6 hPa 0,0 l/m 1,1 km/h (1 Bft) NW 311 0 min 0,000 mm 0 W/m 1,6 C 5,1 C 4,8 km/h (1 Bft) 100,00 %
11.01.2012 05:00 5,1 C 78 % 1031,6 hPa 0,0 l/m 1,8 km/h (1 Bft) NW 311 0 min 0,000 mm 0 W/m 1,6 C 5,1 C 6,4 km/h (2 Bft) 100,00 %
11.01.2012 05:01 5,1 C 78 % 1031,5 hPa 0,0 l/m 2,7 km/h (1 Bft) NW 311 0 min 0,025 mm 0 W/m 1,6 C 5,1 C 4,8 km/h (1 Bft) 100,00 %
11.01.2012 05:02 5,0 C 78 % 1031,5 hPa 0,0 l/m 2,9 km/h (1 Bft) NW 311 0 min 0,000 mm 0 W/m 1,5 C 5,0 C 6,4 km/h (2 Bft) 100,00 %
11.01.2012 05:03 5,0 C 78 % 1031,5 hPa 0,0 l/m 3,5 km/h (1 Bft) NW 311 0 min 0,000 mm 0 W/m 1,5 C 5,0 C 6,4 km/h (2 Bft) 100,00 %
11.01.2012 05:04 4,9 C 78 % 1031,5 hPa 0,0 l/m 4,3 km/h (1 Bft) NW 312 0 min 0,000 mm 0 W/m 1,4 C 4,9 C 6,4 km/h (2 Bft) 100,00 %
11.01.2012 05:05 4,9 C 78 % 1031,6 hPa 0,0 l/m 1,2 km/h (1 Bft) NW 313 0 min 0,000 mm 0 W/m 1,4 C 4,9 C 4,8 km/h (1 Bft) 100,00 %
11.01.2012 05:06 4,9 C 78 % 1031,5 hPa 0,0 l/m 0,0 km/h (0 Bft) NW 313 0 min 0,000 mm 0 W/m 1,4 C 4,9 C 0,0 km/h (0 Bft) 100,00 %
11.01.2012 05:07 4,9 C 78 % 1031,5 hPa 0,0 l/m 1,4 km/h (1 Bft) NW 313 0 min 0,000 mm 0 W/m 1,4 C 4,9 C 3,2 km/h (1 Bft) 100,00 %
11.01.2012 05:08 4,9 C 78 % 1031,4 hPa 0,0 l/m 0,0 km/h (0 Bft) NW 313 0 min 0,000 mm 0 W/m 1,4 C 4,9 C 0,0 km/h (0 Bft) 100,00 %
11.01.2012 05:09 4,9 C 78 % 1031,5 hPa 0,0 l/m 0,0 km/h (0 Bft) NW 313 0 min 0,000 mm 0 W/m 1,4 C 4,9 C 0,0 km/h (0 Bft) 100,00 %
11.01.2012 05:10 4,9 C 78 % 1031,5 hPa 0,0 l/m 0,0 km/h (0 Bft) NW 313 0 min 0,000 mm 0 W/m 1,4 C 4,9 C 0,0 km/h (0 Bft) 100,00 %
11.01.2012 05:11 4,9 C 78 % 1031,5 hPa 0,0 l/m 0,0 km/h (0 Bft) NW 313 0 min 0,000 mm 0 W/m 1,4 C 4,9 C 0,0 km/h (0 Bft) 100,00 %
11.01.2012 05:12 4,9 C 78 % 1031,5 hPa 0,0 l/m 0,0 km/h (0 Bft) NW 313 0 min 0,000 mm 0 W/m 1,4 C 4,9 C 0,0 km/h (0 Bft) 100,00 %
11.01.2012 05:13 4,9 C 78 % 1031,5 hPa 0,0 l/m 0,0 km/h (0 Bft) NW 313 0 min 0,000 mm 0 W/m 1,4 C 4,9 C 0,0 km/h (0 Bft) 100,00 %
11.01.2012 05:14 4,8 C 78 % 1031,5 hPa 0,0 l/m 0,0 km/h (0 Bft) NW 313 0 min 0,000 mm 0 W/m 1,3 C 4,8 C 0,0 km/h (0 Bft) 100,00 %
11.01.2012 05:15 4,8 C 79 % 1031,6 hPa 0,0 l/m 0,0 km/h (0 Bft) NW 313 0 min 0,000 mm 0 W/m 1,5 C 4,8 C 0,0 km/h (0 Bft) 100,00 %
11.01.2012 05:16 4,8 C 79 % 1031,5 hPa 0,0 l/m 0,0 km/h (0 Bft) NW 313 0 min 0,000 mm 0 W/m 1,5 C 4,8 C 0,0 km/h (0 Bft) 100,00 %
11.01.2012 05:17 4,8 C 79 % 1031,5 hPa 0,0 l/m 0,0 km/h (0 Bft) NW 313 0 min 0,000 mm 0 W/m 1,5 C 4,8 C 0,0 km/h (0 Bft) 100,00 %
11.01.2012 05:18 4,8 C 79 % 1031,5 hPa 0,0 l/m 0,0 km/h (0 Bft) NW 313 0 min 0,000 mm 0 W/m 1,5 C 4,8 C 0,0 km/h (0 Bft) 100,00 %
11.01.2012 05:19 4,8 C 79 % 1031,5 hPa 0,0 l/m 0,0 km/h (0 Bft) NW 313 0 min 0,000 mm 0 W/m 1,5 C 4,8 C 0,0 km/h (0 Bft) 100,00 %
11.01.2012 05:20 4,8 C 79 % 1031,5 hPa 0,0 l/m 0,0 km/h (0 Bft) NW 313 0 min 0,000 mm 0 W/m 1,5 C 4,8 C 0,0 km/h (0 Bft) 95,83 %
11.01.2012 05:21 4,8 C 79 % 1031,5 hPa 0,0 l/m 0,0 km/h (0 Bft) NW 313 0 min 0,000 mm 0 W/m 1,5 C 4,8 C 0,0 km/h (0 Bft) 100,00 %
11.01.2012 05:22 4,8 C 79 % 1031,5 hPa 0,0 l/m 0,0 km/h (0 Bft) NW 313 0 min 0,000 mm 0 W/m 1,5 C 4,8 C 0,0 km/h (0 Bft) 100,00 %
11.01.2012 05:23 4,8 C 79 % 1031,5 hPa 0,0 l/m 0,1 km/h (0 Bft) NW 313 0 min 0,000 mm 0 W/m 1,5 C 4,8 C 1,6 km/h (1 Bft) 100,00 %
11.01.2012 05:24 4,7 C 79 % 1031,5 hPa 0,0 l/m 0,0 km/h (0 Bft) NW 313 0 min 0,000 mm 0 W/m 1,4 C 4,7 C 0,0 km/h (0 Bft) 100,00 %
11.01.2012 05:25 4,7 C 79 % 1031,5 hPa 0,0 l/m 0,0 km/h (0 Bft) NW 313 0 min 0,000 mm 0 W/m 1,4 C 4,7 C 0,0 km/h (0 Bft) 100,00 %
11.01.2012 05:26 4,7 C 79 % 1031,5 hPa 0,0 l/m 0,0 km/h (0 Bft) NW 313 0 min 0,000 mm 0 W/m 1,4 C 4,7 C 0,0 km/h (0 Bft) 100,00 %
11.01.2012 05:27 4,7 C 79 % 1031,5 hPa 0,0 l/m 0,0 km/h (0 Bft) NW 313 0 min 0,000 mm 0 W/m 1,4 C 4,7 C 0,0 km/h (0 Bft) 100,00 %
11.01.2012 05:28 4,7 C 79 % 1031,6 hPa 0,0 l/m 1,1 km/h (1 Bft) NW 313 0 min 0,000 mm 0 W/m 1,4 C 4,7 C 3,2 km/h (1 Bft) 100,00 %
11.01.2012 05:29 4,7 C 79 % 1031,5 hPa 0,0 l/m 1,1 km/h (1 Bft) NW 313 0 min 0,000 mm 0 W/m 1,4 C 4,7 C 4,8 km/h (1 Bft) 100,00 %
11.01.2012 05:30 4,7 C 79 % 1031,5 hPa 0,0 l/m 1,7 km/h (1 Bft) NW 313 0 min 0,000 mm 0 W/m 1,4 C 4,7 C 4,8 km/h (1 Bft) 100,00 %
11.01.2012 05:31 4,7 C 79 % 1031,5 hPa 0,0 l/m 3,3 km/h (1 Bft) NW 314 0 min 0,000 mm 0 W/m 1,4 C 4,7 C 8,0 km/h (2 Bft) 100,00 %
11.01.2012 05:32 4,7 C 79 % 1031,5 hPa 0,0 l/m 0,1 km/h (0 Bft) NW 314 0 min 0,000 mm 0 W/m 1,4 C 4,7 C 1,6 km/h (1 Bft) 100,00 %
11.01.2012 05:33 4,7 C 80 % 1031,5 hPa 0,0 l/m 0,0 km/h (0 Bft) NW 314 0 min 0,000 mm 0 W/m 1,6 C 4,7 C 0,0 km/h (0 Bft) 100,00 %
11.01.2012 05:34 4,7 C 80 % 1031,6 hPa 0,0 l/m 0,0 km/h (0 Bft) NW 314 0 min 0,000 mm 0 W/m 1,6 C 4,7 C 0,0 km/h (0 Bft) 95,83 %
11.01.2012 05:35 4,7 C 80 % 1031,5 hPa 0,0 l/m 0,0 km/h (0 Bft) NW 314 0 min 0,000 mm 0 W/m 1,6 C 4,7 C 0,0 km/h (0 Bft) 100,00 %
11.01.2012 05:36 4,7 C 79 % 1031,5 hPa 0,0 l/m 0,0 km/h (0 Bft) NW 314 0 min 0,000 mm 0 W/m 1,4 C 4,7 C 0,0 km/h (0 Bft) 100,00 %
11.01.2012 05:37 4,7 C 79 % 1031,6 hPa 0,0 l/m 0,7 km/h (0 Bft) NW 314 0 min 0,000 mm 0 W/m 1,4 C 4,7 C 4,8 km/h (1 Bft) 100,00 %
11.01.2012 05:38 4,7 C 79 % 1031,5 hPa 0,0 l/m 2,0 km/h (1 Bft) NW 314 0 min 0,000 mm 0 W/m 1,4 C 4,7 C 4,8 km/h (1 Bft) 100,00 %
11.01.2012 05:39 4,7 C 79 % 1031,5 hPa 0,0 l/m 0,0 km/h (0 Bft) NW 314 0 min 0,000 mm 0 W/m 1,4 C 4,7 C 0,0 km/h (0 Bft) 100,00 %
11.01.2012 05:40 4,7 C 79 % 1031,5 hPa 0,0 l/m 0,0 km/h (0 Bft) NW 314 0 min 0,000 mm 0 W/m 1,4 C 4,7 C 0,0 km/h (0 Bft) 100,00 %
11.01.2012 05:41 4,7 C 79 % 1031,5 hPa 0,0 l/m 0,0 km/h (0 Bft) NW 314 0 min 0,000 mm 0 W/m 1,4 C 4,7 C 0,0 km/h (0 Bft) 100,00 %
11.01.2012 05:42 4,7 C 79 % 1031,4 hPa 0,0 l/m 0,0 km/h (0 Bft) NW 314 0 min 0,000 mm 0 W/m 1,4 C 4,7 C 0,0 km/h (0 Bft) 100,00 %
11.01.2012 05:43 4,7 C 79 % 1031,4 hPa 0,0 l/m 0,0 km/h (0 Bft) NW 314 0 min 0,000 mm 0 W/m 1,4 C 4,7 C 0,0 km/h (0 Bft) 100,00 %
11.01.2012 05:44 4,7 C 79 % 1031,4 hPa 0,0 l/m 0,0 km/h (0 Bft) NW 314 0 min 0,000 mm 0 W/m 1,4 C 4,7 C 0,0 km/h (0 Bft) 100,00 %
11.01.2012 05:45 4,7 C 79 % 1031,4 hPa 0,0 l/m 0,0 km/h (0 Bft) NW 314 0 min 0,000 mm 0 W/m 1,4 C 4,7 C 0,0 km/h (0 Bft) 100,00 %
11.01.2012 05:46 4,7 C 80 % 1031,5 hPa 0,0 l/m 0,0 km/h (0 Bft) NW 314 0 min 0,000 mm 0 W/m 1,6 C 4,7 C 0,0 km/h (0 Bft) 100,00 %
11.01.2012 05:47 4,7 C 79 % 1031,5 hPa 0,0 l/m 0,0 km/h (0 Bft) NW 314 0 min 0,000 mm 0 W/m 1,4 C 4,7 C 0,0 km/h (0 Bft) 100,00 %
11.01.2012 05:48 4,7 C 79 % 1031,5 hPa 0,0 l/m 0,0 km/h (0 Bft) NW 314 0 min 0,000 mm 0 W/m 1,4 C 4,7 C 0,0 km/h (0 Bft) 100,00 %
11.01.2012 05:49 4,7 C 79 % 1031,4 hPa 0,0 l/m 0,0 km/h (0 Bft) NW 314 0 min 0,000 mm 0 W/m 1,4 C 4,7 C 0,0 km/h (0 Bft) 100,00 %
11.01.2012 05:50 4,7 C 79 % 1031,4 hPa 0,0 l/m 0,0 km/h (0 Bft) NW 314 0 min 0,000 mm 0 W/m 1,4 C 4,7 C 0,0 km/h (0 Bft) 100,00 %
11.01.2012 05:51 4,7 C 79 % 1031,4 hPa 0,0 l/m 0,0 km/h (0 Bft) NW 314 0 min 0,000 mm 0 W/m 1,4 C 4,7 C 0,0 km/h (0 Bft) 100,00 %
11.01.2012 05:52 4,7 C 79 % 1031,4 hPa 0,0 l/m 0,0 km/h (0 Bft) NW 314 0 min 0,000 mm 0 W/m 1,4 C 4,7 C 0,0 km/h (0 Bft) 100,00 %
11.01.2012 05:53 4,7 C 79 % 1031,4 hPa 0,0 l/m 0,0 km/h (0 Bft) NW 314 0 min 0,000 mm 0 W/m 1,4 C 4,7 C 0,0 km/h (0 Bft) 100,00 %
11.01.2012 05:54 4,7 C 79 % 1031,3 hPa 0,0 l/m 0,0 km/h (0 Bft) NW 314 0 min 0,000 mm 0 W/m 1,4 C 4,7 C 0,0 km/h (0 Bft) 100,00 %
11.01.2012 05:55 4,7 C 79 % 1031,4 hPa 0,0 l/m 0,0 km/h (0 Bft) NW 314 0 min 0,000 mm 0 W/m 1,4 C 4,7 C 0,0 km/h (0 Bft) 100,00 %
11.01.2012 05:56 4,7 C 79 % 1031,3 hPa 0,0 l/m 0,0 km/h (0 Bft) NW 314 0 min 0,000 mm 0 W/m 1,4 C 4,7 C 0,0 km/h (0 Bft) 100,00 %
11.01.2012 05:57 4,7 C 79 % 1031,3 hPa 0,0 l/m 0,0 km/h (0 Bft) NW 314 0 min 0,000 mm 0 W/m 1,4 C 4,7 C 0,0 km/h (0 Bft) 100,00 %
11.01.2012 05:58 4,7 C 79 % 1031,3 hPa 0,0 l/m 0,0 km/h (0 Bft) NW 314 0 min 0,000 mm 0 W/m 1,4 C 4,7 C 0,0 km/h (0 Bft) 100,00 %
11.01.2012 05:59 4,7 C 79 % 1031,2 hPa 0,0 l/m 1,6 km/h (1 Bft) NW 314 0 min 0,000 mm 0 W/m 1,4 C 4,7 C 4,8 km/h (1 Bft) 100,00 %
11.01.2012 06:00 4,7 C 79 % 1031,3 hPa 0,0 l/m 0,2 km/h (0 Bft) NW 314 0 min 0,000 mm 0 W/m 1,4 C 4,7 C 3,2 km/h (1 Bft) 100,00 %
11.01.2012 06:01 4,7 C 79 % 1031,3 hPa 0,0 l/m 0,0 km/h (0 Bft) NW 314 0 min 0,000 mm 0 W/m 1,4 C 4,7 C 0,0 km/h (0 Bft) 100,00 %
11.01.2012 06:03 4,6 C 79 % 1031,2 hPa 0,0 l/m 0,0 km/h (0 Bft) NW 314 0 min 0,000 mm 0 W/m 1,3 C 4,6 C 0,0 km/h (0 Bft) 100,00 %
11.01.2012 06:04 4,7 C 79 % 1031,3 hPa 0,0 l/m 0,0 km/h (0 Bft) NW 314 0 min 0,000 mm 0 W/m 1,4 C 4,7 C 0,0 km/h (0 Bft) 100,00 %
11.01.2012 06:05 4,7 C 79 % 1031,3 hPa 0,0 l/m 0,0 km/h (0 Bft) NW 314 0 min 0,000 mm 0 W/m 1,4 C 4,7 C 0,0 km/h (0 Bft) 100,00 %
11.01.2012 06:06 4,6 C 79 % 1031,2 hPa 0,0 l/m 0,0 km/h (0 Bft) NW 314 0 min 0,000 mm 0 W/m 1,3 C 4,6 C 0,0 km/h (0 Bft) 100,00 %
11.01.2012 06:07 4,6 C 79 % 1031,2 hPa 0,0 l/m 0,0 km/h (0 Bft) NW 314 0 min 0,000 mm 0 W/m 1,3 C 4,6 C 0,0 km/h (0 Bft) 100,00 %
11.01.2012 06:08 4,6 C 79 % 1031,1 hPa 0,0 l/m 0,0 km/h (0 Bft) NW 314 0 min 0,000 mm 0 W/m 1,3 C 4,6 C 0,0 km/h (0 Bft) 100,00 %
11.01.2012 06:09 4,6 C 79 % 1031,2 hPa 0,0 l/m 0,0 km/h (0 Bft) NW 314 0 min 0,000 mm 0 W/m 1,3 C 4,6 C 0,0 km/h (0 Bft) 100,00 %
11.01.2012 06:10 4,6 C 79 % 1031,1 hPa 0,0 l/m 0,0 km/h (0 Bft) NW 314 0 min 0,000 mm 0 W/m 1,3 C 4,6 C 0,0 km/h (0 Bft) 100,00 %
11.01.2012 06:11 4,6 C 79 % 1031,1 hPa 0,0 l/m 0,0 km/h (0 Bft) NW 314 0 min 0,000 mm 0 W/m 1,3 C 4,6 C 0,0 km/h (0 Bft) 100,00 %
11.01.2012 06:12 4,6 C 79 % 1031,2 hPa 0,0 l/m 0,0 km/h (0 Bft) NW 314 0 min 0,000 mm 0 W/m 1,3 C 4,6 C 0,0 km/h (0 Bft) 100,00 %
11.01.2012 06:13 4,6 C 79 % 1031,2 hPa 0,0 l/m 2,4 km/h (1 Bft) W-NW 300 0 min 0,000 mm 0 W/m 1,3 C 4,6 C 9,7 km/h (2 Bft) 95,83 %
11.01.2012 06:14 4,6 C 79 % 1031,2 hPa 0,0 l/m 0,0 km/h (0 Bft) W-NW 300 0 min 0,000 mm 0 W/m 1,3 C 4,6 C 0,0 km/h (0 Bft) 96,00 %
11.01.2012 06:15 4,6 C 79 % 1031,2 hPa 0,0 l/m 0,0 km/h (0 Bft) W-NW 301 0 min 0,000 mm 0 W/m 1,3 C 4,6 C 0,0 km/h (0 Bft) 95,83 %
11.01.2012 06:16 4,6 C 79 % 1031,2 hPa 0,0 l/m 0,1 km/h (0 Bft) W-NW 301 0 min 0,000 mm 0 W/m 1,3 C 4,6 C 1,6 km/h (1 Bft) 100,00 %
11.01.2012 06:17 4,6 C 79 % 1031,2 hPa 0,0 l/m 0,0 km/h (0 Bft) W-NW 300 0 min 0,000 mm 0 W/m 1,3 C 4,6 C 0,0 km/h (0 Bft) 100,00 %
11.01.2012 06:18 4,6 C 79 % 1031,2 hPa 0,0 l/m 0,0 km/h (0 Bft) W-NW 301 0 min 0,000 mm 0 W/m 1,3 C 4,6 C 0,0 km/h (0 Bft) 100,00 %
11.01.2012 06:19 4,6 C 79 % 1031,2 hPa 0,0 l/m 0,0 km/h (0 Bft) W-NW 300 0 min 0,000 mm 0 W/m 1,3 C 4,6 C 0,0 km/h (0 Bft) 100,00 %
11.01.2012 06:20 4,6 C 79 % 1031,1 hPa 0,0 l/m 0,0 km/h (0 Bft) W-NW 301 0 min 0,000 mm 0 W/m 1,3 C 4,6 C 0,0 km/h (0 Bft) 100,00 %
11.01.2012 06:21 4,6 C 79 % 1031,2 hPa 0,0 l/m 0,0 km/h (0 Bft) W-NW 301 0 min 0,000 mm 0 W/m 1,3 C 4,6 C 0,0 km/h (0 Bft) 100,00 %
11.01.2012 06:22 4,6 C 79 % 1031,2 hPa 0,0 l/m 0,0 km/h (0 Bft) W-NW 301 0 min 0,000 mm 0 W/m 1,3 C 4,6 C 0,0 km/h (0 Bft) 100,00 %
11.01.2012 06:23 4,6 C 79 % 1031,2 hPa 0,0 l/m 0,0 km/h (0 Bft) W-NW 301 0 min 0,000 mm 0 W/m 1,3 C 4,6 C 0,0 km/h (0 Bft) 100,00 %
11.01.2012 06:24 4,6 C 79 % 1031,2 hPa 0,0 l/m 0,0 km/h (0 Bft) W-NW 300 0 min 0,000 mm 0 W/m 1,3 C 4,6 C 0,0 km/h (0 Bft) 100,00 %
11.01.2012 06:25 4,6 C 79 % 1031,2 hPa 0,0 l/m 0,0 km/h (0 Bft) W-NW 300 0 min 0,000 mm 0 W/m 1,3 C 4,6 C 0,0 km/h (0 Bft) 100,00 %
11.01.2012 06:26 4,6 C 79 % 1031,1 hPa 0,0 l/m 0,0 km/h (0 Bft) W-NW 300 0 min 0,000 mm 0 W/m 1,3 C 4,6 C 0,0 km/h (0 Bft) 100,00 %
11.01.2012 06:27 4,6 C 79 % 1031,1 hPa 0,0 l/m 0,0 km/h (0 Bft) W-NW 301 0 min 0,000 mm 0 W/m 1,3 C 4,6 C 0,0 km/h (0 Bft) 100,00 %
11.01.2012 06:28 4,6 C 79 % 1031,1 hPa 0,0 l/m 0,0 km/h (0 Bft) W-NW 301 0 min 0,000 mm 0 W/m 1,3 C 4,6 C 0,0 km/h (0 Bft) 100,00 %
11.01.2012 06:29 4,6 C 79 % 1031,1 hPa 0,0 l/m 0,0 km/h (0 Bft) W-NW 301 0 min 0,000 mm 0 W/m 1,3 C 4,6 C 0,0 km/h (0 Bft) 100,00 %
11.01.2012 06:30 4,6 C 79 % 1031,1 hPa 0,0 l/m 0,0 km/h (0 Bft) W-NW 301 0 min 0,000 mm 0 W/m 1,3 C 4,6 C 0,0 km/h (0 Bft) 100,00 %
11.01.2012 06:31 4,6 C 79 % 1031,1 hPa 0,0 l/m 0,0 km/h (0 Bft) W-NW 301 0 min 0,000 mm 0 W/m 1,3 C 4,6 C 0,0 km/h (0 Bft) 100,00 %
11.01.2012 06:32 4,6 C 79 % 1031,1 hPa 0,0 l/m 0,0 km/h (0 Bft) W-NW 301 0 min 0,000 mm 0 W/m 1,3 C 4,6 C 0,0 km/h (0 Bft) 100,00 %
11.01.2012 06:33 4,6 C 79 % 1031,1 hPa 0,0 l/m 0,0 km/h (0 Bft) W-NW 300 0 min 0,000 mm 0 W/m 1,3 C 4,6 C 0,0 km/h (0 Bft) 100,00 %
11.01.2012 06:34 4,6 C 79 % 1031,1 hPa 0,0 l/m 0,0 km/h (0 Bft) W-NW 301 0 min 0,000 mm 0 W/m 1,3 C 4,6 C 0,0 km/h (0 Bft) 100,00 %
11.01.2012 06:35 4,6 C 80 % 1031,1 hPa 0,0 l/m 0,0 km/h (0 Bft) W-NW 301 0 min 0,000 mm 0 W/m 1,5 C 4,6 C 0,0 km/h (0 Bft) 100,00 %
11.01.2012 06:36 4,6 C 80 % 1031,1 hPa 0,0 l/m 0,0 km/h (0 Bft) W-NW 301 0 min 0,000 mm 0 W/m 1,5 C 4,6 C 0,0 km/h (0 Bft) 100,00 %
11.01.2012 06:37 4,6 C 80 % 1031,1 hPa 0,0 l/m 0,0 km/h (0 Bft) W-NW 301 0 min 0,000 mm 0 W/m 1,5 C 4,6 C 0,0 km/h (0 Bft) 100,00 %
11.01.2012 06:38 4,6 C 80 % 1031,1 hPa 0,0 l/m 0,0 km/h (0 Bft) W-NW 301 0 min 0,000 mm 0 W/m 1,5 C 4,6 C 0,0 km/h (0 Bft) 100,00 %
11.01.2012 06:39 4,6 C 80 % 1031,1 hPa 0,0 l/m 0,0 km/h (0 Bft) W-NW 300 0 min 0,000 mm 0 W/m 1,5 C 4,6 C 0,0 km/h (0 Bft) 100,00 %
11.01.2012 06:40 4,6 C 80 % 1031,1 hPa 0,0 l/m 0,0 km/h (0 Bft) W-NW 300 0 min 0,000 mm 0 W/m 1,5 C 4,6 C 0,0 km/h (0 Bft) 92,31 %
11.01.2012 06:41 4,7 C 80 % 1031,1 hPa 0,0 l/m 0,0 km/h (0 Bft) W-NW 301 0 min 0,000 mm 0 W/m 1,6 C 4,7 C 0,0 km/h (0 Bft) 100,00 %
11.01.2012 06:42 4,7 C 80 % 1031,1 hPa 0,0 l/m 0,0 km/h (0 Bft) W-NW 300 0 min 0,000 mm 0 W/m 1,6 C 4,7 C 0,0 km/h (0 Bft) 100,00 %
11.01.2012 06:43 4,7 C 80 % 1031,1 hPa 0,0 l/m 0,0 km/h (0 Bft) W-NW 301 0 min 0,000 mm 0 W/m 1,6 C 4,7 C 0,0 km/h (0 Bft) 100,00 %
11.01.2012 06:44 4,7 C 80 % 1031,1 hPa 0,0 l/m 0,0 km/h (0 Bft) W-NW 301 0 min 0,000 mm 0 W/m 1,6 C 4,7 C 0,0 km/h (0 Bft) 100,00 %
11.01.2012 06:45 4,7 C 80 % 1031,1 hPa 0,0 l/m 0,0 km/h (0 Bft) W-NW 301 0 min 0,000 mm 0 W/m 1,6 C 4,7 C 0,0 km/h (0 Bft) 100,00 %
11.01.2012 06:46 4,7 C 80 % 1031,1 hPa 0,0 l/m 0,0 km/h (0 Bft) W-NW 300 0 min 0,000 mm 0 W/m 1,6 C 4,7 C 0,0 km/h (0 Bft) 100,00 %
11.01.2012 06:47 4,7 C 80 % 1031,1 hPa 0,0 l/m 0,0 km/h (0 Bft) W-NW 300 0 min 0,000 mm 0 W/m 1,6 C 4,7 C 0,0 km/h (0 Bft) 100,00 %
11.01.2012 06:48 4,7 C 80 % 1031,1 hPa 0,0 l/m 0,0 km/h (0 Bft) W-NW 300 0 min 0,000 mm 0 W/m 1,6 C 4,7 C 0,0 km/h (0 Bft) 100,00 %
11.01.2012 06:49 4,7 C 80 % 1031,2 hPa 0,0 l/m 0,0 km/h (0 Bft) W-NW 300 0 min 0,000 mm 0 W/m 1,6 C 4,7 C 0,0 km/h (0 Bft) 100,00 %
11.01.2012 06:50 4,7 C 80 % 1031,2 hPa 0,0 l/m 0,0 km/h (0 Bft) W-NW 301 0 min 0,000 mm 0 W/m 1,6 C 4,7 C 0,0 km/h (0 Bft) 100,00 %
11.01.2012 06:52 4,7 C 80 % 1031,2 hPa 0,0 l/m 0,0 km/h (0 Bft) W-NW 300 0 min 0,000 mm 0 W/m 1,6 C 4,7 C 0,0 km/h (0 Bft) 100,00 %
11.01.2012 06:53 4,7 C 80 % 1031,1 hPa 0,0 l/m 0,0 km/h (0 Bft) W-NW 300 0 min 0,000 mm 0 W/m 1,6 C 4,7 C 0,0 km/h (0 Bft) 100,00 %
11.01.2012 06:54 4,7 C 80 % 1031,1 hPa 0,0 l/m 0,0 km/h (0 Bft) W-NW 300 0 min 0,000 mm 0 W/m 1,6 C 4,7 C 0,0 km/h (0 Bft) 100,00 %
11.01.2012 06:55 4,7 C 80 % 1031,2 hPa 0,0 l/m 0,0 km/h (0 Bft) W-NW 300 0 min 0,000 mm 0 W/m 1,6 C 4,7 C 0,0 km/h (0 Bft) 100,00 %
11.01.2012 06:56 4,7 C 80 % 1031,2 hPa 0,0 l/m 0,0 km/h (0 Bft) W-NW 301 0 min 0,000 mm 0 W/m 1,6 C 4,7 C 0,0 km/h (0 Bft) 100,00 %
11.01.2012 06:57 4,7 C 80 % 1031,1 hPa 0,0 l/m 0,0 km/h (0 Bft) W-NW 301 0 min 0,000 mm 0 W/m 1,6 C 4,7 C 0,0 km/h (0 Bft) 100,00 %
11.01.2012 06:58 4,7 C 80 % 1031,1 hPa 0,0 l/m 0,0 km/h (0 Bft) W-NW 301 0 min 0,000 mm 0 W/m 1,6 C 4,7 C 0,0 km/h (0 Bft) 100,00 %
11.01.2012 06:59 4,7 C 80 % 1031,1 hPa 0,0 l/m 0,0 km/h (0 Bft) W-NW 301 0 min 0,000 mm 0 W/m 1,6 C 4,7 C 0,0 km/h (0 Bft) 100,00 %
11.01.2012 07:00 4,7 C 80 % 1031,2 hPa 0,0 l/m 0,0 km/h (0 Bft) W-NW 300 0 min 0,000 mm 0 W/m 1,6 C 4,7 C 0,0 km/h (0 Bft) 100,00 %
11.01.2012 07:02 4,7 C 80 % 1031,2 hPa 0,0 l/m 0,0 km/h (0 Bft) W-NW 301 0 min 0,000 mm 0 W/m 1,6 C 4,7 C 0,0 km/h (0 Bft) 100,00 %
11.01.2012 07:03 4,7 C 80 % 1031,1 hPa 0,0 l/m 0,0 km/h (0 Bft) W-NW 301 0 min 0,000 mm 0 W/m 1,6 C 4,7 C 0,0 km/h (0 Bft) 100,00 %
11.01.2012 07:04 4,7 C 80 % 1031,2 hPa 0,0 l/m 0,0 km/h (0 Bft) W-NW 301 0 min 0,000 mm 0 W/m 1,6 C 4,7 C 0,0 km/h (0 Bft) 100,00 %
11.01.2012 07:05 4,7 C 80 % 1031,2 hPa 0,0 l/m 0,0 km/h (0 Bft) W-NW 301 0 min 0,000 mm 0 W/m 1,6 C 4,7 C 0,0 km/h (0 Bft) 100,00 %
11.01.2012 07:06 4,7 C 80 % 1031,2 hPa 0,0 l/m 0,0 km/h (0 Bft) W-NW 301 0 min 0,000 mm 0 W/m 1,6 C 4,7 C 0,0 km/h (0 Bft) 100,00 %
11.01.2012 07:07 4,7 C 80 % 1031,2 hPa 0,0 l/m 0,0 km/h (0 Bft) W-NW 300 0 min 0,000 mm 0 W/m 1,6 C 4,7 C 0,0 km/h (0 Bft) 100,00 %
11.01.2012 07:08 4,7 C 80 % 1031,2 hPa 0,0 l/m 0,0 km/h (0 Bft) W-NW 300 0 min 0,000 mm 0 W/m 1,6 C 4,7 C 0,0 km/h (0 Bft) 100,00 %
11.01.2012 07:09 4,7 C 80 % 1031,2 hPa 0,0 l/m 0,0 km/h (0 Bft) W-NW 301 0 min 0,000 mm 0 W/m 1,6 C 4,7 C 0,0 km/h (0 Bft) 100,00 %
11.01.2012 07:10 4,7 C 80 % 1031,2 hPa 0,0 l/m 0,0 km/h (0 Bft) W-NW 301 0 min 0,000 mm 0 W/m 1,6 C 4,7 C 0,0 km/h (0 Bft) 100,00 %
11.01.2012 07:11 4,7 C 80 % 1031,2 hPa 0,0 l/m 0,0 km/h (0 Bft) W-NW 301 0 min 0,000 mm 0 W/m 1,6 C 4,7 C 0,0 km/h (0 Bft) 100,00 %
11.01.2012 07:12 4,7 C 80 % 1031,2 hPa 0,0 l/m 0,0 km/h (0 Bft) W-NW 301 0 min 0,000 mm 0 W/m 1,6 C 4,7 C 0,0 km/h (0 Bft) 100,00 %
11.01.2012 07:13 4,7 C 80 % 1031,3 hPa 0,0 l/m 0,0 km/h (0 Bft) W-NW 301 0 min 0,000 mm 0 W/m 1,6 C 4,7 C 0,0 km/h (0 Bft) 100,00 %
11.01.2012 07:14 4,7 C 80 % 1031,3 hPa 0,0 l/m 0,0 km/h (0 Bft) W-NW 300 0 min 0,000 mm 0 W/m 1,6 C 4,7 C 0,0 km/h (0 Bft) 100,00 %
11.01.2012 07:15 4,7 C 80 % 1031,3 hPa 0,0 l/m 0,0 km/h (0 Bft) W-NW 301 0 min 0,000 mm 0 W/m 1,6 C 4,7 C 0,0 km/h (0 Bft) 100,00 %
11.01.2012 07:16 4,7 C 80 % 1031,3 hPa 0,0 l/m 0,0 km/h (0 Bft) W-NW 301 0 min 0,000 mm 0 W/m 1,6 C 4,7 C 0,0 km/h (0 Bft) 100,00 %
11.01.2012 07:17 4,7 C 80 % 1031,3 hPa 0,0 l/m 0,0 km/h (0 Bft) W-NW 301 0 min 0,000 mm 0 W/m 1,6 C 4,7 C 0,0 km/h (0 Bft) 100,00 %
11.01.2012 07:18 4,7 C 80 % 1031,3 hPa 0,0 l/m 0,0 km/h (0 Bft) W-NW 301 0 min 0,000 mm 0 W/m 1,6 C 4,7 C 0,0 km/h (0 Bft) 100,00 %
11.01.2012 07:19 4,7 C 80 % 1031,3 hPa 0,0 l/m 0,0 km/h (0 Bft) W-NW 301 0 min 0,000 mm 0 W/m 1,6 C 4,7 C 0,0 km/h (0 Bft) 100,00 %
11.01.2012 07:20 4,7 C 80 % 1031,3 hPa 0,0 l/m 0,0 km/h (0 Bft) W-NW 300 0 min 0,000 mm 0 W/m 1,6 C 4,7 C 0,0 km/h (0 Bft) 100,00 %
11.01.2012 07:21 4,7 C 80 % 1031,3 hPa 0,0 l/m 0,0 km/h (0 Bft) W-NW 300 0 min 0,000 mm 0 W/m 1,6 C 4,7 C 0,0 km/h (0 Bft) 100,00 %
11.01.2012 07:22 4,7 C 80 % 1031,3 hPa 0,0 l/m 0,0 km/h (0 Bft) W-NW 301 0 min 0,000 mm 0 W/m 1,6 C 4,7 C 0,0 km/h (0 Bft) 100,00 %
11.01.2012 07:23 4,7 C 80 % 1031,3 hPa 0,0 l/m 0,0 km/h (0 Bft) W-NW 300 0 min 0,000 mm 0 W/m 1,6 C 4,7 C 0,0 km/h (0 Bft) 100,00 %
11.01.2012 07:24 4,7 C 80 % 1031,4 hPa 0,0 l/m 0,0 km/h (0 Bft) W-NW 301 0 min 0,000 mm 0 W/m 1,6 C 4,7 C 0,0 km/h (0 Bft) 100,00 %
11.01.2012 07:25 4,7 C 80 % 1031,4 hPa 0,0 l/m 0,0 km/h (0 Bft) W-NW 301 0 min 0,000 mm 0 W/m 1,6 C 4,7 C 0,0 km/h (0 Bft) 100,00 %
11.01.2012 07:26 4,7 C 80 % 1031,4 hPa 0,0 l/m 0,0 km/h (0 Bft) W-NW 301 0 min 0,000 mm 0 W/m 1,6 C 4,7 C 0,0 km/h (0 Bft) 100,00 %
11.01.2012 07:27 4,7 C 80 % 1031,4 hPa 0,0 l/m 0,0 km/h (0 Bft) W-NW 300 0 min 0,000 mm 0 W/m 1,6 C 4,7 C 0,0 km/h (0 Bft) 100,00 %
11.01.2012 07:28 4,7 C 80 % 1031,4 hPa 0,0 l/m 0,0 km/h (0 Bft) W-NW 300 0 min 0,000 mm 0 W/m 1,6 C 4,7 C 0,0 km/h (0 Bft) 100,00 %
11.01.2012 07:29 4,7 C 80 % 1031,4 hPa 0,0 l/m 0,0 km/h (0 Bft) W-NW 300 0 min 0,000 mm 0 W/m 1,6 C 4,7 C 0,0 km/h (0 Bft) 100,00 %
11.01.2012 07:30 4,7 C 80 % 1031,4 hPa 0,0 l/m 0,0 km/h (0 Bft) W-NW 300 0 min 0,000 mm 0 W/m 1,6 C 4,7 C 0,0 km/h (0 Bft) 100,00 %
11.01.2012 07:31 4,7 C 80 % 1031,4 hPa 0,0 l/m 0,0 km/h (0 Bft) W-NW 301 0 min 0,000 mm 0 W/m 1,6 C 4,7 C 0,0 km/h (0 Bft) 100,00 %
11.01.2012 07:32 4,7 C 80 % 1031,4 hPa 0,0 l/m 0,0 km/h (0 Bft) W-NW 301 0 min 0,000 mm 0 W/m 1,6 C 4,7 C 0,0 km/h (0 Bft) 100,00 %
11.01.2012 07:33 4,7 C 80 % 1031,4 hPa 0,0 l/m 0,0 km/h (0 Bft) W-NW 301 0 min 0,000 mm 0 W/m 1,6 C 4,7 C 0,0 km/h (0 Bft) 100,00 %
11.01.2012 07:34 4,7 C 80 % 1031,4 hPa 0,0 l/m 0,0 km/h (0 Bft) W-NW 300 0 min 0,000 mm 0 W/m 1,6 C 4,7 C 0,0 km/h (0 Bft) 100,00 %
11.01.2012 07:35 4,7 C 80 % 1031,4 hPa 0,0 l/m 0,0 km/h (0 Bft) W-NW 300 0 min 0,000 mm 0 W/m 1,6 C 4,7 C 0,0 km/h (0 Bft) 100,00 %
11.01.2012 07:36 4,7 C 80 % 1031,4 hPa 0,0 l/m 0,0 km/h (0 Bft) W-NW 300 0 min 0,000 mm 0 W/m 1,6 C 4,7 C 0,0 km/h (0 Bft) 100,00 %
11.01.2012 07:37 4,7 C 80 % 1031,4 hPa 0,0 l/m 0,1 km/h (0 Bft) W-NW 301 0 min 0,000 mm 0 W/m 1,6 C 4,7 C 1,6 km/h (1 Bft) 100,00 %
11.01.2012 07:38 4,7 C 80 % 1031,5 hPa 0,0 l/m 1,0 km/h (0 Bft) W-NW 301 0 min 0,000 mm 0 W/m 1,6 C 4,7 C 4,8 km/h (1 Bft) 100,00 %
11.01.2012 07:39 4,7 C 80 % 1031,4 hPa 0,0 l/m 0,0 km/h (0 Bft) W-NW 301 0 min 0,000 mm 0 W/m 1,6 C 4,7 C 0,0 km/h (0 Bft) 100,00 %
11.01.2012 07:40 4,7 C 80 % 1031,4 hPa 0,0 l/m 0,0 km/h (0 Bft) W-NW 301 0 min 0,000 mm 0 W/m 1,6 C 4,7 C 0,0 km/h (0 Bft) 100,00 %
11.01.2012 07:41 4,7 C 80 % 1031,4 hPa 0,0 l/m 0,0 km/h (0 Bft) W-NW 300 0 min 0,000 mm 0 W/m 1,6 C 4,7 C 0,0 km/h (0 Bft) 100,00 %
11.01.2012 07:42 4,7 C 80 % 1031,4 hPa 0,0 l/m 0,0 km/h (0 Bft) W-NW 300 0 min 0,000 mm 0 W/m 1,6 C 4,7 C 0,0 km/h (0 Bft) 100,00 %
11.01.2012 07:43 4,7 C 80 % 1031,5 hPa 0,0 l/m 0,0 km/h (0 Bft) W-NW 301 0 min 0,000 mm 0 W/m 1,6 C 4,7 C 0,0 km/h (0 Bft) 100,00 %
11.01.2012 07:44 4,7 C 80 % 1031,5 hPa 0,0 l/m 0,0 km/h (0 Bft) W-NW 301 0 min 0,000 mm 0 W/m 1,6 C 4,7 C 0,0 km/h (0 Bft) 100,00 %
11.01.2012 07:45 4,7 C 80 % 1031,5 hPa 0,0 l/m 4,8 km/h (1 Bft) NW 312 0 min 0,000 mm 0 W/m 1,6 C 4,7 C 8,0 km/h (2 Bft) 100,00 %
11.01.2012 07:46 4,7 C 81 % 1031,5 hPa 0,0 l/m 4,1 km/h (1 Bft) NW 312 0 min 0,000 mm 0 W/m 1,7 C 4,7 C 6,4 km/h (2 Bft) 95,83 %
11.01.2012 07:47 4,8 C 80 % 1031,6 hPa 0,0 l/m 1,5 km/h (1 Bft) NW 312 0 min 0,000 mm 0 W/m 1,6 C 4,8 C 6,4 km/h (2 Bft) 100,00 %
11.01.2012 07:48 4,8 C 80 % 1031,5 hPa 0,0 l/m 0,9 km/h (0 Bft) NW 311 0 min 0,000 mm 0 W/m 1,6 C 4,8 C 4,8 km/h (1 Bft) 100,00 %
11.01.2012 07:49 4,8 C 80 % 1031,6 hPa 0,0 l/m 2,3 km/h (1 Bft) NW 311 0 min 0,000 mm 0 W/m 1,6 C 4,8 C 6,4 km/h (2 Bft) 96,00 %
11.01.2012 07:50 4,8 C 80 % 1031,6 hPa 0,0 l/m 0,6 km/h (0 Bft) NW 312 0 min 0,000 mm 0 W/m 1,6 C 4,8 C 4,8 km/h (1 Bft) 100,00 %
11.01.2012 07:51 4,8 C 80 % 1031,5 hPa 0,0 l/m 1,5 km/h (1 Bft) NW 313 0 min 0,000 mm 0 W/m 1,6 C 4,8 C 4,8 km/h (1 Bft) 100,00 %
11.01.2012 07:52 4,8 C 80 % 1031,5 hPa 0,0 l/m 4,0 km/h (1 Bft) NW 313 0 min 0,000 mm 0 W/m 1,6 C 4,8 C 8,0 km/h (2 Bft) 100,00 %
11.01.2012 07:53 4,8 C 80 % 1031,5 hPa 0,0 l/m 5,1 km/h (1 Bft) NW 314 0 min 0,000 mm 5 W/m 1,6 C 4,8 C 8,0 km/h (2 Bft) 100,00 %
11.01.2012 07:54 4,9 C 80 % 1031,5 hPa 0,0 l/m 2,5 km/h (1 Bft) NW 314 0 min 0,000 mm 5 W/m 1,7 C 4,9 C 6,4 km/h (2 Bft) 100,00 %
11.01.2012 07:55 4,9 C 85 % 1031,5 hPa 0,0 l/m 4,2 km/h (1 Bft) NW 314 0 min 0,000 mm 5 W/m 2,6 C 4,9 C 6,4 km/h (2 Bft) 100,00 %
11.01.2012 07:56 4,9 C 80 % 1031,5 hPa 0,0 l/m 2,4 km/h (1 Bft) NW 314 0 min 0,000 mm 5 W/m 1,7 C 4,9 C 6,4 km/h (2 Bft) 100,00 %
11.01.2012 07:57 4,9 C 80 % 1031,5 hPa 0,0 l/m 3,1 km/h (1 Bft) NW 314 0 min 0,000 mm 5 W/m 1,7 C 4,9 C 6,4 km/h (2 Bft) 100,00 %
11.01.2012 07:58 4,9 C 80 % 1031,5 hPa 0,0 l/m 5,9 km/h (2 Bft) NW 315 0 min 0,000 mm 5 W/m 1,7 C 4,9 C 8,0 km/h (2 Bft) 100,00 %
11.01.2012 07:59 5,0 C 80 % 1031,5 hPa 0,0 l/m 5,9 km/h (2 Bft) NW 317 0 min 0,000 mm 5 W/m 1,8 C 5,0 C 11,3 km/h (2 Bft) 100,00 %
11.01.2012 08:00 5,0 C 80 % 1031,5 hPa 0,0 l/m 5,1 km/h (1 Bft) NW 317 0 min 0,000 mm 5 W/m 1,8 C 5,0 C 8,0 km/h (2 Bft) 100,00 %
11.01.2012 08:02 5,1 C 80 % 1031,5 hPa 0,0 l/m 3,5 km/h (1 Bft) NW 317 0 min 0,000 mm 7 W/m 1,9 C 5,1 C 8,0 km/h (2 Bft) 100,00 %
11.01.2012 08:03 5,1 C 80 % 1031,6 hPa 0,0 l/m 2,2 km/h (1 Bft) NW 317 0 min 0,000 mm 7 W/m 1,9 C 5,1 C 4,8 km/h (1 Bft) 96,30 %
11.01.2012 08:04 5,2 C 80 % 1031,5 hPa 0,0 l/m 5,5 km/h (1 Bft) NW 318 0 min 0,000 mm 7 W/m 2,0 C 5,2 C 8,0 km/h (2 Bft) 100,00 %
11.01.2012 08:05 5,2 C 79 % 1031,6 hPa 0,0 l/m 5,4 km/h (1 Bft) NW 319 0 min 0,000 mm 9 W/m 1,9 C 5,2 C 8,0 km/h (2 Bft) 100,00 %
11.01.2012 08:06 5,2 C 79 % 1031,6 hPa 0,0 l/m 4,5 km/h (1 Bft) NW 319 0 min 0,000 mm 9 W/m 1,9 C 5,2 C 8,0 km/h (2 Bft) 100,00 %
11.01.2012 08:07 5,2 C 79 % 1031,6 hPa 0,0 l/m 1,2 km/h (1 Bft) NW 319 0 min 0,000 mm 12 W/m 1,9 C 5,2 C 4,8 km/h (1 Bft) 100,00 %
11.01.2012 08:08 5,3 C 79 % 1031,5 hPa 0,0 l/m 0,0 km/h (0 Bft) NW 319 0 min 0,000 mm 12 W/m 2,0 C 5,3 C 0,0 km/h (0 Bft) 100,00 %
11.01.2012 08:09 5,3 C 79 % 1031,6 hPa 0,0 l/m 0,0 km/h (0 Bft) NW 319 0 min 0,000 mm 14 W/m 2,0 C 5,3 C 0,0 km/h (0 Bft) 100,00 %
11.01.2012 08:10 5,3 C 79 % 1031,6 hPa 0,0 l/m 0,0 km/h (0 Bft) NW 319 0 min 0,000 mm 14 W/m 2,0 C 5,3 C 0,0 km/h (0 Bft) 100,00 %
11.01.2012 08:11 5,3 C 79 % 1031,6 hPa 0,0 l/m 0,0 km/h (0 Bft) NW 319 0 min 0,000 mm 16 W/m 2,0 C 5,3 C 0,0 km/h (0 Bft) 100,00 %
11.01.2012 08:12 5,3 C 79 % 1031,6 hPa 0,0 l/m 1,1 km/h (1 Bft) NW 319 0 min 0,000 mm 16 W/m 2,0 C 5,3 C 6,4 km/h (2 Bft) 95,83 %
11.01.2012 08:13 5,3 C 79 % 1031,6 hPa 0,0 l/m 1,0 km/h (0 Bft) NW 319 0 min 0,000 mm 18 W/m 2,0 C 5,3 C 3,2 km/h (1 Bft) 100,00 %
11.01.2012 08:14 5,4 C 79 % 1031,6 hPa 0,0 l/m 4,1 km/h (1 Bft) NW 319 0 min 0,000 mm 18 W/m 2,1 C 5,4 C 6,4 km/h (2 Bft) 100,00 %
11.01.2012 08:15 5,4 C 79 % 1031,7 hPa 0,0 l/m 4,6 km/h (1 Bft) NW 319 0 min 0,000 mm 18 W/m 2,1 C 5,4 C 6,4 km/h (2 Bft) 100,00 %
11.01.2012 08:16 5,4 C 79 % 1031,7 hPa 0,0 l/m 0,6 km/h (0 Bft) NW 318 0 min 0,000 mm 18 W/m 2,1 C 5,4 C 4,8 km/h (1 Bft) 100,00 %
11.01.2012 08:17 5,4 C 79 % 1031,7 hPa 0,0 l/m 0,0 km/h (0 Bft) NW 318 0 min 0,000 mm 19 W/m 2,1 C 5,4 C 0,0 km/h (0 Bft) 100,00 %
11.01.2012 08:18 5,4 C 79 % 1031,7 hPa 0,0 l/m 0,0 km/h (0 Bft) NW 319 0 min 0,000 mm 23 W/m 2,1 C 5,4 C 0,0 km/h (0 Bft) 100,00 %
11.01.2012 08:19 5,4 C 79 % 1031,7 hPa 0,0 l/m 0,0 km/h (0 Bft) NW 319 0 min 0,000 mm 25 W/m 2,1 C 5,4 C 0,0 km/h (0 Bft) 100,00 %
11.01.2012 08:20 5,4 C 79 % 1031,7 hPa 0,0 l/m 0,0 km/h (0 Bft) NW 319 0 min 0,000 mm 25 W/m 2,1 C 5,4 C 0,0 km/h (0 Bft) 100,00 %
11.01.2012 08:21 5,4 C 79 % 1031,7 hPa 0,0 l/m 0,0 km/h (0 Bft) NW 319 0 min 0,000 mm 26 W/m 2,1 C 5,4 C 0,0 km/h (0 Bft) 100,00 %
11.01.2012 08:22 5,4 C 78 % 1031,7 hPa 0,0 l/m 0,0 km/h (0 Bft) NW 318 0 min 0,000 mm 26 W/m 1,9 C 5,4 C 0,0 km/h (0 Bft) 100,00 %
11.01.2012 08:23 5,5 C 78 % 1031,8 hPa 0,0 l/m 0,0 km/h (0 Bft) NW 318 0 min 0,000 mm 25 W/m 2,0 C 5,5 C 0,0 km/h (0 Bft) 96,00 %
11.01.2012 08:24 5,5 C 78 % 1031,8 hPa 0,0 l/m 0,0 km/h (0 Bft) NW 319 0 min 0,000 mm 25 W/m 2,0 C 5,5 C 0,0 km/h (0 Bft) 100,00 %
11.01.2012 08:25 5,5 C 78 % 1031,7 hPa 0,0 l/m 0,2 km/h (0 Bft) NW 319 0 min 0,000 mm 25 W/m 2,0 C 5,5 C 3,2 km/h (1 Bft) 100,00 %
11.01.2012 08:26 5,5 C 78 % 1031,7 hPa 0,0 l/m 3,1 km/h (1 Bft) NW 320 0 min 0,000 mm 25 W/m 2,0 C 5,5 C 8,0 km/h (2 Bft) 100,00 %
11.01.2012 08:27 5,5 C 78 % 1031,7 hPa 0,0 l/m 0,0 km/h (0 Bft) NW 320 0 min 0,000 mm 25 W/m 2,0 C 5,5 C 0,0 km/h (0 Bft) 100,00 %
11.01.2012 08:28 5,6 C 78 % 1031,8 hPa 0,0 l/m 0,0 km/h (0 Bft) NW 320 0 min 0,000 mm 25 W/m 2,1 C 5,6 C 0,0 km/h (0 Bft) 100,00 %
11.01.2012 08:29 5,6 C 78 % 1031,7 hPa 0,0 l/m 0,0 km/h (0 Bft) NW 319 0 min 0,000 mm 25 W/m 2,1 C 5,6 C 0,0 km/h (0 Bft) 100,00 %
11.01.2012 08:30 5,6 C 78 % 1031,7 hPa 0,0 l/m 0,0 km/h (0 Bft) NW 319 0 min 0,000 mm 25 W/m 2,1 C 5,6 C 0,0 km/h (0 Bft) 100,00 %
11.01.2012 08:31 5,6 C 78 % 1031,7 hPa 0,0 l/m 0,0 km/h (0 Bft) NW 320 0 min 0,000 mm 25 W/m 2,1 C 5,6 C 0,0 km/h (0 Bft) 100,00 %
11.01.2012 08:32 5,6 C 78 % 1031,7 hPa 0,0 l/m 0,0 km/h (0 Bft) NW 320 0 min 0,000 mm 26 W/m 2,1 C 5,6 C 0,0 km/h (0 Bft) 100,00 %
11.01.2012 08:33 5,6 C 78 % 1031,6 hPa 0,0 l/m 0,0 km/h (0 Bft) NW 320 0 min 0,000 mm 26 W/m 2,1 C 5,6 C 0,0 km/h (0 Bft) 100,00 %
11.01.2012 08:34 5,6 C 78 % 1031,7 hPa 0,0 l/m 0,0 km/h (0 Bft) NW 320 0 min 0,000 mm 26 W/m 2,1 C 5,6 C 0,0 km/h (0 Bft) 100,00 %
11.01.2012 08:35 5,6 C 78 % 1031,7 hPa 0,0 l/m 0,0 km/h (0 Bft) NW 320 0 min 0,000 mm 25 W/m 2,1 C 5,6 C 0,0 km/h (0 Bft) 100,00 %
11.01.2012 08:36 5,6 C 78 % 1031,7 hPa 0,0 l/m 0,0 km/h (0 Bft) NW 321 0 min 0,000 mm 25 W/m 2,1 C 5,6 C 0,0 km/h (0 Bft) 100,00 %
11.01.2012 08:37 5,6 C 78 % 1031,7 hPa 0,0 l/m 0,0 km/h (0 Bft) NW 321 0 min 0,000 mm 23 W/m 2,1 C 5,6 C 0,0 km/h (0 Bft) 100,00 %
11.01.2012 08:38 5,7 C 78 % 1031,7 hPa 0,0 l/m 0,0 km/h (0 Bft) NW 321 0 min 0,000 mm 25 W/m 2,2 C 5,7 C 0,0 km/h (0 Bft) 100,00 %
11.01.2012 08:39 5,7 C 78 % 1031,7 hPa 0,0 l/m 0,0 km/h (0 Bft) NW 321 0 min 0,000 mm 25 W/m 2,2 C 5,7 C 0,0 km/h (0 Bft) 100,00 %
11.01.2012 08:40 5,7 C 78 % 1031,7 hPa 0,0 l/m 0,0 km/h (0 Bft) NW 320 0 min 0,000 mm 25 W/m 2,2 C 5,7 C 0,0 km/h (0 Bft) 100,00 %
11.01.2012 08:41 5,7 C 78 % 1031,7 hPa 0,0 l/m 0,0 km/h (0 Bft) NW 321 0 min 0,000 mm 25 W/m 2,2 C 5,7 C 0,0 km/h (0 Bft) 100,00 %
11.01.2012 08:42 5,7 C 78 % 1031,7 hPa 0,0 l/m 0,0 km/h (0 Bft) NW 320 0 min 0,000 mm 26 W/m 2,2 C 5,7 C 0,0 km/h (0 Bft) 100,00 %
11.01.2012 08:43 5,7 C 78 % 1031,7 hPa 0,0 l/m 0,0 km/h (0 Bft) NW 321 0 min 0,000 mm 26 W/m 2,2 C 5,7 C 0,0 km/h (0 Bft) 100,00 %
11.01.2012 08:44 5,7 C 78 % 1031,7 hPa 0,0 l/m 0,0 km/h (0 Bft) NW 321 0 min 0,000 mm 28 W/m 2,2 C 5,7 C 0,0 km/h (0 Bft) 100,00 %
11.01.2012 08:45 5,7 C 78 % 1031,7 hPa 0,0 l/m 0,0 km/h (0 Bft) NW 321 0 min 0,000 mm 30 W/m 2,2 C 5,7 C 0,0 km/h (0 Bft) 100,00 %
11.01.2012 08:46 5,7 C 78 % 1031,7 hPa 0,0 l/m 0,0 km/h (0 Bft) NW 321 0 min 0,000 mm 30 W/m 2,2 C 5,7 C 0,0 km/h (0 Bft) 100,00 %
11.01.2012 08:47 5,7 C 78 % 1031,7 hPa 0,0 l/m 0,0 km/h (0 Bft) NW 320 0 min 0,000 mm 32 W/m 2,2 C 5,7 C 0,0 km/h (0 Bft) 100,00 %
11.01.2012 08:48 5,7 C 78 % 1031,7 hPa 0,0 l/m 0,0 km/h (0 Bft) NW 320 0 min 0,000 mm 32 W/m 2,2 C 5,7 C 0,0 km/h (0 Bft) 100,00 %
11.01.2012 08:49 5,8 C 78 % 1031,8 hPa 0,0 l/m 0,0 km/h (0 Bft) NW 321 0 min 0,000 mm 32 W/m 2,3 C 5,8 C 0,0 km/h (0 Bft) 100,00 %
11.01.2012 08:50 5,8 C 78 % 1031,8 hPa 0,0 l/m 0,1 km/h (0 Bft) NW 321 0 min 0,000 mm 33 W/m 2,3 C 5,8 C 1,6 km/h (1 Bft) 100,00 %
11.01.2012 08:51 5,8 C 78 % 1031,8 hPa 0,0 l/m 0,0 km/h (0 Bft) NW 321 0 min 0,000 mm 33 W/m 2,3 C 5,8 C 0,0 km/h (0 Bft) 100,00 %
11.01.2012 08:52 5,8 C 78 % 1031,8 hPa 0,0 l/m 0,0 km/h (0 Bft) NW 321 0 min 0,000 mm 33 W/m 2,3 C 5,8 C 0,0 km/h (0 Bft) 100,00 %
11.01.2012 08:53 5,8 C 78 % 1031,8 hPa 0,0 l/m 0,0 km/h (0 Bft) NW 321 0 min 0,000 mm 33 W/m 2,3 C 5,8 C 0,0 km/h (0 Bft) 100,00 %
11.01.2012 08:54 5,8 C 78 % 1031,8 hPa 0,0 l/m 0,0 km/h (0 Bft) NW 321 0 min 0,000 mm 33 W/m 2,3 C 5,8 C 0,0 km/h (0 Bft) 100,00 %
11.01.2012 08:55 5,8 C 78 % 1031,9 hPa 0,0 l/m 0,0 km/h (0 Bft) NW 320 0 min 0,000 mm 33 W/m 2,3 C 5,8 C 0,0 km/h (0 Bft) 100,00 %
11.01.2012 08:56 5,8 C 78 % 1031,8 hPa 0,0 l/m 0,0 km/h (0 Bft) NW 321 0 min 0,000 mm 35 W/m 2,3 C 5,8 C 0,0 km/h (0 Bft) 100,00 %
11.01.2012 08:57 5,8 C 78 % 1031,8 hPa 0,0 l/m 0,0 km/h (0 Bft) NW 321 0 min 0,000 mm 37 W/m 2,3 C 5,8 C 0,0 km/h (0 Bft) 100,00 %
11.01.2012 08:58 5,8 C 78 % 1031,8 hPa 0,0 l/m 0,0 km/h (0 Bft) NW 321 0 min 0,000 mm 37 W/m 2,3 C 5,8 C 0,0 km/h (0 Bft) 100,00 %
11.01.2012 08:59 5,8 C 78 % 1031,9 hPa 0,0 l/m 0,0 km/h (0 Bft) NW 321 0 min 0,000 mm 39 W/m 2,3 C 5,8 C 0,0 km/h (0 Bft) 100,00 %
11.01.2012 09:00 5,8 C 78 % 1031,9 hPa 0,0 l/m 0,0 km/h (0 Bft) NW 320 0 min 0,000 mm 39 W/m 2,3 C 5,8 C 0,0 km/h (0 Bft) 100,00 %
11.01.2012 09:01 5,8 C 78 % 1031,8 hPa 0,0 l/m 0,0 km/h (0 Bft) NW 321 0 min 0,025 mm 39 W/m 2,3 C 5,8 C 0,0 km/h (0 Bft) 100,00 %
11.01.2012 09:03 5,9 C 78 % 1032,0 hPa 0,0 l/m 0,0 km/h (0 Bft) NW 319 0 min 0,000 mm 40 W/m 2,4 C 5,9 C 0,0 km/h (0 Bft) 100,00 %
11.01.2012 09:04 5,9 C 78 % 1031,9 hPa 0,0 l/m 0,0 km/h (0 Bft) NW 319 0 min 0,000 mm 40 W/m 2,4 C 5,9 C 0,0 km/h (0 Bft) 100,00 %
11.01.2012 09:05 5,9 C 78 % 1032,0 hPa 0,0 l/m 0,0 km/h (0 Bft) NW 320 0 min 0,000 mm 42 W/m 2,4 C 5,9 C 0,0 km/h (0 Bft) 100,00 %
11.01.2012 09:06 5,9 C 78 % 1031,9 hPa 0,0 l/m 0,0 km/h (0 Bft) NW 321 0 min 0,000 mm 42 W/m 2,4 C 5,9 C 0,0 km/h (0 Bft) 100,00 %
11.01.2012 09:07 5,9 C 78 % 1031,9 hPa 0,0 l/m 0,0 km/h (0 Bft) NW 321 0 min 0,000 mm 42 W/m 2,4 C 5,9 C 0,0 km/h (0 Bft) 100,00 %
11.01.2012 09:08 5,9 C 78 % 1032,0 hPa 0,0 l/m 0,0 km/h (0 Bft) NW 320 0 min 0,000 mm 40 W/m 2,4 C 5,9 C 0,0 km/h (0 Bft) 100,00 %
11.01.2012 09:09 5,9 C 78 % 1032,0 hPa 0,0 l/m 0,0 km/h (0 Bft) NW 320 0 min 0,000 mm 40 W/m 2,4 C 5,9 C 0,0 km/h (0 Bft) 100,00 %
11.01.2012 09:10 5,9 C 78 % 1032,0 hPa 0,0 l/m 0,0 km/h (0 Bft) NW 321 0 min 0,000 mm 40 W/m 2,4 C 5,9 C 0,0 km/h (0 Bft) 100,00 %
11.01.2012 09:11 5,9 C 78 % 1032,0 hPa 0,0 l/m 0,0 km/h (0 Bft) NW 321 0 min 0,000 mm 40 W/m 2,4 C 5,9 C 0,0 km/h (0 Bft) 100,00 %
11.01.2012 09:12 5,9 C 78 % 1032,0 hPa 0,0 l/m 0,0 km/h (0 Bft) NW 320 0 min 0,000 mm 40 W/m 2,4 C 5,9 C 0,0 km/h (0 Bft) 100,00 %
11.01.2012 09:13 5,9 C 78 % 1032,1 hPa 0,0 l/m 0,0 km/h (0 Bft) NW 320 0 min 0,000 mm 40 W/m 2,4 C 5,9 C 0,0 km/h (0 Bft) 100,00 %
11.01.2012 09:14 5,9 C 78 % 1032,1 hPa 0,0 l/m 0,0 km/h (0 Bft) NW 320 0 min 0,000 mm 40 W/m 2,4 C 5,9 C 0,0 km/h (0 Bft) 100,00 %
11.01.2012 09:15 5,9 C 78 % 1032,1 hPa 0,0 l/m 0,0 km/h (0 Bft) NW 320 0 min 0,000 mm 40 W/m 2,4 C 5,9 C 0,0 km/h (0 Bft) 100,00 %
11.01.2012 09:16 5,9 C 78 % 1032,1 hPa 0,0 l/m 0,0 km/h (0 Bft) NW 319 0 min 0,000 mm 39 W/m 2,4 C 5,9 C 0,0 km/h (0 Bft) 100,00 %
11.01.2012 09:17 5,9 C 78 % 1032,1 hPa 0,0 l/m 0,0 km/h (0 Bft) NW 319 0 min 0,000 mm 35 W/m 2,4 C 5,9 C 0,0 km/h (0 Bft) 95,83 %
11.01.2012 09:18 5,9 C 78 % 1032,0 hPa 0,0 l/m 0,0 km/h (0 Bft) NW 320 0 min 0,000 mm 37 W/m 2,4 C 5,9 C 0,0 km/h (0 Bft) 100,00 %
11.01.2012 09:19 5,9 C 78 % 1032,0 hPa 0,0 l/m 0,0 km/h (0 Bft) NW 320 0 min 0,000 mm 39 W/m 2,4 C 5,9 C 0,0 km/h (0 Bft) 100,00 %
11.01.2012 09:20 5,9 C 78 % 1032,1 hPa 0,0 l/m 0,0 km/h (0 Bft) NW 320 0 min 0,000 mm 40 W/m 2,4 C 5,9 C 0,0 km/h (0 Bft) 100,00 %
11.01.2012 09:21 5,9 C 78 % 1032,1 hPa 0,0 l/m 0,0 km/h (0 Bft) NW 320 0 min 0,000 mm 40 W/m 2,4 C 5,9 C 0,0 km/h (0 Bft) 100,00 %
11.01.2012 09:22 5,9 C 78 % 1032,1 hPa 0,0 l/m 0,0 km/h (0 Bft) NW 320 0 min 0,000 mm 42 W/m 2,4 C 5,9 C 0,0 km/h (0 Bft) 100,00 %
11.01.2012 09:23 5,9 C 78 % 1032,1 hPa 0,0 l/m 0,0 km/h (0 Bft) NW 320 0 min 0,000 mm 44 W/m 2,4 C 5,9 C 0,0 km/h (0 Bft) 100,00 %
11.01.2012 09:24 5,9 C 78 % 1032,1 hPa 0,0 l/m 0,0 km/h (0 Bft) NW 319 0 min 0,000 mm 46 W/m 2,4 C 5,9 C 0,0 km/h (0 Bft) 100,00 %
11.01.2012 09:25 5,9 C 78 % 1032,1 hPa 0,0 l/m 0,0 km/h (0 Bft) NW 321 0 min 0,000 mm 47 W/m 2,4 C 5,9 C 0,0 km/h (0 Bft) 100,00 %
11.01.2012 09:26 5,9 C 78 % 1032,1 hPa 0,0 l/m 0,0 km/h (0 Bft) NW 319 0 min 0,000 mm 49 W/m 2,4 C 5,9 C 0,0 km/h (0 Bft) 100,00 %
11.01.2012 09:27 5,9 C 78 % 1032,1 hPa 0,0 l/m 0,0 km/h (0 Bft) NW 320 0 min 0,000 mm 51 W/m 2,4 C 5,9 C 0,0 km/h (0 Bft) 100,00 %
11.01.2012 09:28 6,0 C 78 % 1032,2 hPa 0,0 l/m 0,0 km/h (0 Bft) NW 320 0 min 0,000 mm 49 W/m 2,5 C 6,0 C 0,0 km/h (0 Bft) 100,00 %
11.01.2012 09:29 6,0 C 78 % 1032,2 hPa 0,0 l/m 0,0 km/h (0 Bft) NW 320 0 min 0,000 mm 46 W/m 2,5 C 6,0 C 0,0 km/h (0 Bft) 100,00 %
11.01.2012 09:30 6,0 C 78 % 1032,2 hPa 0,0 l/m 0,8 km/h (0 Bft) NW 319 0 min 0,000 mm 46 W/m 2,5 C 6,0 C 3,2 km/h (1 Bft) 100,00 %
11.01.2012 09:31 6,0 C 78 % 1032,2 hPa 0,0 l/m 1,5 km/h (1 Bft) NW 321 0 min 0,000 mm 47 W/m 2,5 C 6,0 C 4,8 km/h (1 Bft) 100,00 %
11.01.2012 09:32 6,0 C 78 % 1032,2 hPa 0,0 l/m 0,3 km/h (0 Bft) NW 321 0 min 0,000 mm 51 W/m 2,5 C 6,0 C 3,2 km/h (1 Bft) 95,83 %
11.01.2012 09:33 6,0 C 78 % 1032,2 hPa 0,0 l/m 0,0 km/h (0 Bft) NW 319 0 min 0,000 mm 56 W/m 2,5 C 6,0 C 0,0 km/h (0 Bft) 100,00 %
11.01.2012 09:34 6,0 C 78 % 1032,2 hPa 0,0 l/m 1,5 km/h (1 Bft) NW 321 0 min 0,000 mm 62 W/m 2,5 C 6,0 C 4,8 km/h (1 Bft) 100,00 %
11.01.2012 09:35 6,1 C 78 % 1032,2 hPa 0,0 l/m 2,5 km/h (1 Bft) NW 320 0 min 0,000 mm 67 W/m 2,6 C 6,1 C 8,0 km/h (2 Bft) 100,00 %
11.01.2012 09:36 6,1 C 78 % 1032,2 hPa 0,0 l/m 4,9 km/h (1 Bft) NW 323 0 min 0,000 mm 69 W/m 2,6 C 6,1 C 11,3 km/h (2 Bft) 95,83 %
11.01.2012 09:37 6,1 C 78 % 1032,2 hPa 0,0 l/m 6,4 km/h (2 Bft) NW 325 0 min 0,000 mm 70 W/m 2,6 C 6,1 C 9,7 km/h (2 Bft) 100,00 %
11.01.2012 09:38 6,1 C 78 % 1032,2 hPa 0,0 l/m 4,8 km/h (1 Bft) NW 325 0 min 0,000 mm 70 W/m 2,6 C 6,1 C 11,3 km/h (2 Bft) 100,00 %
11.01.2012 09:39 6,1 C 78 % 1032,3 hPa 0,0 l/m 0,9 km/h (0 Bft) NW 326 0 min 0,000 mm 69 W/m 2,6 C 6,1 C 4,8 km/h (1 Bft) 100,00 %
11.01.2012 09:40 6,1 C 78 % 1032,3 hPa 0,0 l/m 0,2 km/h (0 Bft) N-NW 328 0 min 0,000 mm 69 W/m 2,6 C 6,1 C 4,8 km/h (1 Bft) 100,00 %
11.01.2012 09:41 6,2 C 78 % 1032,3 hPa 0,0 l/m 7,1 km/h (2 Bft) NW 326 0 min 0,000 mm 70 W/m 2,7 C 5,6 C 9,7 km/h (2 Bft) 100,00 %
11.01.2012 09:42 6,2 C 78 % 1032,3 hPa 0,0 l/m 5,5 km/h (1 Bft) N-NW 331 0 min 0,000 mm 74 W/m 2,7 C 6,2 C 11,3 km/h (2 Bft) 100,00 %
11.01.2012 09:43 6,2 C 77 % 1032,3 hPa 0,0 l/m 2,2 km/h (1 Bft) N-NW 331 0 min 0,000 mm 69 W/m 2,5 C 6,2 C 4,8 km/h (1 Bft) 100,00 %
11.01.2012 09:44 6,2 C 77 % 1032,3 hPa 0,0 l/m 1,0 km/h (0 Bft) N-NW 330 0 min 0,000 mm 62 W/m 2,5 C 6,2 C 4,8 km/h (1 Bft) 100,00 %
11.01.2012 09:45 6,2 C 77 % 1032,3 hPa 0,0 l/m 5,0 km/h (1 Bft) NW 325 0 min 0,000 mm 58 W/m 2,5 C 6,2 C 9,7 km/h (2 Bft) 96,00 %
11.01.2012 09:46 6,3 C 77 % 1032,3 hPa 0,0 l/m 5,6 km/h (1 Bft) NW 326 0 min 0,000 mm 60 W/m 2,6 C 6,3 C 9,7 km/h (2 Bft) 95,83 %
11.01.2012 09:47 6,3 C 77 % 1032,3 hPa 0,0 l/m 6,7 km/h (2 Bft) NW 323 0 min 0,000 mm 67 W/m 2,6 C 6,1 C 19,3 km/h (3 Bft) 100,00 %
11.01.2012 09:48 6,3 C 77 % 1032,3 hPa 0,0 l/m 6,7 km/h (2 Bft) NW 318 0 min 0,000 mm 76 W/m 2,6 C 6,1 C 12,9 km/h (3 Bft) 100,00 %
11.01.2012 09:49 6,3 C 77 % 1032,2 hPa 0,0 l/m 14,4 km/h (3 Bft) W-NW 299 0 min 0,000 mm 86 W/m 2,6 C 0,9 C 24,1 km/h (4 Bft) 100,00 %
11.01.2012 09:50 6,4 C 76 % 1032,3 hPa 0,0 l/m 16,2 km/h (3 Bft) NW 317 0 min 0,000 mm 97 W/m 2,5 C 0,2 C 24,1 km/h (4 Bft) 100,00 %
11.01.2012 09:51 6,6 C 75 % 1032,2 hPa 0,0 l/m 8,4 km/h (2 Bft) N-NW 327 0 min 0,000 mm 100 W/m 2,5 C 5,0 C 14,5 km/h (3 Bft) 100,00 %
11.01.2012 09:52 6,7 C 75 % 1032,2 hPa 0,0 l/m 11,3 km/h (2 Bft) NW 313 0 min 0,000 mm 105 W/m 2,6 C 3,1 C 17,7 km/h (3 Bft) 100,00 %
11.01.2012 09:53 6,8 C 74 % 1032,2 hPa 0,0 l/m 10,3 km/h (2 Bft) NW 310 0 min 0,000 mm 121 W/m 2,5 C 3,9 C 14,5 km/h (3 Bft) 100,00 %
11.01.2012 09:54 6,9 C 74 % 1032,2 hPa 0,0 l/m 12,5 km/h (3 Bft) NW 322 0 min 0,000 mm 111 W/m 2,6 C 2,7 C 16,1 km/h (3 Bft) 100,00 %
11.01.2012 09:55 7,0 C 73 % 1032,2 hPa 0,0 l/m 10,9 km/h (2 Bft) NW 306 0 min 0,000 mm 118 W/m 2,5 C 3,7 C 17,7 km/h (3 Bft) 100,00 %
11.01.2012 09:56 7,1 C 72 % 1032,2 hPa 0,0 l/m 14,4 km/h (3 Bft) NW 317 0 min 0,000 mm 128 W/m 2,4 C 1,9 C 17,7 km/h (3 Bft) 95,83 %
11.01.2012 09:57 7,1 C 72 % 1032,2 hPa 0,0 l/m 15,4 km/h (3 Bft) NW 311 0 min 0,000 mm 141 W/m 2,4 C 1,4 C 19,3 km/h (3 Bft) 100,00 %
11.01.2012 09:58 7,2 C 72 % 1032,1 hPa 0,0 l/m 14,6 km/h (3 Bft) NW 314 1 min 0,000 mm 243 W/m 2,5 C 1,9 C 17,7 km/h (3 Bft) 100,00 %
11.01.2012 09:59 7,2 C 72 % 1032,2 hPa 0,0 l/m 8,1 km/h (2 Bft) NW 317 1 min 0,000 mm 243 W/m 2,5 C 5,8 C 14,5 km/h (3 Bft) 100,00 %
11.01.2012 10:00 7,3 C 72 % 1032,2 hPa 0,0 l/m 8,5 km/h (2 Bft) NW 322 0 min 0,000 mm 134 W/m 2,6 C 5,6 C 16,1 km/h (3 Bft) 100,00 %
11.01.2012 10:02 7,3 C 72 % 1032,2 hPa 0,0 l/m 11,9 km/h (2 Bft) NW 313 0 min 0,026 mm 125 W/m 2,6 C 3,5 C 19,3 km/h (3 Bft) 100,00 %
11.01.2012 10:03 7,3 C 72 % 1032,1 hPa 0,0 l/m 6,4 km/h (2 Bft) N-NW 335 0 min 0,000 mm 118 W/m 2,6 C 7,3 C 11,3 km/h (2 Bft) 100,00 %
11.01.2012 10:04 7,3 C 72 % 1032,1 hPa 0,0 l/m 4,0 km/h (1 Bft) N-NW 336 0 min 0,000 mm 123 W/m 2,6 C 7,3 C 6,4 km/h (2 Bft) 100,00 %
11.01.2012 10:05 7,3 C 73 % 1032,1 hPa 0,0 l/m 5,4 km/h (1 Bft) N-NW 333 0 min 0,000 mm 132 W/m 2,8 C 7,3 C 8,0 km/h (2 Bft) 100,00 %
11.01.2012 10:06 7,3 C 73 % 1032,1 hPa 0,0 l/m 8,5 km/h (2 Bft) NW 323 0 min 0,000 mm 134 W/m 2,8 C 5,6 C 12,9 km/h (3 Bft) 100,00 %
11.01.2012 10:07 7,3 C 72 % 1032,1 hPa 0,0 l/m 8,6 km/h (2 Bft) NW 319 0 min 0,000 mm 134 W/m 2,6 C 5,6 C 11,3 km/h (2 Bft) 100,00 %
11.01.2012 10:08 7,3 C 72 % 1032,1 hPa 0,0 l/m 6,6 km/h (2 Bft) NW 304 0 min 0,000 mm 116 W/m 2,6 C 7,2 C 11,3 km/h (2 Bft) 100,00 %
11.01.2012 10:09 7,4 C 72 % 1032,1 hPa 0,0 l/m 17,8 km/h (3 Bft) NW 322 0 min 0,000 mm 104 W/m 2,7 C 0,8 C 24,1 km/h (4 Bft) 100,00 %
11.01.2012 10:10 7,4 C 71 % 1032,1 hPa 0,0 l/m 7,2 km/h (2 Bft) N-NW 341 0 min 0,000 mm 95 W/m 2,5 C 6,8 C 9,7 km/h (2 Bft) 100,00 %
11.01.2012 10:11 7,3 C 72 % 1032,1 hPa 0,0 l/m 7,8 km/h (2 Bft) N-NW 344 0 min 0,000 mm 91 W/m 2,6 C 6,2 C 11,3 km/h (2 Bft) 100,00 %
11.01.2012 10:12 7,3 C 72 % 1032,1 hPa 0,0 l/m 6,4 km/h (2 Bft) N-NW 341 0 min 0,000 mm 91 W/m 2,6 C 7,3 C 11,3 km/h (2 Bft) 100,00 %
11.01.2012 10:13 7,3 C 72 % 1032,1 hPa 0,0 l/m 5,1 km/h (1 Bft) N-NW 341 0 min 0,000 mm 98 W/m 2,6 C 7,3 C 8,0 km/h (2 Bft) 100,00 %
11.01.2012 10:14 7,3 C 72 % 1032,1 hPa 0,0 l/m 6,8 km/h (2 Bft) N-NW 329 0 min 0,000 mm 113 W/m 2,6 C 7,0 C 9,7 km/h (2 Bft) 100,00 %
11.01.2012 10:15 7,2 C 72 % 1032,0 hPa 0,0 l/m 7,3 km/h (2 Bft) N-NW 328 0 min 0,000 mm 113 W/m 2,5 C 6,5 C 9,7 km/h (2 Bft) 100,00 %
11.01.2012 10:16 7,2 C 73 % 1032,0 hPa 0,0 l/m 7,2 km/h (2 Bft) NW 313 1 min 0,000 mm 260 W/m 2,7 C 6,5 C 12,9 km/h (3 Bft) 100,00 %
11.01.2012 10:17 7,3 C 72 % 1032,0 hPa 0,0 l/m 4,2 km/h (1 Bft) NW 314 1 min 0,000 mm 202 W/m 2,6 C 7,3 C 8,0 km/h (2 Bft) 100,00 %
11.01.2012 10:18 7,3 C 73 % 1032,0 hPa 0,0 l/m 3,2 km/h (1 Bft) NW 326 1 min 0,000 mm 160 W/m 2,8 C 7,3 C 14,5 km/h (3 Bft) 100,00 %
11.01.2012 10:19 7,3 C 72 % 1031,9 hPa 0,0 l/m 7,2 km/h (2 Bft) N 9 0 min 0,000 mm 148 W/m 2,6 C 6,7 C 11,3 km/h (2 Bft) 100,00 %
11.01.2012 10:20 7,4 C 72 % 1031,9 hPa 0,0 l/m 1,1 km/h (1 Bft) N 360 0 min 0,000 mm 148 W/m 2,7 C 7,4 C 4,8 km/h (1 Bft) 95,83 %
11.01.2012 10:21 7,4 C 72 % 1031,9 hPa 0,0 l/m 5,4 km/h (1 Bft) N 350 1 min 0,000 mm 192 W/m 2,7 C 7,4 C 9,7 km/h (2 Bft) 100,00 %
11.01.2012 10:22 7,4 C 72 % 1032,0 hPa 0,0 l/m 0,4 km/h (0 Bft) N 350 1 min 0,000 mm 248 W/m 2,7 C 7,4 C 6,4 km/h (2 Bft) 100,00 %
11.01.2012 10:23 7,5 C 72 % 1032,0 hPa 0,0 l/m 1,3 km/h (1 Bft) N 350 1 min 0,000 mm 250 W/m 2,8 C 7,5 C 6,4 km/h (2 Bft) 100,00 %
11.01.2012 10:24 7,5 C 72 % 1032,0 hPa 0,0 l/m 6,2 km/h (2 Bft) N-NW 334 1 min 0,000 mm 239 W/m 2,8 C 7,5 C 14,5 km/h (3 Bft) 100,00 %
11.01.2012 10:25 7,6 C 72 % 1031,9 hPa 0,0 l/m 2,9 km/h (1 Bft) N-NW 334 1 min 0,000 mm 237 W/m 2,9 C 7,6 C 6,4 km/h (2 Bft) 100,00 %
11.01.2012 10:26 7,6 C 72 % 1032,0 hPa 0,0 l/m 2,9 km/h (1 Bft) N-NW 331 1 min 0,000 mm 255 W/m 2,9 C 7,6 C 8,0 km/h (2 Bft) 100,00 %
11.01.2012 10:27 7,6 C 72 % 1031,9 hPa 0,0 l/m 2,2 km/h (1 Bft) N-NW 333 1 min 0,000 mm 253 W/m 2,9 C 7,6 C 6,4 km/h (2 Bft) 100,00 %
11.01.2012 10:28 7,7 C 72 % 1031,9 hPa 0,0 l/m 4,5 km/h (1 Bft) N-NW 338 1 min 0,000 mm 155 W/m 3,0 C 7,7 C 8,0 km/h (2 Bft) 100,00 %
11.01.2012 10:29 7,7 C 72 % 1032,0 hPa 0,0 l/m 6,8 km/h (2 Bft) NW 321 0 min 0,000 mm 113 W/m 3,0 C 7,4 C 17,7 km/h (3 Bft) 100,00 %
11.01.2012 10:30 7,8 C 72 % 1031,9 hPa 0,0 l/m 7,4 km/h (2 Bft) N-NW 338 0 min 0,000 mm 111 W/m 3,1 C 7,0 C 14,5 km/h (3 Bft) 100,00 %
11.01.2012 10:31 7,8 C 71 % 1031,9 hPa 0,0 l/m 10,4 km/h (2 Bft) N-NW 339 1 min 0,000 mm 176 W/m 2,9 C 4,9 C 14,5 km/h (3 Bft) 100,00 %
11.01.2012 10:32 7,8 C 71 % 1032,0 hPa 0,0 l/m 5,3 km/h (1 Bft) NW 326 0 min 0,000 mm 144 W/m 2,9 C 7,8 C 11,3 km/h (2 Bft) 100,00 %
11.01.2012 10:33 7,8 C 71 % 1031,8 hPa 0,0 l/m 3,4 km/h (1 Bft) NW 323 0 min 0,000 mm 74 W/m 2,9 C 7,8 C 9,7 km/h (2 Bft) 100,00 %
11.01.2012 10:34 7,9 C 71 % 1031,9 hPa 0,0 l/m 8,6 km/h (2 Bft) NW 323 0 min 0,000 mm 76 W/m 3,0 C 6,2 C 17,7 km/h (3 Bft) 100,00 %
11.01.2012 10:35 7,9 C 71 % 1031,9 hPa 0,0 l/m 12,5 km/h (3 Bft) N 360 0 min 0,000 mm 76 W/m 3,0 C 3,8 C 17,7 km/h (3 Bft) 100,00 %
11.01.2012 10:36 7,9 C 71 % 1031,8 hPa 0,0 l/m 14,2 km/h (3 Bft) NW 321 0 min 0,000 mm 72 W/m 3,0 C 3,0 C 16,1 km/h (3 Bft) 100,00 %
11.01.2012 10:37 7,9 C 70 % 1031,9 hPa 0,0 l/m 9,0 km/h (2 Bft) N-NW 343 0 min 0,000 mm 72 W/m 2,8 C 5,9 C 16,1 km/h (3 Bft) 100,00 %
11.01.2012 10:38 7,9 C 70 % 1031,8 hPa 0,0 l/m 14,9 km/h (3 Bft) NW 316 0 min 0,000 mm 70 W/m 2,8 C 2,6 C 22,5 km/h (4 Bft) 100,00 %
11.01.2012 10:39 7,9 C 70 % 1031,8 hPa 0,0 l/m 10,6 km/h (2 Bft) NW 325 0 min 0,000 mm 83 W/m 2,8 C 4,9 C 16,1 km/h (3 Bft) 100,00 %
11.01.2012 10:40 7,9 C 70 % 1031,9 hPa 0,0 l/m 10,6 km/h (2 Bft) NW 310 1 min 0,000 mm 158 W/m 2,8 C 4,9 C 16,1 km/h (3 Bft) 100,00 %
11.01.2012 10:41 7,9 C 70 % 1031,8 hPa 0,0 l/m 6,4 km/h (2 Bft) N-NW 331 0 min 0,000 mm 151 W/m 2,8 C 7,9 C 11,3 km/h (2 Bft) 100,00 %
11.01.2012 10:42 7,9 C 70 % 1031,8 hPa 0,0 l/m 13,8 km/h (3 Bft) W 275 1 min 0,000 mm 153 W/m 2,8 C 3,2 C 22,5 km/h (4 Bft) 100,00 %
11.01.2012 10:43 7,9 C 69 % 1031,8 hPa 0,0 l/m 8,7 km/h (2 Bft) NW 326 1 min 0,000 mm 221 W/m 2,6 C 6,1 C 14,5 km/h (3 Bft) 95,83 %
11.01.2012 10:44 8,0 C 69 % 1031,8 hPa 0,0 l/m 8,3 km/h (2 Bft) NW 309 1 min 0,000 mm 213 W/m 2,7 C 6,5 C 17,7 km/h (3 Bft) 100,00 %
11.01.2012 10:45 8,1 C 69 % 1031,8 hPa 0,0 l/m 11,5 km/h (2 Bft) W-NW 303 1 min 0,000 mm 271 W/m 2,8 C 4,6 C 22,5 km/h (4 Bft) 100,00 %
11.01.2012 10:46 8,1 C 69 % 1031,8 hPa 0,0 l/m 10,3 km/h (2 Bft) NW 325 1 min 0,000 mm 267 W/m 2,8 C 5,3 C 14,5 km/h (3 Bft) 96,67 %
11.01.2012 10:47 8,1 C 69 % 1031,8 hPa 0,0 l/m 8,6 km/h (2 Bft) N-NW 331 1 min 0,000 mm 269 W/m 2,8 C 6,4 C 11,3 km/h (2 Bft) 100,00 %
11.01.2012 10:48 8,2 C 69 % 1031,8 hPa 0,0 l/m 6,8 km/h (2 Bft) NW 306 1 min 0,000 mm 269 W/m 2,9 C 7,9 C 11,3 km/h (2 Bft) 96,00 %
11.01.2012 10:49 8,2 C 69 % 1031,8 hPa 0,0 l/m 3,5 km/h (1 Bft) NW 307 1 min 0,000 mm 274 W/m 2,9 C 8,2 C 6,4 km/h (2 Bft) 100,00 %
11.01.2012 10:50 8,3 C 69 % 1031,8 hPa 0,0 l/m 5,9 km/h (2 Bft) NW 314 1 min 0,000 mm 272 W/m 3,0 C 8,3 C 11,3 km/h (2 Bft) 100,00 %
11.01.2012 10:51 8,3 C 68 % 1031,7 hPa 0,0 l/m 9,6 km/h (2 Bft) NW 307 1 min 0,000 mm 278 W/m 2,7 C 6,0 C 16,1 km/h (3 Bft) 100,00 %
11.01.2012 10:52 8,3 C 68 % 1031,7 hPa 0,0 l/m 4,3 km/h (1 Bft) NW 305 1 min 0,000 mm 272 W/m 2,7 C 8,3 C 11,3 km/h (2 Bft) 100,00 %
11.01.2012 10:53 8,3 C 68 % 1031,7 hPa 0,0 l/m 3,1 km/h (1 Bft) W-NW 302 1 min 0,000 mm 276 W/m 2,7 C 8,3 C 8,0 km/h (2 Bft) 100,00 %
11.01.2012 10:54 8,4 C 68 % 1031,7 hPa 0,0 l/m 4,0 km/h (1 Bft) W-NW 288 1 min 0,000 mm 276 W/m 2,8 C 8,4 C 11,3 km/h (2 Bft) 100,00 %
11.01.2012 10:55 8,4 C 68 % 1031,6 hPa 0,0 l/m 7,5 km/h (2 Bft) W-NW 294 1 min 0,000 mm 278 W/m 2,8 C 7,5 C 12,9 km/h (3 Bft) 100,00 %
11.01.2012 10:56 8,5 C 67 % 1031,7 hPa 0,0 l/m 5,5 km/h (1 Bft) N-NW 344 1 min 0,000 mm 274 W/m 2,7 C 8,5 C 9,7 km/h (2 Bft) 100,00 %
11.01.2012 10:57 8,6 C 68 % 1031,6 hPa 0,0 l/m 3,3 km/h (1 Bft) N-NW 344 1 min 0,000 mm 279 W/m 3,0 C 8,6 C 4,8 km/h (1 Bft) 100,00 %
11.01.2012 10:58 8,6 C 68 % 1031,6 hPa 0,0 l/m 2,0 km/h (1 Bft) N-NW 344 1 min 0,000 mm 276 W/m 3,0 C 8,6 C 6,4 km/h (2 Bft) 100,00 %
11.01.2012 10:59 8,6 C 68 % 1031,6 hPa 0,0 l/m 6,1 km/h (2 Bft) NW 320 1 min 0,000 mm 253 W/m 3,0 C 8,6 C 16,1 km/h (3 Bft) 100,00 %
11.01.2012 11:00 8,6 C 67 % 1031,6 hPa 0,0 l/m 8,9 km/h (2 Bft) NW 314 1 min 0,000 mm 283 W/m 2,8 C 6,8 C 11,3 km/h (2 Bft) 100,00 %
11.01.2012 11:01 8,6 C 67 % 1031,6 hPa 0,0 l/m 11,1 km/h (2 Bft) N-NW 327 1 min 0,101 mm 283 W/m 2,8 C 5,4 C 17,7 km/h (3 Bft) 100,00 %
11.01.2012 11:02 8,6 C 67 % 1031,6 hPa 0,0 l/m 4,8 km/h (1 Bft) W-NW 289 1 min 0,000 mm 288 W/m 2,8 C 8,6 C 11,3 km/h (2 Bft) 100,00 %
11.01.2012 11:03 8,5 C 67 % 1031,6 hPa 0,0 l/m 7,4 km/h (2 Bft) W-NW 290 1 min 0,000 mm 292 W/m 2,7 C 7,7 C 11,3 km/h (2 Bft) 100,00 %
11.01.2012 11:04 8,6 C 67 % 1031,5 hPa 0,0 l/m 5,3 km/h (1 Bft) W-NW 294 1 min 0,000 mm 294 W/m 2,8 C 8,6 C 8,0 km/h (2 Bft) 100,00 %
11.01.2012 11:05 8,6 C 68 % 1031,4 hPa 0,0 l/m 4,5 km/h (1 Bft) W-NW 303 1 min 0,000 mm 295 W/m 3,0 C 8,6 C 9,7 km/h (2 Bft) 100,00 %
11.01.2012 11:06 8,7 C 68 % 1031,5 hPa 0,0 l/m 6,6 km/h (2 Bft) NW 322 1 min 0,000 mm 290 W/m 3,1 C 8,6 C 16,1 km/h (3 Bft) 100,00 %
11.01.2012 11:07 8,7 C 67 % 1031,5 hPa 0,0 l/m 17,7 km/h (3 Bft) NW 326 1 min 0,000 mm 295 W/m 2,9 C 2,4 C 24,1 km/h (4 Bft) 100,00 %
11.01.2012 11:08 8,7 C 67 % 1031,4 hPa 0,0 l/m 15,6 km/h (3 Bft) NW 308 1 min 0,000 mm 292 W/m 2,9 C 3,3 C 20,9 km/h (4 Bft) 100,00 %
11.01.2012 11:09 8,7 C 66 % 1031,4 hPa 0,0 l/m 16,5 km/h (3 Bft) N-NW 327 1 min 0,000 mm 302 W/m 2,7 C 2,9 C 20,9 km/h (4 Bft) 100,00 %
11.01.2012 11:10 8,7 C 66 % 1031,4 hPa 0,0 l/m 13,6 km/h (3 Bft) W-SW 258 1 min 0,000 mm 304 W/m 2,7 C 4,2 C 29,0 km/h (5 Bft) 100,00 %
11.01.2012 11:11 8,8 C 66 % 1031,2 hPa 0,0 l/m 11,1 km/h (2 Bft) NW 317 1 min 0,000 mm 309 W/m 2,8 C 5,6 C 22,5 km/h (4 Bft) 100,00 %
11.01.2012 11:12 8,8 C 65 % 1031,3 hPa 0,0 l/m 16,0 km/h (3 Bft) W-NW 295 1 min 0,000 mm 325 W/m 2,6 C 3,3 C 20,9 km/h (4 Bft) 100,00 %
11.01.2012 11:13 8,8 C 65 % 1031,3 hPa 0,0 l/m 16,9 km/h (3 Bft) N-NW 331 1 min 0,000 mm 334 W/m 2,6 C 2,9 C 20,9 km/h (4 Bft) 100,00 %
11.01.2012 11:14 8,9 C 66 % 1031,3 hPa 0,0 l/m 9,9 km/h (2 Bft) W-NW 300 1 min 0,000 mm 357 W/m 2,9 C 6,4 C 14,5 km/h (3 Bft) 100,00 %
11.01.2012 11:15 9,0 C 66 % 1031,3 hPa 0,0 l/m 9,9 km/h (2 Bft) NW 307 1 min 0,000 mm 367 W/m 3,0 C 6,6 C 14,5 km/h (3 Bft) 100,00 %
11.01.2012 11:16 9,1 C 66 % 1031,3 hPa 0,0 l/m 16,8 km/h (3 Bft) N-NW 336 1 min 0,000 mm 369 W/m 3,1 C 3,3 C 29,0 km/h (5 Bft) 100,00 %
11.01.2012 11:17 9,2 C 65 % 1031,3 hPa 0,0 l/m 11,2 km/h (2 Bft) N-NW 342 1 min 0,000 mm 387 W/m 3,0 C 6,0 C 17,7 km/h (3 Bft) 100,00 %
11.01.2012 11:18 9,2 C 65 % 1031,3 hPa 0,0 l/m 17,2 km/h (3 Bft) N-NW 342 1 min 0,000 mm 394 W/m 3,0 C 3,3 C 22,5 km/h (4 Bft) 100,00 %
11.01.2012 11:19 9,3 C 64 % 1031,3 hPa 0,0 l/m 18,1 km/h (3 Bft) W-NW 303 1 min 0,000 mm 392 W/m 2,8 C 3,0 C 24,1 km/h (4 Bft) 100,00 %
11.01.2012 11:20 9,3 C 64 % 1031,3 hPa 0,0 l/m 17,3 km/h (3 Bft) W 260 1 min 0,000 mm 404 W/m 2,8 C 3,3 C 24,1 km/h (4 Bft) 100,00 %
11.01.2012 11:21 9,3 C 64 % 1031,3 hPa 0,0 l/m 19,5 km/h (3 Bft) NW 305 1 min 0,000 mm 406 W/m 2,8 C 2,6 C 29,0 km/h (5 Bft) 100,00 %
11.01.2012 11:22 9,3 C 63 % 1031,2 hPa 0,0 l/m 24,8 km/h (4 Bft) NW 312 1 min 0,000 mm 408 W/m 2,6 C 0,9 C 30,6 km/h (5 Bft) 100,00 %
11.01.2012 11:23 9,4 C 63 % 1031,1 hPa 0,0 l/m 22,4 km/h (4 Bft) N-NW 330 1 min 0,000 mm 403 W/m 2,7 C 1,8 C 27,4 km/h (4 Bft) 100,00 %
11.01.2012 11:24 9,4 C 63 % 1031,2 hPa 0,0 l/m 14,6 km/h (3 Bft) N-NW 331 1 min 0,000 mm 403 W/m 2,7 C 4,6 C 22,5 km/h (4 Bft) 95,83 %
11.01.2012 11:25 9,4 C 63 % 1031,2 hPa 0,0 l/m 15,5 km/h (3 Bft) NW 321 1 min 0,000 mm 403 W/m 2,7 C 4,2 C 25,7 km/h (4 Bft) 100,00 %
11.01.2012 11:26 9,4 C 63 % 1031,2 hPa 0,0 l/m 22,2 km/h (4 Bft) NW 323 1 min 0,000 mm 403 W/m 2,7 C 1,8 C 29,0 km/h (5 Bft) 100,00 %
11.01.2012 11:27 9,4 C 63 % 1031,2 hPa 0,0 l/m 14,2 km/h (3 Bft) NW 322 1 min 0,000 mm 285 W/m 2,7 C 4,8 C 25,7 km/h (4 Bft) 100,00 %
11.01.2012 11:28 9,4 C 63 % 1031,2 hPa 0,0 l/m 18,3 km/h (3 Bft) NW 308 1 min 0,000 mm 200 W/m 2,7 C 3,1 C 22,5 km/h (4 Bft) 100,00 %
11.01.2012 11:29 9,4 C 62 % 1031,2 hPa 0,0 l/m 16,5 km/h (3 Bft) W-NW 294 1 min 0,000 mm 200 W/m 2,5 C 3,8 C 24,1 km/h (4 Bft) 100,00 %
11.01.2012 11:30 9,4 C 63 % 1031,2 hPa 0,0 l/m 9,2 km/h (2 Bft) NW 306 1 min 0,000 mm 234 W/m 2,7 C 7,4 C 11,3 km/h (2 Bft) 100,00 %
11.01.2012 11:31 9,4 C 63 % 1031,1 hPa 0,0 l/m 13,0 km/h (3 Bft) N-NW 333 1 min 0,000 mm 230 W/m 2,7 C 5,3 C 24,1 km/h (4 Bft) 100,00 %
11.01.2012 11:32 9,3 C 63 % 1031,1 hPa 0,0 l/m 15,5 km/h (3 Bft) NW 324 0 min 0,000 mm 141 W/m 2,6 C 4,1 C 20,9 km/h (4 Bft) 100,00 %
11.01.2012 11:33 9,3 C 63 % 1031,1 hPa 0,0 l/m 15,5 km/h (3 Bft) W-NW 302 0 min 0,000 mm 134 W/m 2,6 C 4,1 C 25,7 km/h (4 Bft) 100,00 %
11.01.2012 11:34 9,2 C 63 % 1031,1 hPa 0,0 l/m 11,8 km/h (2 Bft) NW 317 0 min 0,000 mm 127 W/m 2,5 C 5,7 C 25,7 km/h (4 Bft) 95,83 %
11.01.2012 11:35 9,2 C 63 % 1031,0 hPa 0,0 l/m 19,0 km/h (3 Bft) NW 308 0 min 0,000 mm 121 W/m 2,5 C 2,6 C 24,1 km/h (4 Bft) 100,00 %
11.01.2012 11:36 9,1 C 63 % 1031,0 hPa 0,0 l/m 16,1 km/h (3 Bft) W-NW 300 0 min 0,000 mm 120 W/m 2,4 C 3,6 C 20,9 km/h (4 Bft) 100,00 %
11.01.2012 11:37 9,1 C 63 % 1031,0 hPa 0,0 l/m 10,5 km/h (2 Bft) W-NW 302 0 min 0,000 mm 118 W/m 2,4 C 6,3 C 14,5 km/h (3 Bft) 100,00 %
11.01.2012 11:38 9,0 C 63 % 1031,0 hPa 0,0 l/m 10,9 km/h (2 Bft) W-NW 294 0 min 0,000 mm 125 W/m 2,3 C 6,0 C 16,1 km/h (3 Bft) 100,00 %
11.01.2012 11:39 8,9 C 64 % 1031,0 hPa 0,0 l/m 10,2 km/h (2 Bft) NW 311 0 min 0,000 mm 130 W/m 2,5 C 6,3 C 17,7 km/h (3 Bft) 100,00 %
11.01.2012 11:40 8,9 C 64 % 1031,0 hPa 0,0 l/m 14,3 km/h (3 Bft) NW 313 0 min 0,000 mm 142 W/m 2,5 C 4,1 C 17,7 km/h (3 Bft) 100,00 %
11.01.2012 11:41 8,9 C 64 % 1031,0 hPa 0,0 l/m 9,1 km/h (2 Bft) W 275 1 min 0,000 mm 227 W/m 2,5 C 6,9 C 16,1 km/h (3 Bft) 100,00 %
11.01.2012 11:42 8,9 C 65 % 1031,0 hPa 0,0 l/m 6,6 km/h (2 Bft) W-NW 292 1 min 0,000 mm 239 W/m 2,7 C 8,8 C 11,3 km/h (2 Bft) 100,00 %
11.01.2012 11:43 8,9 C 65 % 1031,0 hPa 0,0 l/m 9,5 km/h (2 Bft) W-NW 296 1 min 0,000 mm 158 W/m 2,7 C 6,7 C 16,1 km/h (3 Bft) 100,00 %
11.01.2012 11:44 8,9 C 64 % 1031,0 hPa 0,0 l/m 9,4 km/h (2 Bft) NW 308 0 min 0,000 mm 141 W/m 2,5 C 6,8 C 17,7 km/h (3 Bft) 100,00 %
11.01.2012 11:45 8,9 C 64 % 1031,0 hPa 0,0 l/m 11,6 km/h (2 Bft) NW 304 0 min 0,000 mm 149 W/m 2,5 C 5,5 C 16,1 km/h (3 Bft) 100,00 %
11.01.2012 11:46 8,9 C 64 % 1031,0 hPa 0,0 l/m 12,8 km/h (3 Bft) W-NW 300 1 min 0,000 mm 160 W/m 2,5 C 4,8 C 19,3 km/h (3 Bft) 96,30 %
11.01.2012 11:47 8,9 C 64 % 1031,0 hPa 0,0 l/m 14,0 km/h (3 Bft) NW 306 1 min 0,000 mm 155 W/m 2,5 C 4,3 C 19,3 km/h (3 Bft) 100,00 %
11.01.2012 11:48 8,9 C 64 % 1030,9 hPa 0,0 l/m 12,6 km/h (3 Bft) NW 309 0 min 0,000 mm 144 W/m 2,5 C 4,9 C 22,5 km/h (4 Bft) 100,00 %
11.01.2012 11:49 8,8 C 63 % 1030,9 hPa 0,0 l/m 19,0 km/h (3 Bft) W-NW 292 0 min 0,000 mm 139 W/m 2,2 C 2,1 C 29,0 km/h (5 Bft) 100,00 %
11.01.2012 11:50 8,8 C 63 % 1030,9 hPa 0,0 l/m 12,8 km/h (3 Bft) W-NW 294 1 min 0,000 mm 167 W/m 2,2 C 4,7 C 22,5 km/h (4 Bft) 100,00 %
11.01.2012 11:51 8,8 C 63 % 1030,9 hPa 0,0 l/m 15,3 km/h (3 Bft) W 275 1 min 0,000 mm 162 W/m 2,2 C 3,5 C 24,1 km/h (4 Bft) 100,00 %
11.01.2012 11:52 8,9 C 63 % 1030,8 hPa 0,0 l/m 18,3 km/h (3 Bft) W 272 1 min 0,000 mm 178 W/m 2,2 C 2,5 C 29,0 km/h (5 Bft) 100,00 %
11.01.2012 11:53 8,9 C 63 % 1030,9 hPa 0,0 l/m 13,2 km/h (3 Bft) NW 313 1 min 0,000 mm 192 W/m 2,2 C 4,6 C 25,7 km/h (4 Bft) 100,00 %
11.01.2012 11:54 8,9 C 62 % 1030,8 hPa 0,0 l/m 19,2 km/h (3 Bft) W 268 1 min 0,000 mm 206 W/m 2,0 C 2,1 C 24,1 km/h (4 Bft) 100,00 %
11.01.2012 11:55 8,9 C 63 % 1030,9 hPa 0,0 l/m 14,3 km/h (3 Bft) W 263 1 min 0,000 mm 206 W/m 2,2 C 4,1 C 20,9 km/h (4 Bft) 96,15 %
11.01.2012 11:56 9,1 C 63 % 1030,9 hPa 0,0 l/m 9,4 km/h (2 Bft) W 273 1 min 0,000 mm 202 W/m 2,4 C 7,0 C 20,9 km/h (4 Bft) 100,00 %
11.01.2012 11:57 9,1 C 63 % 1031,0 hPa 0,0 l/m 7,3 km/h (2 Bft) NW 319 1 min 0,000 mm 262 W/m 2,4 C 8,4 C 16,1 km/h (3 Bft) 100,00 %
11.01.2012 11:58 9,2 C 63 % 1030,9 hPa 0,0 l/m 11,0 km/h (2 Bft) W-NW 302 1 min 0,000 mm 200 W/m 2,5 C 6,1 C 17,7 km/h (3 Bft) 100,00 %
11.01.2012 11:59 9,2 C 63 % 1031,0 hPa 0,0 l/m 11,5 km/h (2 Bft) W 269 1 min 0,000 mm 220 W/m 2,5 C 5,9 C 16,1 km/h (3 Bft) 100,00 %
11.01.2012 12:00 9,2 C 62 % 1031,0 hPa 0,0 l/m 11,5 km/h (2 Bft) W-NW 286 1 min 0,000 mm 283 W/m 2,3 C 5,9 C 19,3 km/h (3 Bft) 100,00 %
11.01.2012 12:01 9,2 C 62 % 1031,0 hPa 0,0 l/m 11,8 km/h (2 Bft) W-NW 283 1 min 0,152 mm 237 W/m 2,3 C 5,7 C 20,9 km/h (4 Bft) 100,00 %
11.01.2012 12:02 9,2 C 62 % 1030,9 hPa 0,0 l/m 9,7 km/h (2 Bft) W-NW 296 1 min 0,001 mm 199 W/m 2,3 C 6,9 C 16,1 km/h (3 Bft) 100,00 %
11.01.2012 12:03 9,2 C 62 % 1030,9 hPa 0,0 l/m 9,1 km/h (2 Bft) W-SW 247 1 min 0,001 mm 193 W/m 2,3 C 7,3 C 16,1 km/h (3 Bft) 100,00 %
11.01.2012 12:04 9,2 C 63 % 1031,0 hPa 0,0 l/m 5,5 km/h (1 Bft) W 265 1 min 0,000 mm 190 W/m 2,5 C 9,2 C 9,7 km/h (2 Bft) 95,83 %
11.01.2012 12:05 9,2 C 62 % 1030,9 hPa 0,0 l/m 12,4 km/h (3 Bft) NW 310 1 min 0,000 mm 179 W/m 2,3 C 5,4 C 19,3 km/h (3 Bft) 100,00 %
11.01.2012 12:06 9,2 C 62 % 1030,8 hPa 0,0 l/m 14,3 km/h (3 Bft) W 271 1 min 0,000 mm 178 W/m 2,3 C 4,5 C 19,3 km/h (3 Bft) 100,00 %
11.01.2012 12:07 9,2 C 62 % 1030,9 hPa 0,0 l/m 11,4 km/h (2 Bft) W-NW 292 1 min 0,000 mm 190 W/m 2,3 C 5,9 C 14,5 km/h (3 Bft) 100,00 %
11.01.2012 12:08 9,1 C 62 % 1030,8 hPa 0,0 l/m 7,8 km/h (2 Bft) W-NW 299 1 min 0,000 mm 239 W/m 2,2 C 8,1 C 11,3 km/h (2 Bft) 100,00 %
11.01.2012 12:09 9,2 C 63 % 1030,8 hPa 0,0 l/m 10,1 km/h (2 Bft) NW 304 1 min 0,000 mm 171 W/m 2,5 C 6,7 C 16,1 km/h (3 Bft) 100,00 %
11.01.2012 12:10 9,1 C 62 % 1030,8 hPa 0,0 l/m 8,7 km/h (2 Bft) W 281 1 min 0,000 mm 165 W/m 2,2 C 7,4 C 16,1 km/h (3 Bft) 100,00 %
11.01.2012 12:11 9,1 C 63 % 1030,8 hPa 0,0 l/m 10,1 km/h (2 Bft) NW 311 1 min 0,000 mm 163 W/m 2,4 C 6,5 C 16,1 km/h (3 Bft) 100,00 %
11.01.2012 12:12 9,1 C 62 % 1030,7 hPa 0,0 l/m 9,4 km/h (2 Bft) NW 306 1 min 0,000 mm 167 W/m 2,2 C 7,0 C 12,9 km/h (3 Bft) 100,00 %
11.01.2012 12:13 9,1 C 62 % 1030,7 hPa 0,0 l/m 7,3 km/h (2 Bft) NW 314 1 min 0,000 mm 167 W/m 2,2 C 8,4 C 11,3 km/h (2 Bft) 100,00 %
11.01.2012 12:14 9,1 C 63 % 1030,7 hPa 0,0 l/m 9,7 km/h (2 Bft) NW 309 1 min 0,000 mm 156 W/m 2,4 C 6,8 C 17,7 km/h (3 Bft) 100,00 %
11.01.2012 12:15 9,1 C 63 % 1030,7 hPa 0,0 l/m 13,1 km/h (3 Bft) W-NW 286 1 min 0,000 mm 171 W/m 2,4 C 4,9 C 19,3 km/h (3 Bft) 100,00 %
11.01.2012 12:16 9,1 C 62 % 1030,6 hPa 0,0 l/m 10,1 km/h (2 Bft) W 265 0 min 0,000 mm 137 W/m 2,2 C 6,5 C 17,7 km/h (3 Bft) 100,00 %
11.01.2012 12:17 9,1 C 62 % 1030,6 hPa 0,0 l/m 12,4 km/h (3 Bft) W 270 0 min 0,000 mm 130 W/m 2,2 C 5,3 C 20,9 km/h (4 Bft) 100,00 %
11.01.2012 12:18 9,1 C 63 % 1030,7 hPa 0,0 l/m 6,7 km/h (2 Bft) W-NW 284 0 min 0,000 mm 125 W/m 2,4 C 8,9 C 11,3 km/h (2 Bft) 100,00 %
11.01.2012 12:19 9,1 C 62 % 1030,6 hPa 0,0 l/m 6,1 km/h (2 Bft) W-NW 288 1 min 0,000 mm 214 W/m 2,2 C 9,1 C 8,0 km/h (2 Bft) 100,00 %
11.01.2012 12:20 9,1 C 63 % 1030,6 hPa 0,0 l/m 5,3 km/h (1 Bft) W 277 1 min 0,000 mm 309 W/m 2,4 C 9,1 C 14,5 km/h (3 Bft) 100,00 %
11.01.2012 12:21 9,2 C 63 % 1030,6 hPa 0,0 l/m 4,9 km/h (1 Bft) W 278 1 min 0,000 mm 360 W/m 2,5 C 9,2 C 9,7 km/h (2 Bft) 100,00 %
11.01.2012 12:22 9,3 C 62 % 1030,6 hPa 0,0 l/m 5,8 km/h (2 Bft) W-NW 283 1 min 0,000 mm 288 W/m 2,4 C 9,3 C 6,4 km/h (2 Bft) 100,00 %
11.01.2012 12:23 9,3 C 62 % 1030,5 hPa 0,0 l/m 10,6 km/h (2 Bft) NW 311 1 min 0,000 mm 288 W/m 2,4 C 6,5 C 19,3 km/h (3 Bft) 100,00 %
11.01.2012 12:24 9,3 C 61 % 1030,5 hPa 0,0 l/m 14,8 km/h (3 Bft) W-NW 284 1 min 0,000 mm 429 W/m 2,2 C 4,4 C 20,9 km/h (4 Bft) 100,00 %
11.01.2012 12:25 9,3 C 62 % 1030,5 hPa 0,0 l/m 5,2 km/h (1 Bft) W-NW 284 1 min 0,000 mm 455 W/m 2,4 C 9,3 C 11,3 km/h (2 Bft) 100,00 %
11.01.2012 12:26 9,4 C 62 % 1030,5 hPa 0,0 l/m 1,7 km/h (1 Bft) W-NW 284 1 min 0,000 mm 455 W/m 2,5 C 9,4 C 6,4 km/h (2 Bft) 100,00 %
11.01.2012 12:27 9,6 C 62 % 1030,6 hPa 0,0 l/m 3,1 km/h (1 Bft) W-NW 284 1 min 0,000 mm 206 W/m 2,7 C 9,6 C 9,7 km/h (2 Bft) 100,00 %
11.01.2012 12:28 9,6 C 61 % 1030,5 hPa 0,0 l/m 9,2 km/h (2 Bft) NW 306 1 min 0,000 mm 211 W/m 2,5 C 7,6 C 16,1 km/h (3 Bft) 100,00 %
11.01.2012 12:29 9,6 C 61 % 1030,5 hPa 0,0 l/m 16,9 km/h (3 Bft) W-NW 290 1 min 0,000 mm 188 W/m 2,5 C 3,9 C 24,1 km/h (4 Bft) 100,00 %
11.01.2012 12:30 9,6 C 60 % 1030,4 hPa 0,0 l/m 14,6 km/h (3 Bft) W 264 1 min 0,000 mm 174 W/m 2,2 C 4,8 C 20,9 km/h (4 Bft) 100,00 %
11.01.2012 12:31 9,5 C 60 % 1030,5 hPa 0,0 l/m 11,3 km/h (2 Bft) W-NW 293 1 min 0,000 mm 183 W/m 2,1 C 6,3 C 17,7 km/h (3 Bft) 100,00 %
11.01.2012 12:32 9,4 C 60 % 1030,5 hPa 0,0 l/m 9,8 km/h (2 Bft) NW 305 1 min 0,000 mm 197 W/m 2,0 C 7,1 C 17,7 km/h (3 Bft) 100,00 %
11.01.2012 12:33 9,4 C 60 % 1030,4 hPa 0,0 l/m 11,9 km/h (2 Bft) W-NW 296 1 min 0,000 mm 211 W/m 2,0 C 5,9 C 17,7 km/h (3 Bft) 100,00 %
11.01.2012 12:34 9,3 C 61 % 1030,4 hPa 0,0 l/m 11,8 km/h (2 Bft) NW 304 1 min 0,000 mm 237 W/m 2,2 C 5,8 C 19,3 km/h (3 Bft) 100,00 %
11.01.2012 12:35 9,3 C 61 % 1030,4 hPa 0,0 l/m 13,7 km/h (3 Bft) NW 306 1 min 0,000 mm 237 W/m 2,2 C 4,9 C 22,5 km/h (4 Bft) 100,00 %
11.01.2012 12:36 9,3 C 61 % 1030,4 hPa 0,0 l/m 14,3 km/h (3 Bft) NW 304 1 min 0,000 mm 431 W/m 2,2 C 4,6 C 20,9 km/h (4 Bft) 100,00 %
11.01.2012 12:37 9,3 C 61 % 1030,4 hPa 0,0 l/m 12,6 km/h (3 Bft) W-NW 285 1 min 0,000 mm 431 W/m 2,2 C 5,4 C 16,1 km/h (3 Bft) 100,00 %
11.01.2012 12:38 9,3 C 61 % 1030,4 hPa 0,0 l/m 9,2 km/h (2 Bft) W-NW 297 1 min 0,000 mm 213 W/m 2,2 C 7,3 C 14,5 km/h (3 Bft) 100,00 %
11.01.2012 12:39 9,4 C 61 % 1030,4 hPa 0,0 l/m 5,1 km/h (1 Bft) W-NW 296 1 min 0,000 mm 192 W/m 2,3 C 9,4 C 11,3 km/h (2 Bft) 100,00 %
11.01.2012 12:40 9,4 C 62 % 1030,4 hPa 0,0 l/m 3,4 km/h (1 Bft) W-NW 298 1 min 0,000 mm 176 W/m 2,5 C 9,4 C 6,4 km/h (2 Bft) 100,00 %
11.01.2012 12:41 9,4 C 62 % 1030,3 hPa 0,0 l/m 3,6 km/h (1 Bft) W-NW 291 1 min 0,000 mm 169 W/m 2,5 C 9,4 C 8,0 km/h (2 Bft) 100,00 %
11.01.2012 12:42 9,4 C 62 % 1030,4 hPa 0,0 l/m 4,3 km/h (1 Bft) W-NW 288 1 min 0,000 mm 163 W/m 2,5 C 9,4 C 9,7 km/h (2 Bft) 100,00 %
11.01.2012 12:43 9,4 C 62 % 1030,4 hPa 0,0 l/m 5,9 km/h (2 Bft) W-NW 283 0 min 0,000 mm 151 W/m 2,5 C 9,4 C 12,9 km/h (3 Bft) 100,00 %
11.01.2012 12:44 9,4 C 61 % 1030,4 hPa 0,0 l/m 9,2 km/h (2 Bft) NW 311 0 min 0,000 mm 146 W/m 2,3 C 7,4 C 12,9 km/h (3 Bft) 100,00 %
11.01.2012 12:45 9,4 C 61 % 1030,4 hPa 0,0 l/m 9,9 km/h (2 Bft) W-SW 248 0 min 0,000 mm 144 W/m 2,3 C 7,0 C 14,5 km/h (3 Bft) 100,00 %
11.01.2012 12:46 9,3 C 61 % 1030,4 hPa 0,0 l/m 6,7 km/h (2 Bft) W 279 0 min 0,000 mm 137 W/m 2,2 C 9,1 C 9,7 km/h (2 Bft) 100,00 %
11.01.2012 12:47 9,3 C 62 % 1030,4 hPa 0,0 l/m 3,5 km/h (1 Bft) W 279 0 min 0,000 mm 141 W/m 2,4 C 9,3 C 6,4 km/h (2 Bft) 95,83 %
11.01.2012 12:48 9,3 C 62 % 1030,4 hPa 0,0 l/m 8,0 km/h (2 Bft) NW 307 1 min 0,000 mm 156 W/m 2,4 C 8,1 C 16,1 km/h (3 Bft) 100,00 %
11.01.2012 12:49 9,3 C 62 % 1030,4 hPa 0,0 l/m 11,6 km/h (2 Bft) N-NW 346 1 min 0,000 mm 158 W/m 2,4 C 5,9 C 16,1 km/h (3 Bft) 100,00 %
11.01.2012 12:50 9,2 C 62 % 1030,4 hPa 0,0 l/m 8,9 km/h (2 Bft) NW 317 1 min 0,000 mm 165 W/m 2,3 C 7,4 C 16,1 km/h (3 Bft) 100,00 %
11.01.2012 12:51 9,2 C 62 % 1030,3 hPa 0,0 l/m 11,3 km/h (2 Bft) W-NW 286 1 min 0,000 mm 174 W/m 2,3 C 6,0 C 17,7 km/h (3 Bft) 100,00 %
11.01.2012 12:52 9,2 C 62 % 1030,3 hPa 0,0 l/m 9,4 km/h (2 Bft) NW 307 1 min 0,000 mm 179 W/m 2,3 C 7,1 C 16,1 km/h (3 Bft) 100,00 %
11.01.2012 12:53 9,2 C 62 % 1030,4 hPa 0,0 l/m 7,8 km/h (2 Bft) W 267 1 min 0,000 mm 169 W/m 2,3 C 8,2 C 11,3 km/h (2 Bft) 100,00 %
11.01.2012 12:54 9,1 C 62 % 1030,4 hPa 0,0 l/m 9,7 km/h (2 Bft) NW 326 1 min 0,000 mm 153 W/m 2,2 C 6,8 C 14,5 km/h (3 Bft) 100,00 %
11.01.2012 12:55 9,1 C 62 % 1030,3 hPa 0,0 l/m 11,2 km/h (2 Bft) NW 308 0 min 0,000 mm 142 W/m 2,2 C 5,9 C 16,1 km/h (3 Bft) 100,00 %
11.01.2012 12:56 9,1 C 62 % 1030,3 hPa 0,0 l/m 10,1 km/h (2 Bft) NW 321 0 min 0,000 mm 139 W/m 2,2 C 6,5 C 17,7 km/h (3 Bft) 100,00 %
11.01.2012 12:57 9,1 C 62 % 1030,3 hPa 0,0 l/m 11,9 km/h (2 Bft) NW 306 0 min 0,000 mm 137 W/m 2,2 C 5,5 C 16,1 km/h (3 Bft) 100,00 %
11.01.2012 12:58 9,1 C 63 % 1030,3 hPa 0,0 l/m 8,4 km/h (2 Bft) NW 310 0 min 0,000 mm 134 W/m 2,4 C 7,6 C 11,3 km/h (2 Bft) 100,00 %
11.01.2012 12:59 9,1 C 63 % 1030,3 hPa 0,0 l/m 6,7 km/h (2 Bft) NW 323 0 min 0,000 mm 128 W/m 2,4 C 8,9 C 11,3 km/h (2 Bft) 100,00 %
11.01.2012 13:00 9,1 C 63 % 1030,3 hPa 0,0 l/m 8,3 km/h (2 Bft) NW 311 0 min 0,000 mm 121 W/m 2,4 C 7,7 C 12,9 km/h (3 Bft) 100,00 %
11.01.2012 13:01 9,1 C 63 % 1030,3 hPa 0,0 l/m 7,1 km/h (2 Bft) W 265 0 min 0,126 mm 128 W/m 2,4 C 8,6 C 14,5 km/h (3 Bft) 100,00 %
11.01.2012 13:02 9,1 C 63 % 1030,2 hPa 0,0 l/m 6,4 km/h (2 Bft) NW 314 0 min 0,000 mm 113 W/m 2,4 C 9,1 C 16,1 km/h (3 Bft) 100,00 %
11.01.2012 13:03 9,1 C 63 % 1030,3 hPa 0,0 l/m 6,6 km/h (2 Bft) NW 313 0 min 0,000 mm 113 W/m 2,4 C 9,0 C 16,1 km/h (3 Bft) 100,00 %
11.01.2012 13:04 9,1 C 63 % 1030,3 hPa 0,0 l/m 8,2 km/h (2 Bft) NW 315 0 min 0,000 mm 114 W/m 2,4 C 7,8 C 14,5 km/h (3 Bft) 100,00 %
11.01.2012 13:05 9,1 C 63 % 1030,3 hPa 0,0 l/m 12,9 km/h (3 Bft) NW 323 1 min 0,000 mm 214 W/m 2,4 C 5,0 C 24,1 km/h (4 Bft) 100,00 %
11.01.2012 13:06 9,1 C 62 % 1030,2 hPa 0,0 l/m 13,0 km/h (3 Bft) W-NW 294 1 min 0,000 mm 346 W/m 2,2 C 5,0 C 27,4 km/h (4 Bft) 100,00 %
11.01.2012 13:07 9,1 C 63 % 1030,2 hPa 0,0 l/m 8,5 km/h (2 Bft) NW 311 1 min 0,000 mm 352 W/m 2,4 C 7,6 C 17,7 km/h (3 Bft) 100,00 %
11.01.2012 13:08 9,2 C 63 % 1030,3 hPa 0,0 l/m 17,7 km/h (3 Bft) NW 319 1 min 0,000 mm 359 W/m 2,5 C 3,1 C 22,5 km/h (4 Bft) 100,00 %
11.01.2012 13:09 9,2 C 62 % 1030,3 hPa 0,0 l/m 20,9 km/h (4 Bft) NW 322 1 min 0,000 mm 359 W/m 2,3 C 2,0 C 24,1 km/h (4 Bft) 100,00 %
11.01.2012 13:10 9,2 C 62 % 1030,3 hPa 0,0 l/m 13,0 km/h (3 Bft) NW 306 0 min 0,000 mm 142 W/m 2,3 C 5,1 C 19,3 km/h (3 Bft) 95,83 %
11.01.2012 13:11 9,2 C 62 % 1030,2 hPa 0,0 l/m 12,8 km/h (3 Bft) NW 310 1 min 0,000 mm 163 W/m 2,3 C 5,2 C 20,9 km/h (4 Bft) 95,83 %
11.01.2012 13:12 9,2 C 62 % 1030,3 hPa 0,0 l/m 15,5 km/h (3 Bft) NW 307 1 min 0,000 mm 339 W/m 2,3 C 4,0 C 19,3 km/h (3 Bft) 100,00 %
11.01.2012 13:13 9,2 C 62 % 1030,3 hPa 0,0 l/m 16,4 km/h (3 Bft) NW 305 1 min 0,000 mm 339 W/m 2,3 C 3,6 C 25,7 km/h (4 Bft) 100,00 %
11.01.2012 13:14 9,2 C 62 % 1030,3 hPa 0,0 l/m 17,3 km/h (3 Bft) N-NW 346 1 min 0,000 mm 207 W/m 2,3 C 3,2 C 24,1 km/h (4 Bft) 100,00 %
11.01.2012 13:15 9,2 C 62 % 1030,3 hPa 0,0 l/m 19,1 km/h (3 Bft) NW 323 1 min 0,000 mm 186 W/m 2,3 C 2,6 C 27,4 km/h (4 Bft) 100,00 %
11.01.2012 13:16 9,2 C 62 % 1030,3 hPa 0,0 l/m 15,3 km/h (3 Bft) NW 321 1 min 0,000 mm 186 W/m 2,3 C 4,0 C 20,9 km/h (4 Bft) 100,00 %
11.01.2012 13:17 9,2 C 62 % 1030,3 hPa 0,0 l/m 18,2 km/h (3 Bft) W-NW 291 1 min 0,000 mm 281 W/m 2,3 C 2,9 C 22,5 km/h (4 Bft) 100,00 %
11.01.2012 13:18 9,3 C 62 % 1030,3 hPa 0,0 l/m 20,4 km/h (4 Bft) W 260 1 min 0,000 mm 236 W/m 2,4 C 2,2 C 25,7 km/h (4 Bft) 100,00 %
11.01.2012 13:19 9,2 C 62 % 1030,2 hPa 0,0 l/m 18,9 km/h (3 Bft) W-SW 257 1 min 0,000 mm 308 W/m 2,3 C 2,6 C 27,4 km/h (4 Bft) 100,00 %
11.01.2012 13:20 9,3 C 62 % 1030,2 hPa 0,0 l/m 14,3 km/h (3 Bft) W-NW 290 1 min 0,000 mm 387 W/m 2,4 C 4,6 C 20,9 km/h (4 Bft) 100,00 %
11.01.2012 13:21 9,3 C 62 % 1030,2 hPa 0,0 l/m 20,1 km/h (4 Bft) NW 311 1 min 0,000 mm 380 W/m 2,4 C 2,3 C 27,4 km/h (4 Bft) 100,00 %
11.01.2012 13:22 9,3 C 62 % 1030,2 hPa 0,0 l/m 10,6 km/h (2 Bft) NW 322 1 min 0,000 mm 371 W/m 2,4 C 6,5 C 19,3 km/h (3 Bft) 100,00 %
11.01.2012 13:23 9,4 C 62 % 1030,2 hPa 0,0 l/m 12,5 km/h (3 Bft) NW 316 1 min 0,000 mm 388 W/m 2,5 C 5,6 C 17,7 km/h (3 Bft) 100,00 %
11.01.2012 13:24 9,4 C 62 % 1030,2 hPa 0,0 l/m 18,7 km/h (3 Bft) W-NW 291 1 min 0,000 mm 373 W/m 2,5 C 3,0 C 24,1 km/h (4 Bft) 100,00 %
11.01.2012 13:25 9,5 C 61 % 1030,1 hPa 0,0 l/m 15,1 km/h (3 Bft) N-NW 336 1 min 0,000 mm 364 W/m 2,4 C 4,5 C 22,5 km/h (4 Bft) 100,00 %
11.01.2012 13:26 9,6 C 61 % 1030,1 hPa 0,0 l/m 9,7 km/h (2 Bft) NW 316 1 min 0,000 mm 364 W/m 2,5 C 7,3 C 17,7 km/h (3 Bft) 100,00 %
11.01.2012 13:27 9,6 C 61 % 1030,1 hPa 0,0 l/m 11,7 km/h (2 Bft) NW 310 1 min 0,000 mm 181 W/m 2,5 C 6,2 C 20,9 km/h (4 Bft) 100,00 %
11.01.2012 13:28 9,6 C 61 % 1030,1 hPa 0,0 l/m 17,8 km/h (3 Bft) W-NW 292 1 min 0,000 mm 197 W/m 2,5 C 3,5 C 27,4 km/h (4 Bft) 100,00 %
11.01.2012 13:29 9,5 C 61 % 1030,1 hPa 0,0 l/m 22,4 km/h (4 Bft) W-NW 291 1 min 0,000 mm 211 W/m 2,4 C 1,9 C 30,6 km/h (5 Bft) 100,00 %
11.01.2012 13:30 9,4 C 61 % 1030,1 hPa 0,0 l/m 16,2 km/h (3 Bft) NW 323 1 min 0,000 mm 209 W/m 2,3 C 3,9 C 27,4 km/h (4 Bft) 100,00 %
11.01.2012 13:31 9,4 C 61 % 1030,1 hPa 0,0 l/m 16,1 km/h (3 Bft) NW 310 1 min 0,000 mm 162 W/m 2,3 C 3,9 C 22,5 km/h (4 Bft) 100,00 %
11.01.2012 13:32 9,3 C 61 % 1030,1 hPa 0,0 l/m 18,0 km/h (3 Bft) NW 315 1 min 0,000 mm 186 W/m 2,2 C 3,1 C 27,4 km/h (4 Bft) 100,00 %
11.01.2012 13:33 9,3 C 62 % 1030,0 hPa 0,0 l/m 21,7 km/h (4 Bft) W-NW 284 0 min 0,000 mm 148 W/m 2,4 C 1,8 C 30,6 km/h (5 Bft) 100,00 %
11.01.2012 13:34 9,2 C 62 % 1030,0 hPa 0,0 l/m 13,0 km/h (3 Bft) W-NW 289 0 min 0,000 mm 146 W/m 2,3 C 5,1 C 20,9 km/h (4 Bft) 100,00 %
11.01.2012 13:35 9,2 C 62 % 1030,0 hPa 0,0 l/m 22,5 km/h (4 Bft) W 279 0 min 0,000 mm 141 W/m 2,3 C 1,5 C 33,8 km/h (5 Bft) 100,00 %
11.01.2012 13:36 9,2 C 62 % 1030,0 hPa 0,0 l/m 18,4 km/h (3 Bft) NW 310 0 min 0,000 mm 141 W/m 2,3 C 2,8 C 29,0 km/h (5 Bft) 100,00 %
11.01.2012 13:37 9,1 C 62 % 1030,0 hPa 0,0 l/m 20,4 km/h (4 Bft) NW 319 0 min 0,000 mm 141 W/m 2,2 C 2,0 C 25,7 km/h (4 Bft) 95,83 %
11.01.2012 13:38 9,1 C 63 % 1030,0 hPa 0,0 l/m 18,3 km/h (3 Bft) NW 313 0 min 0,000 mm 142 W/m 2,4 C 2,7 C 25,7 km/h (4 Bft) 100,00 %
11.01.2012 13:39 9,1 C 62 % 1030,0 hPa 0,0 l/m 25,0 km/h (4 Bft) NW 304 0 min 0,000 mm 141 W/m 2,2 C 0,6 C 33,8 km/h (5 Bft) 100,00 %
11.01.2012 13:40 9,1 C 62 % 1030,0 hPa 0,0 l/m 19,8 km/h (3 Bft) NW 312 0 min 0,000 mm 139 W/m 2,2 C 2,2 C 29,0 km/h (5 Bft) 100,00 %
11.01.2012 13:41 9,0 C 62 % 1030,0 hPa 0,0 l/m 17,2 km/h (3 Bft) W-NW 290 0 min 0,000 mm 141 W/m 2,1 C 3,0 C 25,7 km/h (4 Bft) 100,00 %
11.01.2012 13:42 9,0 C 63 % 1030,0 hPa 0,0 l/m 15,5 km/h (3 Bft) NW 311 0 min 0,000 mm 144 W/m 2,3 C 3,7 C 25,7 km/h (4 Bft) 100,00 %
11.01.2012 13:43 9,0 C 63 % 1030,0 hPa 0,0 l/m 14,6 km/h (3 Bft) W-NW 303 0 min 0,000 mm 148 W/m 2,3 C 4,1 C 25,7 km/h (4 Bft) 100,00 %
11.01.2012 13:44 9,0 C 63 % 1030,0 hPa 0,0 l/m 19,2 km/h (3 Bft) NW 326 0 min 0,000 mm 149 W/m 2,3 C 2,3 C 27,4 km/h (4 Bft) 100,00 %
11.01.2012 13:45 9,0 C 63 % 1030,0 hPa 0,0 l/m 18,0 km/h (3 Bft) W 278 0 min 0,000 mm 148 W/m 2,3 C 2,7 C 24,1 km/h (4 Bft) 100,00 %
11.01.2012 13:46 8,9 C 63 % 1030,0 hPa 0,0 l/m 23,1 km/h (4 Bft) W-NW 283 0 min 0,000 mm 144 W/m 2,2 C 0,9 C 35,4 km/h (5 Bft) 96,67 %
11.01.2012 13:47 8,9 C 63 % 1030,0 hPa 0,0 l/m 14,8 km/h (3 Bft) NW 319 0 min 0,000 mm 134 W/m 2,2 C 3,9 C 20,9 km/h (4 Bft) 100,00 %
11.01.2012 13:48 8,9 C 64 % 1030,0 hPa 0,0 l/m 19,0 km/h (3 Bft) NW 305 0 min 0,000 mm 130 W/m 2,5 C 2,2 C 33,8 km/h (5 Bft) 100,00 %
11.01.2012 13:49 8,9 C 64 % 1030,0 hPa 0,0 l/m 18,6 km/h (3 Bft) NW 311 0 min 0,000 mm 125 W/m 2,5 C 2,4 C 29,0 km/h (5 Bft) 100,00 %
11.01.2012 13:50 8,9 C 64 % 1030,0 hPa 0,0 l/m 20,8 km/h (4 Bft) NW 325 0 min 0,000 mm 121 W/m 2,5 C 1,6 C 27,4 km/h (4 Bft) 100,00 %
11.01.2012 13:51 8,9 C 64 % 1030,0 hPa 0,0 l/m 16,4 km/h (3 Bft) W-NW 292 0 min 0,000 mm 116 W/m 2,5 C 3,2 C 22,5 km/h (4 Bft) 100,00 %
11.01.2012 13:52 8,9 C 65 % 1030,0 hPa 0,0 l/m 12,2 km/h (2 Bft) NW 304 0 min 0,000 mm 113 W/m 2,7 C 5,1 C 19,3 km/h (3 Bft) 100,00 %
11.01.2012 13:53 8,9 C 65 % 1030,0 hPa 0,0 l/m 10,8 km/h (2 Bft) NW 313 0 min 0,000 mm 109 W/m 2,7 C 5,9 C 17,7 km/h (3 Bft) 100,00 %
11.01.2012 13:54 8,9 C 65 % 1030,0 hPa 0,0 l/m 14,4 km/h (3 Bft) W-NW 292 0 min 0,000 mm 107 W/m 2,7 C 4,1 C 32,2 km/h (5 Bft) 100,00 %
11.01.2012 13:55 8,9 C 65 % 1029,9 hPa 0,0 l/m 23,6 km/h (4 Bft) NW 310 0 min 0,000 mm 107 W/m 2,7 C 0,7 C 29,0 km/h (5 Bft) 100,00 %
11.01.2012 13:56 8,9 C 64 % 1030,0 hPa 0,0 l/m 24,6 km/h (4 Bft) NW 311 0 min 0,000 mm 109 W/m 2,5 C 0,5 C 35,4 km/h (5 Bft) 100,00 %
11.01.2012 13:57 8,9 C 64 % 1029,9 hPa 0,0 l/m 17,6 km/h (3 Bft) NW 313 0 min 0,000 mm 111 W/m 2,5 C 2,7 C 30,6 km/h (5 Bft) 100,00 %
11.01.2012 13:58 8,9 C 64 % 1029,9 hPa 0,0 l/m 19,3 km/h (3 Bft) NW 307 0 min 0,000 mm 116 W/m 2,5 C 2,1 C 29,0 km/h (5 Bft) 100,00 %
11.01.2012 13:59 8,9 C 64 % 1029,9 hPa 0,0 l/m 18,6 km/h (3 Bft) W-NW 298 0 min 0,000 mm 134 W/m 2,5 C 2,4 C 30,6 km/h (5 Bft) 100,00 %
11.01.2012 14:00 8,9 C 63 % 1029,9 hPa 0,0 l/m 18,7 km/h (3 Bft) NW 311 1 min 0,000 mm 181 W/m 2,2 C 2,3 C 29,0 km/h (5 Bft) 100,00 %
11.01.2012 14:01 8,9 C 63 % 1029,8 hPa 0,0 l/m 17,7 km/h (3 Bft) W-NW 290 1 min 0,152 mm 190 W/m 2,2 C 2,7 C 29,0 km/h (5 Bft) 100,00 %
11.01.2012 14:02 8,9 C 63 % 1029,9 hPa 0,0 l/m 20,9 km/h (4 Bft) NW 307 1 min 0,000 mm 179 W/m 2,2 C 1,6 C 32,2 km/h (5 Bft) 100,00 %
11.01.2012 14:03 9,0 C 63 % 1029,9 hPa 0,0 l/m 21,0 km/h (4 Bft) W-NW 296 0 min 0,000 mm 134 W/m 2,3 C 1,7 C 32,2 km/h (5 Bft) 100,00 %
11.01.2012 14:04 9,0 C 63 % 1029,9 hPa 0,0 l/m 12,8 km/h (3 Bft) W-NW 301 1 min 0,000 mm 192 W/m 2,3 C 5,0 C 25,7 km/h (4 Bft) 100,00 %
11.01.2012 14:05 9,1 C 63 % 1029,9 hPa 0,0 l/m 24,1 km/h (4 Bft) W-NW 293 1 min 0,000 mm 211 W/m 2,4 C 0,9 C 33,8 km/h (5 Bft) 100,00 %
11.01.2012 14:06 9,1 C 63 % 1029,8 hPa 0,0 l/m 25,5 km/h (4 Bft) SW 231 1 min 0,000 mm 211 W/m 2,4 C 0,5 C 35,4 km/h (5 Bft) 100,00 %
11.01.2012 14:07 9,1 C 63 % 1029,9 hPa 0,0 l/m 18,1 km/h (3 Bft) W-NW 288 0 min 0,000 mm 125 W/m 2,4 C 2,8 C 29,0 km/h (5 Bft) 100,00 %
11.01.2012 14:08 9,1 C 63 % 1029,9 hPa 0,0 l/m 11,5 km/h (2 Bft) W 280 0 min 0,000 mm 142 W/m 2,4 C 5,7 C 19,3 km/h (3 Bft) 95,83 %
11.01.2012 14:09 9,1 C 63 % 1029,9 hPa 0,0 l/m 8,0 km/h (2 Bft) W-NW 292 0 min 0,000 mm 121 W/m 2,4 C 7,9 C 14,5 km/h (3 Bft) 100,00 %
11.01.2012 14:10 9,1 C 64 % 1029,8 hPa 0,0 l/m 11,0 km/h (2 Bft) W-NW 299 1 min 0,000 mm 156 W/m 2,7 C 6,0 C 16,1 km/h (3 Bft) 100,00 %
11.01.2012 14:11 9,1 C 64 % 1029,9 hPa 0,0 l/m 17,7 km/h (3 Bft) W-NW 292 0 min 0,000 mm 105 W/m 2,7 C 2,9 C 33,8 km/h (5 Bft) 100,00 %
11.01.2012 14:12 9,1 C 63 % 1029,8 hPa 0,0 l/m 20,4 km/h (4 Bft) NW 319 0 min 0,000 mm 81 W/m 2,4 C 2,0 C 30,6 km/h (5 Bft) 100,00 %
11.01.2012 14:13 9,1 C 63 % 1029,9 hPa 0,0 l/m 20,1 km/h (4 Bft) NW 314 0 min 0,000 mm 107 W/m 2,4 C 2,1 C 30,6 km/h (5 Bft) 100,00 %
11.01.2012 14:14 9,0 C 63 % 1029,8 hPa 0,0 l/m 20,4 km/h (4 Bft) NW 304 0 min 0,000 mm 116 W/m 2,3 C 1,9 C 27,4 km/h (4 Bft) 100,00 %
11.01.2012 14:15 8,9 C 63 % 1029,7 hPa 0,0 l/m 19,2 km/h (3 Bft) W 272 0 min 0,000 mm 120 W/m 2,2 C 2,1 C 27,4 km/h (4 Bft) 100,00 %
11.01.2012 14:16 8,9 C 63 % 1029,7 hPa 0,0 l/m 17,8 km/h (3 Bft) W-NW 303 0 min 0,000 mm 65 W/m 2,2 C 2,7 C 30,6 km/h (5 Bft) 100,00 %
11.01.2012 14:17 8,9 C 63 % 1029,7 hPa 0,0 l/m 21,9 km/h (4 Bft) NW 308 0 min 0,000 mm 88 W/m 2,2 C 1,2 C 40,2 km/h (6 Bft) 100,00 %
11.01.2012 14:18 8,9 C 63 % 1029,7 hPa 0,0 l/m 21,1 km/h (4 Bft) N-NW 333 0 min 0,000 mm 111 W/m 2,2 C 1,5 C 33,8 km/h (5 Bft) 100,00 %
11.01.2012 14:19 8,9 C 63 % 1029,7 hPa 0,0 l/m 25,7 km/h (4 Bft) NW 304 0 min 0,000 mm 51 W/m 2,2 C 0,2 C 41,8 km/h (6 Bft) 100,00 %
11.01.2012 14:20 8,9 C 63 % 1029,7 hPa 0,0 l/m 23,5 km/h (4 Bft) W-NW 303 0 min 0,000 mm 51 W/m 2,2 C 0,8 C 33,8 km/h (5 Bft) 100,00 %
11.01.2012 14:21 8,8 C 64 % 1029,7 hPa 0,0 l/m 20,6 km/h (4 Bft) W-NW 294 0 min 0,000 mm 104 W/m 2,4 C 1,5 C 35,4 km/h (5 Bft) 100,00 %
11.01.2012 14:22 8,8 C 63 % 1029,7 hPa 0,0 l/m 21,8 km/h (4 Bft) W-NW 289 0 min 0,000 mm 62 W/m 2,2 C 1,1 C 30,6 km/h (5 Bft) 100,00 %
11.01.2012 14:23 8,8 C 63 % 1029,7 hPa 0,0 l/m 24,1 km/h (4 Bft) NW 304 0 min 0,000 mm 56 W/m 2,2 C 0,5 C 33,8 km/h (5 Bft) 100,00 %
11.01.2012 14:24 8,8 C 64 % 1029,7 hPa 0,0 l/m 21,3 km/h (4 Bft) W-NW 292 0 min 0,000 mm 97 W/m 2,4 C 1,3 C 29,0 km/h (5 Bft) 100,00 %
11.01.2012 14:25 8,8 C 64 % 1029,7 hPa 0,0 l/m 18,0 km/h (3 Bft) W-NW 300 0 min 0,000 mm 116 W/m 2,4 C 2,5 C 27,4 km/h (4 Bft) 95,83 %
11.01.2012 14:26 8,8 C 64 % 1029,7 hPa 0,0 l/m 24,5 km/h (4 Bft) W 261 0 min 0,000 mm 111 W/m 2,4 C 0,3 C 40,2 km/h (6 Bft) 100,00 %
11.01.2012 14:27 8,8 C 63 % 1029,7 hPa 0,0 l/m 29,9 km/h (5 Bft) W-NW 300 0 min 0,000 mm 98 W/m 2,2 C -1,0 C 40,2 km/h (6 Bft) 100,00 %
11.01.2012 14:28 8,8 C 63 % 1029,7 hPa 0,0 l/m 21,8 km/h (4 Bft) W-NW 286 0 min 0,000 mm 90 W/m 2,2 C 1,1 C 32,2 km/h (5 Bft) 100,00 %
11.01.2012 14:29 8,8 C 63 % 1029,7 hPa 0,0 l/m 25,3 km/h (4 Bft) NW 304 0 min 0,000 mm 102 W/m 2,2 C 0,1 C 35,4 km/h (5 Bft) 100,00 %
11.01.2012 14:30 8,8 C 63 % 1029,7 hPa 0,0 l/m 24,2 km/h (4 Bft) N-NW 327 0 min 0,000 mm 88 W/m 2,2 C 0,4 C 40,2 km/h (6 Bft) 100,00 %
11.01.2012 14:31 8,8 C 63 % 1029,8 hPa 0,0 l/m 34,8 km/h (5 Bft) W-NW 296 0 min 0,000 mm 127 W/m 2,2 C -2,0 C 40,2 km/h (6 Bft) 100,00 %
11.01.2012 14:32 8,8 C 63 % 1029,7 hPa 0,0 l/m 27,7 km/h (4 Bft) W-NW 296 0 min 0,000 mm 69 W/m 2,2 C -0,5 C 37,0 km/h (5 Bft) 100,00 %
11.01.2012 14:33 8,8 C 63 % 1029,8 hPa 0,0 l/m 16,8 km/h (3 Bft) W 271 0 min 0,000 mm 113 W/m 2,2 C 2,9 C 32,2 km/h (5 Bft) 100,00 %
11.01.2012 14:34 8,8 C 63 % 1029,7 hPa 0,0 l/m 10,5 km/h (2 Bft) W-NW 300 0 min 0,000 mm 105 W/m 2,2 C 6,0 C 17,7 km/h (3 Bft) 100,00 %
11.01.2012 14:35 8,8 C 64 % 1029,8 hPa 0,0 l/m 20,3 km/h (4 Bft) W-NW 299 0 min 0,000 mm 91 W/m 2,4 C 1,6 C 32,2 km/h (5 Bft) 100,00 %
11.01.2012 14:36 8,9 C 63 % 1029,8 hPa 0,0 l/m 28,7 km/h (4 Bft) W-NW 288 0 min 0,000 mm 88 W/m 2,2 C -0,6 C 40,2 km/h (6 Bft) 100,00 %
11.01.2012 14:37 8,9 C 63 % 1029,7 hPa 0,0 l/m 20,8 km/h (4 Bft) NW 307 0 min 0,000 mm 76 W/m 2,2 C 1,6 C 35,4 km/h (5 Bft) 100,00 %
11.01.2012 14:38 8,9 C 62 % 1029,7 hPa 0,0 l/m 21,8 km/h (4 Bft) NW 319 0 min 0,000 mm 70 W/m 2,0 C 1,3 C 33,8 km/h (5 Bft) 100,00 %
11.01.2012 14:39 8,8 C 62 % 1029,8 hPa 0,0 l/m 33,8 km/h (5 Bft) W-NW 298 0 min 0,000 mm 77 W/m 1,9 C -1,8 C 43,5 km/h (6 Bft) 100,00 %
11.01.2012 14:40 8,8 C 62 % 1029,7 hPa 0,0 l/m 19,5 km/h (3 Bft) W 269 0 min 0,000 mm 77 W/m 1,9 C 1,9 C 30,6 km/h (5 Bft) 100,00 %
11.01.2012 14:41 8,8 C 62 % 1029,7 hPa 0,0 l/m 20,6 km/h (4 Bft) W-NW 288 0 min 0,000 mm 83 W/m 1,9 C 1,5 C 37,0 km/h (5 Bft) 100,00 %
11.01.2012 14:42 8,8 C 62 % 1029,6 hPa 0,0 l/m 35,2 km/h (5 Bft) W 281 0 min 0,000 mm 90 W/m 1,9 C -2,1 C 45,1 km/h (6 Bft) 96,30 %
11.01.2012 14:43 8,8 C 62 % 1029,7 hPa 0,0 l/m 30,6 km/h (5 Bft) W 271 0 min 0,000 mm 83 W/m 1,9 C -1,2 C 38,6 km/h (5 Bft) 100,00 %
11.01.2012 14:44 8,8 C 62 % 1029,7 hPa 0,0 l/m 28,9 km/h (5 Bft) NW 306 0 min 0,000 mm 97 W/m 1,9 C -0,8 C 37,0 km/h (5 Bft) 100,00 %
11.01.2012 14:45 8,8 C 62 % 1029,8 hPa 0,0 l/m 22,0 km/h (4 Bft) W 279 0 min 0,000 mm 100 W/m 1,9 C 1,1 C 37,0 km/h (5 Bft) 100,00 %
11.01.2012 14:46 8,7 C 63 % 1029,7 hPa 0,0 l/m 19,5 km/h (3 Bft) W-NW 301 0 min 0,000 mm 98 W/m 2,1 C 1,8 C 27,4 km/h (4 Bft) 100,00 %
11.01.2012 14:47 8,7 C 63 % 1029,8 hPa 0,0 l/m 23,5 km/h (4 Bft) W 270 0 min 0,000 mm 100 W/m 2,1 C 0,5 C 30,6 km/h (5 Bft) 100,00 %
11.01.2012 14:48 8,7 C 63 % 1029,7 hPa 0,0 l/m 17,9 km/h (3 Bft) N-NW 329 0 min 0,000 mm 98 W/m 2,1 C 2,4 C 25,7 km/h (4 Bft) 100,00 %
11.01.2012 14:49 8,7 C 63 % 1029,8 hPa 0,0 l/m 33,4 km/h (5 Bft) W-SW 237 0 min 0,000 mm 86 W/m 2,1 C -1,9 C 43,5 km/h (6 Bft) 100,00 %
11.01.2012 14:50 8,7 C 63 % 1029,7 hPa 0,0 l/m 23,1 km/h (4 Bft) W-NW 302 0 min 0,000 mm 86 W/m 2,1 C 0,6 C 35,4 km/h (5 Bft) 92,31 %
11.01.2012 14:51 8,7 C 63 % 1029,7 hPa 0,0 l/m 27,0 km/h (4 Bft) W-NW 291 0 min 0,000 mm 81 W/m 2,1 C -0,5 C 41,8 km/h (6 Bft) 100,00 %
11.01.2012 14:52 8,7 C 63 % 1029,7 hPa 0,0 l/m 28,1 km/h (4 Bft) W-NW 288 0 min 0,000 mm 63 W/m 2,1 C -0,7 C 40,2 km/h (6 Bft) 100,00 %
11.01.2012 14:53 8,6 C 63 % 1029,6 hPa 0,0 l/m 23,4 km/h (4 Bft) W-NW 294 0 min 0,000 mm 72 W/m 2,0 C 0,4 C 38,6 km/h (5 Bft) 100,00 %
11.01.2012 14:54 8,6 C 63 % 1029,6 hPa 0,0 l/m 29,9 km/h (5 Bft) NW 306 0 min 0,000 mm 91 W/m 2,0 C -1,3 C 45,1 km/h (6 Bft) 100,00 %
11.01.2012 14:55 8,6 C 63 % 1029,7 hPa 0,0 l/m 34,2 km/h (5 Bft) NW 310 0 min 0,000 mm 93 W/m 2,0 C -2,2 C 45,1 km/h (6 Bft) 100,00 %
11.01.2012 14:56 8,6 C 63 % 1029,6 hPa 0,0 l/m 25,7 km/h (4 Bft) NW 315 0 min 0,000 mm 93 W/m 2,0 C -0,3 C 38,6 km/h (5 Bft) 100,00 %
11.01.2012 14:57 8,6 C 63 % 1029,7 hPa 0,0 l/m 28,0 km/h (4 Bft) W-NW 300 0 min 0,000 mm 81 W/m 2,0 C -0,8 C 48,3 km/h (6 Bft) 100,00 %
11.01.2012 14:58 8,6 C 63 % 1029,6 hPa 0,0 l/m 29,0 km/h (5 Bft) W-NW 298 0 min 0,000 mm 72 W/m 2,0 C -1,1 C 48,3 km/h (6 Bft) 100,00 %
11.01.2012 14:59 8,6 C 62 % 1029,6 hPa 0,0 l/m 31,5 km/h (5 Bft) W-NW 295 0 min 0,000 mm 63 W/m 1,7 C -1,6 C 46,7 km/h (6 Bft) 100,00 %
11.01.2012 15:00 8,6 C 62 % 1029,6 hPa 0,0 l/m 31,1 km/h (5 Bft) W 273 0 min 0,000 mm 58 W/m 1,7 C -1,6 C 41,8 km/h (6 Bft) 100,00 %
11.01.2012 15:01 8,6 C 62 % 1029,5 hPa 0,0 l/m 29,3 km/h (5 Bft) NW 304 0 min 0,127 mm 56 W/m 1,7 C -1,2 C 37,0 km/h (5 Bft) 95,65 %
11.01.2012 15:02 8,6 C 62 % 1029,6 hPa 0,0 l/m 30,6 km/h (5 Bft) W 280 0 min 0,000 mm 53 W/m 1,7 C -1,4 C 40,2 km/h (6 Bft) 95,65 %
11.01.2012 15:03 8,6 C 63 % 1029,7 hPa 0,0 l/m 25,4 km/h (4 Bft) W-NW 302 0 min 0,000 mm 47 W/m 2,0 C -0,2 C 40,2 km/h (6 Bft) 100,00 %
11.01.2012 15:04 8,6 C 63 % 1029,7 hPa 0,0 l/m 27,6 km/h (4 Bft) W-NW 284 0 min 0,000 mm 54 W/m 2,0 C -0,7 C 35,4 km/h (5 Bft) 100,00 %
11.01.2012 15:05 8,6 C 63 % 1029,7 hPa 0,0 l/m 23,2 km/h (4 Bft) W-NW 286 0 min 0,000 mm 65 W/m 2,0 C 0,5 C 30,6 km/h (5 Bft) 100,00 %
11.01.2012 15:06 8,5 C 63 % 1029,6 hPa 0,0 l/m 27,9 km/h (4 Bft) W-SW 249 0 min 0,000 mm 56 W/m 1,9 C -1,0 C 43,5 km/h (6 Bft) 100,00 %
11.01.2012 15:07 8,5 C 63 % 1029,7 hPa 0,0 l/m 23,5 km/h (4 Bft) NW 315 0 min 0,000 mm 46 W/m 1,9 C 0,2 C 30,6 km/h (5 Bft) 100,00 %
11.01.2012 15:08 8,5 C 63 % 1029,7 hPa 0,0 l/m 18,0 km/h (3 Bft) W 267 0 min 0,000 mm 47 W/m 1,9 C 2,1 C 29,0 km/h (5 Bft) 100,00 %
11.01.2012 15:09 8,5 C 63 % 1029,7 hPa 0,0 l/m 30,2 km/h (5 Bft) W 279 0 min 0,000 mm 39 W/m 1,9 C -1,5 C 45,1 km/h (6 Bft) 100,00 %
11.01.2012 15:10 8,5 C 63 % 1029,7 hPa 0,0 l/m 35,8 km/h (5 Bft) NW 304 0 min 0,000 mm 39 W/m 1,9 C -2,6 C 49,9 km/h (6 Bft) 100,00 %
11.01.2012 15:11 8,4 C 63 % 1029,6 hPa 0,0 l/m 32,6 km/h (5 Bft) W 281 0 min 0,000 mm 40 W/m 1,8 C -2,2 C 41,8 km/h (6 Bft) 100,00 %
11.01.2012 15:12 8,5 C 62 % 1029,7 hPa 0,0 l/m 26,4 km/h (4 Bft) W-NW 284 0 min 0,000 mm 35 W/m 1,6 C -0,6 C 37,0 km/h (5 Bft) 100,00 %
11.01.2012 15:13 8,5 C 62 % 1029,7 hPa 0,0 l/m 27,8 km/h (4 Bft) W-NW 296 0 min 0,000 mm 32 W/m 1,6 C -0,9 C 41,8 km/h (6 Bft) 100,00 %
11.01.2012 15:14 8,5 C 63 % 1029,6 hPa 0,0 l/m 25,3 km/h (4 Bft) W 275 0 min 0,000 mm 30 W/m 1,9 C -0,3 C 35,4 km/h (5 Bft) 100,00 %
11.01.2012 15:15 8,4 C 62 % 1029,8 hPa 0,0 l/m 29,0 km/h (5 Bft) W 261 0 min 0,000 mm 30 W/m 1,6 C -1,4 C 35,4 km/h (5 Bft) 100,00 %
11.01.2012 15:16 8,4 C 62 % 1029,8 hPa 0,0 l/m 28,9 km/h (5 Bft) W-NW 282 0 min 0,000 mm 30 W/m 1,6 C -1,3 C 43,5 km/h (6 Bft) 100,00 %
11.01.2012 15:17 8,4 C 62 % 1029,7 hPa 0,0 l/m 31,8 km/h (5 Bft) NW 308 0 min 0,000 mm 30 W/m 1,6 C -2,0 C 38,6 km/h (5 Bft) 100,00 %
11.01.2012 15:18 8,4 C 62 % 1029,8 hPa 0,0 l/m 33,0 km/h (5 Bft) W-NW 298 0 min 0,000 mm 32 W/m 1,6 C -2,2 C 46,7 km/h (6 Bft) 100,00 %
11.01.2012 15:19 8,4 C 62 % 1029,8 hPa 0,0 l/m 24,2 km/h (4 Bft) NW 311 0 min 0,000 mm 32 W/m 1,6 C -0,1 C 33,8 km/h (5 Bft) 100,00 %
11.01.2012 15:20 8,4 C 62 % 1029,8 hPa 0,0 l/m 29,3 km/h (5 Bft) W-NW 299 0 min 0,000 mm 32 W/m 1,6 C -1,4 C 37,0 km/h (5 Bft) 100,00 %
11.01.2012 15:21 8,4 C 63 % 1029,8 hPa 0,0 l/m 32,3 km/h (5 Bft) NW 306 0 min 0,000 mm 32 W/m 1,8 C -2,1 C 41,8 km/h (6 Bft) 100,00 %
11.01.2012 15:22 8,4 C 62 % 1029,8 hPa 0,0 l/m 22,1 km/h (4 Bft) W-NW 296 0 min 0,000 mm 32 W/m 1,6 C 0,5 C 35,4 km/h (5 Bft) 100,00 %
11.01.2012 15:23 8,4 C 63 % 1029,8 hPa 0,0 l/m 21,1 km/h (4 Bft) W-NW 296 0 min 0,000 mm 32 W/m 1,8 C 0,8 C 29,0 km/h (5 Bft) 100,00 %
11.01.2012 15:24 8,4 C 63 % 1029,8 hPa 0,0 l/m 28,1 km/h (4 Bft) N-NW 329 0 min 0,000 mm 32 W/m 1,8 C -1,1 C 43,5 km/h (6 Bft) 100,00 %
11.01.2012 15:25 8,3 C 63 % 1029,8 hPa 0,0 l/m 32,4 km/h (5 Bft) NW 309 0 min 0,000 mm 35 W/m 1,7 C -2,3 C 40,2 km/h (6 Bft) 100,00 %
11.01.2012 15:26 8,3 C 62 % 1029,9 hPa 0,0 l/m 32,9 km/h (5 Bft) NW 313 0 min 0,000 mm 42 W/m 1,5 C -2,4 C 41,8 km/h (6 Bft) 100,00 %
11.01.2012 15:27 8,3 C 62 % 1029,9 hPa 0,0 l/m 24,2 km/h (4 Bft) W-NW 300 0 min 0,000 mm 33 W/m 1,5 C -0,2 C 30,6 km/h (5 Bft) 100,00 %
11.01.2012 15:28 8,3 C 62 % 1029,9 hPa 0,0 l/m 31,0 km/h (5 Bft) NW 307 0 min 0,000 mm 30 W/m 1,5 C -2,0 C 40,2 km/h (6 Bft) 100,00 %
11.01.2012 15:29 8,3 C 62 % 1029,9 hPa 0,0 l/m 29,6 km/h (5 Bft) NW 312 0 min 0,000 mm 30 W/m 1,5 C -1,6 C 38,6 km/h (5 Bft) 100,00 %
11.01.2012 15:30 8,3 C 62 % 1029,9 hPa 0,0 l/m 29,6 km/h (5 Bft) NW 304 0 min 0,000 mm 30 W/m 1,5 C -1,6 C 38,6 km/h (5 Bft) 100,00 %
11.01.2012 15:31 8,3 C 62 % 1029,9 hPa 0,0 l/m 15,8 km/h (3 Bft) W-NW 302 0 min 0,000 mm 30 W/m 1,5 C 2,7 C 25,7 km/h (4 Bft) 100,00 %
11.01.2012 15:32 8,3 C 63 % 1029,9 hPa 0,0 l/m 27,6 km/h (4 Bft) W-NW 286 0 min 0,000 mm 30 W/m 1,7 C -1,2 C 43,5 km/h (6 Bft) 100,00 %
11.01.2012 15:33 8,3 C 63 % 1029,9 hPa 0,0 l/m 23,4 km/h (4 Bft) W-NW 301 0 min 0,000 mm 30 W/m 1,7 C -0,0 C 30,6 km/h (5 Bft) 100,00 %
11.01.2012 15:34 8,3 C 63 % 1029,9 hPa 0,0 l/m 18,6 km/h (3 Bft) W-NW 296 0 min 0,000 mm 30 W/m 1,7 C 1,6 C 27,4 km/h (4 Bft) 100,00 %
11.01.2012 15:35 8,3 C 63 % 1029,8 hPa 0,0 l/m 18,4 km/h (3 Bft) W-NW 287 0 min 0,000 mm 28 W/m 1,7 C 1,7 C 27,4 km/h (4 Bft) 100,00 %
11.01.2012 15:36 8,3 C 63 % 1029,8 hPa 0,0 l/m 31,1 km/h (5 Bft) W-NW 296 0 min 0,000 mm 30 W/m 1,7 C -2,0 C 43,5 km/h (6 Bft) 100,00 %
11.01.2012 15:37 8,2 C 63 % 1029,9 hPa 0,0 l/m 24,9 km/h (4 Bft) W-SW 250 0 min 0,000 mm 32 W/m 1,6 C -0,6 C 35,4 km/h (5 Bft) 100,00 %
11.01.2012 15:38 8,2 C 63 % 1029,8 hPa 0,0 l/m 25,4 km/h (4 Bft) NW 313 0 min 0,000 mm 35 W/m 1,6 C -0,7 C 37,0 km/h (5 Bft) 100,00 %
11.01.2012 15:39 8,2 C 63 % 1029,9 hPa 0,0 l/m 26,9 km/h (4 Bft) NW 311 0 min 0,000 mm 37 W/m 1,6 C -1,1 C 40,2 km/h (6 Bft) 100,00 %
11.01.2012 15:40 8,2 C 63 % 1029,9 hPa 0,0 l/m 33,9 km/h (5 Bft) W-NW 292 0 min 0,000 mm 33 W/m 1,6 C -2,7 C 45,1 km/h (6 Bft) 100,00 %
11.01.2012 15:41 8,2 C 63 % 1029,9 hPa 0,0 l/m 27,9 km/h (4 Bft) W-NW 298 0 min 0,000 mm 30 W/m 1,6 C -1,4 C 33,8 km/h (5 Bft) 100,00 %
11.01.2012 15:42 8,2 C 63 % 1029,9 hPa 0,0 l/m 25,3 km/h (4 Bft) NW 313 0 min 0,000 mm 26 W/m 1,6 C -0,7 C 40,2 km/h (6 Bft) 100,00 %
11.01.2012 15:43 8,2 C 63 % 1029,9 hPa 0,0 l/m 27,9 km/h (4 Bft) W-NW 292 0 min 0,000 mm 25 W/m 1,6 C -1,4 C 40,2 km/h (6 Bft) 100,00 %
11.01.2012 15:44 8,2 C 63 % 1029,9 hPa 0,0 l/m 31,3 km/h (5 Bft) W-NW 297 0 min 0,000 mm 25 W/m 1,6 C -2,2 C 45,1 km/h (6 Bft) 100,00 %
11.01.2012 15:45 8,2 C 63 % 1029,9 hPa 0,0 l/m 27,1 km/h (4 Bft) W 279 0 min 0,000 mm 23 W/m 1,6 C -1,2 C 37,0 km/h (5 Bft) 100,00 %
11.01.2012 15:46 8,2 C 63 % 1029,9 hPa 0,0 l/m 27,4 km/h (4 Bft) W-NW 298 0 min 0,000 mm 23 W/m 1,6 C -1,2 C 33,8 km/h (5 Bft) 100,00 %
11.01.2012 15:47 8,2 C 63 % 1030,0 hPa 0,0 l/m 29,7 km/h (5 Bft) W 277 0 min 0,000 mm 23 W/m 1,6 C -1,8 C 41,8 km/h (6 Bft) 100,00 %
11.01.2012 15:48 8,2 C 63 % 1029,9 hPa 0,0 l/m 30,6 km/h (5 Bft) NW 313 0 min 0,000 mm 23 W/m 1,6 C -2,0 C 38,6 km/h (5 Bft) 100,00 %
11.01.2012 15:49 8,2 C 63 % 1029,9 hPa 0,0 l/m 24,3 km/h (4 Bft) W-NW 300 0 min 0,000 mm 25 W/m 1,6 C -0,4 C 37,0 km/h (5 Bft) 100,00 %
11.01.2012 15:50 8,2 C 63 % 1029,9 hPa 0,0 l/m 30,1 km/h (5 Bft) W-NW 288 0 min 0,000 mm 25 W/m 1,6 C -1,9 C 33,8 km/h (5 Bft) 100,00 %
11.01.2012 15:51 8,2 C 63 % 1030,0 hPa 0,0 l/m 25,0 km/h (4 Bft) NW 318 0 min 0,000 mm 25 W/m 1,6 C -0,6 C 30,6 km/h (5 Bft) 100,00 %
11.01.2012 15:52 8,2 C 63 % 1029,9 hPa 0,0 l/m 21,3 km/h (4 Bft) W-SW 253 0 min 0,000 mm 25 W/m 1,6 C 0,5 C 27,4 km/h (4 Bft) 100,00 %
11.01.2012 15:53 8,2 C 63 % 1029,9 hPa 0,0 l/m 28,2 km/h (4 Bft) W 281 0 min 0,000 mm 25 W/m 1,6 C -1,4 C 38,6 km/h (5 Bft) 100,00 %
11.01.2012 15:54 8,2 C 63 % 1029,9 hPa 0,0 l/m 25,4 km/h (4 Bft) W-NW 290 0 min 0,000 mm 23 W/m 1,6 C -0,7 C 33,8 km/h (5 Bft) 100,00 %
11.01.2012 15:55 8,2 C 63 % 1029,9 hPa 0,0 l/m 20,8 km/h (4 Bft) NW 319 0 min 0,000 mm 23 W/m 1,6 C 0,7 C 29,0 km/h (5 Bft) 100,00 %
11.01.2012 15:56 8,2 C 63 % 1029,9 hPa 0,0 l/m 31,3 km/h (5 Bft) W-NW 287 0 min 0,000 mm 23 W/m 1,6 C -2,2 C 43,5 km/h (6 Bft) 100,00 %
11.01.2012 15:57 8,2 C 63 % 1029,9 hPa 0,0 l/m 22,8 km/h (4 Bft) NW 313 0 min 0,000 mm 23 W/m 1,6 C 0,0 C 35,4 km/h (5 Bft) 100,00 %
11.01.2012 15:58 8,2 C 63 % 1029,9 hPa 0,0 l/m 31,2 km/h (5 Bft) W 280 0 min 0,000 mm 21 W/m 1,6 C -2,1 C 41,8 km/h (6 Bft) 100,00 %
11.01.2012 15:59 8,2 C 63 % 1029,9 hPa 0,0 l/m 22,9 km/h (4 Bft) W-NW 288 0 min 0,000 mm 21 W/m 1,6 C 0,0 C 32,2 km/h (5 Bft) 100,00 %
11.01.2012 16:00 8,2 C 63 % 1029,9 hPa 0,0 l/m 25,6 km/h (4 Bft) W-NW 290 0 min 0,000 mm 21 W/m 1,6 C -0,8 C 37,0 km/h (5 Bft) 100,00 %
11.01.2012 16:01 8,2 C 63 % 1030,0 hPa 0,0 l/m 22,4 km/h (4 Bft) NW 308 0 min 0,127 mm 19 W/m 1,6 C 0,2 C 32,2 km/h (5 Bft) 100,00 %
11.01.2012 16:02 8,1 C 63 % 1030,0 hPa 0,0 l/m 25,7 km/h (4 Bft) W-NW 295 0 min 0,000 mm 19 W/m 1,5 C -0,9 C 37,0 km/h (5 Bft) 100,00 %
11.01.2012 16:03 8,1 C 63 % 1030,0 hPa 0,0 l/m 25,0 km/h (4 Bft) W 278 0 min 0,000 mm 19 W/m 1,5 C -0,7 C 38,6 km/h (5 Bft) 100,00 %
11.01.2012 16:04 8,1 C 63 % 1029,9 hPa 0,0 l/m 27,1 km/h (4 Bft) W-NW 289 0 min 0,000 mm 19 W/m 1,5 C -1,3 C 37,0 km/h (5 Bft) 100,00 %
11.01.2012 16:05 8,1 C 63 % 1030,0 hPa 0,0 l/m 26,6 km/h (4 Bft) NW 311 0 min 0,000 mm 18 W/m 1,5 C -1,2 C 35,4 km/h (5 Bft) 100,00 %
11.01.2012 16:06 8,1 C 63 % 1030,0 hPa 0,0 l/m 24,1 km/h (4 Bft) NW 311 0 min 0,000 mm 18 W/m 1,5 C -0,5 C 29,0 km/h (5 Bft) 100,00 %
11.01.2012 16:07 8,1 C 63 % 1030,0 hPa 0,0 l/m 23,1 km/h (4 Bft) W-NW 295 0 min 0,000 mm 18 W/m 1,5 C -0,2 C 32,2 km/h (5 Bft) 100,00 %
11.01.2012 16:08 8,1 C 63 % 1030,0 hPa 0,0 l/m 21,4 km/h (4 Bft) NW 304 0 min 0,000 mm 16 W/m 1,5 C 0,4 C 30,6 km/h (5 Bft) 100,00 %
11.01.2012 16:09 8,1 C 64 % 1030,0 hPa 0,0 l/m 24,1 km/h (4 Bft) NW 304 0 min 0,000 mm 14 W/m 1,7 C -0,5 C 33,8 km/h (5 Bft) 100,00 %
11.01.2012 16:10 8,1 C 64 % 1030,1 hPa 0,0 l/m 24,9 km/h (4 Bft) W-NW 299 0 min 0,000 mm 14 W/m 1,7 C -0,7 C 32,2 km/h (5 Bft) 100,00 %
11.01.2012 16:11 8,1 C 64 % 1030,1 hPa 0,0 l/m 24,4 km/h (4 Bft) N-NW 337 0 min 0,000 mm 12 W/m 1,7 C -0,6 C 37,0 km/h (5 Bft) 100,00 %
11.01.2012 16:12 8,1 C 64 % 1030,1 hPa 0,0 l/m 29,0 km/h (5 Bft) W-NW 303 0 min 0,000 mm 12 W/m 1,7 C -1,8 C 37,0 km/h (5 Bft) 100,00 %
11.01.2012 16:13 8,1 C 64 % 1030,2 hPa 0,0 l/m 20,8 km/h (4 Bft) W-NW 290 0 min 0,000 mm 12 W/m 1,7 C 0,6 C 32,2 km/h (5 Bft) 100,00 %
11.01.2012 16:14 8,1 C 64 % 1030,2 hPa 0,0 l/m 22,7 km/h (4 Bft) W-NW 287 0 min 0,000 mm 11 W/m 1,7 C -0,1 C 29,0 km/h (5 Bft) 100,00 %
11.01.2012 16:15 8,0 C 64 % 1030,2 hPa 0,0 l/m 28,8 km/h (4 Bft) W-NW 294 0 min 0,000 mm 11 W/m 1,6 C -1,9 C 38,6 km/h (5 Bft) 100,00 %
11.01.2012 16:16 8,0 C 64 % 1030,2 hPa 0,0 l/m 16,6 km/h (3 Bft) W-NW 282 0 min 0,000 mm 11 W/m 1,6 C 2,0 C 22,5 km/h (4 Bft) 94,74 %
11.01.2012 16:17 8,0 C 64 % 1030,2 hPa 0,0 l/m 16,3 km/h (3 Bft) NW 308 0 min 0,000 mm 9 W/m 1,6 C 2,1 C 24,1 km/h (4 Bft) 100,00 %
11.01.2012 16:18 7,9 C 64 % 1030,2 hPa 0,0 l/m 17,2 km/h (3 Bft) NW 304 0 min 0,000 mm 9 W/m 1,5 C 1,6 C 22,5 km/h (4 Bft) 100,00 %
11.01.2012 16:19 7,9 C 64 % 1030,3 hPa 0,0 l/m 24,1 km/h (4 Bft) NW 306 0 min 0,000 mm 7 W/m 1,5 C -0,8 C 29,0 km/h (5 Bft) 100,00 %
11.01.2012 16:20 7,9 C 64 % 1030,3 hPa 0,0 l/m 18,1 km/h (3 Bft) W-NW 286 0 min 0,000 mm 7 W/m 1,5 C 1,3 C 24,1 km/h (4 Bft) 100,00 %
11.01.2012 16:21 7,9 C 64 % 1030,3 hPa 0,0 l/m 20,3 km/h (4 Bft) W-NW 301 0 min 0,000 mm 7 W/m 1,5 C 0,5 C 25,7 km/h (4 Bft) 100,00 %
11.01.2012 16:22 7,8 C 65 % 1030,2 hPa 0,0 l/m 25,0 km/h (4 Bft) NW 305 0 min 0,000 mm 5 W/m 1,6 C -1,1 C 32,2 km/h (5 Bft) 100,00 %
11.01.2012 16:23 7,8 C 64 % 1030,2 hPa 0,0 l/m 23,8 km/h (4 Bft) W-SW 256 0 min 0,000 mm 5 W/m 1,4 C -0,8 C 32,2 km/h (5 Bft) 100,00 %
11.01.2012 16:24 7,8 C 64 % 1030,3 hPa 0,0 l/m 19,2 km/h (3 Bft) NW 304 0 min 0,000 mm 5 W/m 1,4 C 0,7 C 27,4 km/h (4 Bft) 100,00 %
11.01.2012 16:25 7,8 C 64 % 1030,2 hPa 0,0 l/m 15,9 km/h (3 Bft) W-NW 302 0 min 0,000 mm 5 W/m 1,4 C 2,1 C 20,9 km/h (4 Bft) 100,00 %
11.01.2012 16:26 7,8 C 65 % 1030,2 hPa 0,0 l/m 21,1 km/h (4 Bft) W-NW 283 0 min 0,000 mm 5 W/m 1,6 C 0,1 C 27,4 km/h (4 Bft) 100,00 %
11.01.2012 16:27 7,8 C 65 % 1030,3 hPa 0,0 l/m 18,4 km/h (3 Bft) W-NW 291 0 min 0,000 mm 5 W/m 1,6 C 1,0 C 32,2 km/h (5 Bft) 100,00 %
11.01.2012 16:28 7,8 C 65 % 1030,2 hPa 0,0 l/m 27,7 km/h (4 Bft) W-NW 284 0 min 0,000 mm 5 W/m 1,6 C -1,9 C 37,0 km/h (5 Bft) 100,00 %
11.01.2012 16:29 7,8 C 65 % 1030,2 hPa 0,0 l/m 18,7 km/h (3 Bft) NW 304 0 min 0,000 mm 0 W/m 1,6 C 0,9 C 25,7 km/h (4 Bft) 100,00 %
11.01.2012 16:30 7,8 C 64 % 1030,2 hPa 0,0 l/m 24,7 km/h (4 Bft) NW 309 0 min 0,000 mm 0 W/m 1,4 C -1,1 C 37,0 km/h (5 Bft) 100,00 %
11.01.2012 16:31 7,8 C 64 % 1030,3 hPa 0,0 l/m 20,5 km/h (4 Bft) W 260 0 min 0,000 mm 0 W/m 1,4 C 0,3 C 32,2 km/h (5 Bft) 100,00 %
11.01.2012 16:32 7,8 C 64 % 1030,3 hPa 0,0 l/m 27,6 km/h (4 Bft) W-NW 290 0 min 0,000 mm 0 W/m 1,4 C -1,9 C 38,6 km/h (5 Bft) 100,00 %
11.01.2012 16:33 7,8 C 64 % 1030,3 hPa 0,0 l/m 20,4 km/h (4 Bft) NW 318 0 min 0,000 mm 0 W/m 1,4 C 0,3 C 30,6 km/h (5 Bft) 100,00 %
11.01.2012 16:34 7,9 C 64 % 1030,3 hPa 0,0 l/m 23,5 km/h (4 Bft) NW 309 0 min 0,000 mm 0 W/m 1,5 C -0,6 C 29,0 km/h (5 Bft) 100,00 %
11.01.2012 16:35 7,8 C 64 % 1030,3 hPa 0,0 l/m 17,0 km/h (3 Bft) W-NW 294 0 min 0,000 mm 0 W/m 1,4 C 1,6 C 27,4 km/h (4 Bft) 100,00 %
11.01.2012 16:36 7,8 C 64 % 1030,3 hPa 0,0 l/m 23,1 km/h (4 Bft) W-NW 286 0 min 0,000 mm 0 W/m 1,4 C -0,6 C 32,2 km/h (5 Bft) 100,00 %
11.01.2012 16:37 7,8 C 64 % 1030,3 hPa 0,0 l/m 23,3 km/h (4 Bft) W-NW 301 0 min 0,000 mm 0 W/m 1,4 C -0,6 C 30,6 km/h (5 Bft) 100,00 %
11.01.2012 16:38 7,8 C 64 % 1030,3 hPa 0,0 l/m 16,8 km/h (3 Bft) W-NW 298 0 min 0,000 mm 0 W/m 1,4 C 1,7 C 25,7 km/h (4 Bft) 100,00 %
11.01.2012 16:39 7,8 C 64 % 1030,3 hPa 0,0 l/m 23,0 km/h (4 Bft) W-NW 303 0 min 0,000 mm 0 W/m 1,4 C -0,6 C 33,8 km/h (5 Bft) 100,00 %
11.01.2012 16:41 7,8 C 64 % 1030,3 hPa 0,0 l/m 18,4 km/h (3 Bft) W-NW 298 0 min 0,000 mm 0 W/m 1,4 C 1,0 C 30,6 km/h (5 Bft) 100,00 %
11.01.2012 16:42 7,8 C 64 % 1030,3 hPa 0,0 l/m 22,0 km/h (4 Bft) W-NW 292 0 min 0,000 mm 0 W/m 1,4 C -0,2 C 32,2 km/h (5 Bft) 100,00 %
11.01.2012 16:43 7,8 C 64 % 1030,4 hPa 0,0 l/m 14,6 km/h (3 Bft) W-NW 297 0 min 0,000 mm 0 W/m 1,4 C 2,7 C 27,4 km/h (4 Bft) 100,00 %
11.01.2012 16:44 7,8 C 65 % 1030,5 hPa 0,0 l/m 19,9 km/h (4 Bft) W 279 0 min 0,000 mm 0 W/m 1,6 C 0,5 C 32,2 km/h (5 Bft) 100,00 %
11.01.2012 16:45 7,8 C 65 % 1030,5 hPa 0,0 l/m 22,7 km/h (4 Bft) W-NW 292 0 min 0,000 mm 0 W/m 1,6 C -0,5 C 38,6 km/h (5 Bft) 100,00 %
11.01.2012 16:46 7,8 C 64 % 1030,3 hPa 0,0 l/m 17,4 km/h (3 Bft) W-NW 287 0 min 0,000 mm 0 W/m 1,4 C 1,4 C 29,0 km/h (5 Bft) 100,00 %
11.01.2012 16:47 7,8 C 64 % 1030,4 hPa 0,0 l/m 23,2 km/h (4 Bft) W-NW 296 0 min 0,000 mm 0 W/m 1,4 C -0,6 C 30,6 km/h (5 Bft) 100,00 %
11.01.2012 16:48 7,8 C 64 % 1030,4 hPa 0,0 l/m 16,5 km/h (3 Bft) W-NW 296 0 min 0,000 mm 0 W/m 1,4 C 1,8 C 25,7 km/h (4 Bft) 100,00 %
11.01.2012 16:49 7,8 C 64 % 1030,4 hPa 0,0 l/m 16,4 km/h (3 Bft) W 279 0 min 0,000 mm 0 W/m 1,4 C 1,8 C 27,4 km/h (4 Bft) 96,00 %
11.01.2012 16:50 7,8 C 65 % 1030,5 hPa 0,0 l/m 16,2 km/h (3 Bft) W-NW 293 0 min 0,000 mm 0 W/m 1,6 C 1,9 C 29,0 km/h (5 Bft) 100,00 %
11.01.2012 16:51 7,7 C 65 % 1030,4 hPa 0,0 l/m 17,1 km/h (3 Bft) NW 309 0 min 0,000 mm 0 W/m 1,5 C 1,4 C 22,5 km/h (4 Bft) 100,00 %
11.01.2012 16:52 7,7 C 64 % 1030,2 hPa 0,0 l/m 21,1 km/h (4 Bft) W 269 0 min 0,000 mm 0 W/m 1,3 C -0,1 C 29,0 km/h (5 Bft) 100,00 %
11.01.2012 16:53 7,7 C 64 % 1030,3 hPa 0,0 l/m 28,5 km/h (4 Bft) NW 310 0 min 0,000 mm 0 W/m 1,3 C -2,2 C 37,0 km/h (5 Bft) 100,00 %
11.01.2012 16:54 7,7 C 64 % 1030,3 hPa 0,0 l/m 29,6 km/h (5 Bft) W-NW 283 0 min 0,000 mm 0 W/m 1,3 C -2,5 C 41,8 km/h (6 Bft) 100,00 %
11.01.2012 16:55 7,8 C 64 % 1030,3 hPa 0,0 l/m 19,3 km/h (3 Bft) NW 306 0 min 0,000 mm 0 W/m 1,4 C 0,7 C 37,0 km/h (5 Bft) 100,00 %
11.01.2012 16:56 7,8 C 64 % 1030,1 hPa 0,0 l/m 18,3 km/h (3 Bft) W 277 0 min 0,000 mm 0 W/m 1,4 C 1,1 C 27,4 km/h (4 Bft) 100,00 %
11.01.2012 16:57 7,8 C 64 % 1030,2 hPa 0,0 l/m 21,2 km/h (4 Bft) W-NW 295 0 min 0,000 mm 0 W/m 1,4 C 0,0 C 35,4 km/h (5 Bft) 100,00 %
11.01.2012 16:58 7,8 C 64 % 1030,2 hPa 0,0 l/m 18,7 km/h (3 Bft) W-NW 285 0 min 0,000 mm 0 W/m 1,4 C 0,9 C 25,7 km/h (4 Bft) 100,00 %
11.01.2012 16:59 7,8 C 64 % 1030,2 hPa 0,0 l/m 25,7 km/h (4 Bft) NW 324 0 min 0,000 mm 0 W/m 1,4 C -1,3 C 43,5 km/h (6 Bft) 100,00 %
11.01.2012 17:00 7,8 C 64 % 1030,2 hPa 0,0 l/m 20,6 km/h (4 Bft) W-NW 284 0 min 0,000 mm 0 W/m 1,4 C 0,2 C 33,8 km/h (5 Bft) 96,00 %
11.01.2012 17:01 7,8 C 64 % 1030,2 hPa 0,0 l/m 41,8 km/h (6 Bft) W-SW 258 0 min 0,076 mm 0 W/m 1,4 C -4,6 C 41,8 km/h (6 Bft) 96,00 %
11.01.2012 17:02 7,8 C 63 % 1030,2 hPa 0,0 l/m 22,6 km/h (4 Bft) NW 318 0 min 0,076 mm 0 W/m 1,2 C -0,4 C 41,8 km/h (6 Bft) 100,00 %
11.01.2012 17:03 7,8 C 63 % 1030,2 hPa 0,0 l/m 27,1 km/h (4 Bft) NW 312 0 min 0,000 mm 0 W/m 1,2 C -1,7 C 38,6 km/h (5 Bft) 100,00 %
11.01.2012 17:04 7,8 C 63 % 1030,2 hPa 0,0 l/m 28,4 km/h (4 Bft) W 269 0 min 0,000 mm 0 W/m 1,2 C -2,1 C 46,7 km/h (6 Bft) 100,00 %
11.01.2012 17:05 7,8 C 63 % 1030,2 hPa 0,0 l/m 23,5 km/h (4 Bft) W-NW 296 0 min 0,000 mm 0 W/m 1,2 C -0,7 C 35,4 km/h (5 Bft) 100,00 %
11.01.2012 17:06 7,8 C 63 % 1030,2 hPa 0,0 l/m 17,8 km/h (3 Bft) NW 315 0 min 0,000 mm 0 W/m 1,2 C 1,3 C 25,7 km/h (4 Bft) 100,00 %
11.01.2012 17:07 7,8 C 63 % 1030,2 hPa 0,0 l/m 21,7 km/h (4 Bft) W-NW 294 0 min 0,000 mm 0 W/m 1,2 C -0,1 C 32,2 km/h (5 Bft) 100,00 %
11.01.2012 17:08 7,8 C 63 % 1030,3 hPa 0,0 l/m 19,5 km/h (3 Bft) W-NW 287 0 min 0,000 mm 0 W/m 1,2 C 0,6 C 33,8 km/h (5 Bft) 100,00 %
11.01.2012 17:09 7,8 C 63 % 1030,3 hPa 0,0 l/m 18,3 km/h (3 Bft) W-NW 298 0 min 0,000 mm 0 W/m 1,2 C 1,1 C 27,4 km/h (4 Bft) 100,00 %
11.01.2012 17:10 7,8 C 63 % 1030,3 hPa 0,0 l/m 24,9 km/h (4 Bft) W 267 0 min 0,000 mm 0 W/m 1,2 C -1,1 C 37,0 km/h (5 Bft) 100,00 %
11.01.2012 17:11 7,8 C 63 % 1030,3 hPa 0,0 l/m 18,0 km/h (3 Bft) W 275 0 min 0,000 mm 0 W/m 1,2 C 1,2 C 27,4 km/h (4 Bft) 100,00 %
11.01.2012 17:12 7,8 C 63 % 1030,4 hPa 0,0 l/m 22,7 km/h (4 Bft) W-SW 258 0 min 0,000 mm 0 W/m 1,2 C -0,5 C 30,6 km/h (5 Bft) 100,00 %
11.01.2012 17:13 7,8 C 63 % 1030,4 hPa 0,0 l/m 14,4 km/h (3 Bft) W-NW 299 0 min 0,000 mm 0 W/m 1,2 C 2,7 C 24,1 km/h (4 Bft) 100,00 %
11.01.2012 17:14 7,8 C 63 % 1030,4 hPa 0,0 l/m 12,5 km/h (3 Bft) W 269 0 min 0,000 mm 0 W/m 1,2 C 3,7 C 19,3 km/h (3 Bft) 100,00 %
11.01.2012 17:15 7,8 C 64 % 1030,3 hPa 0,0 l/m 16,2 km/h (3 Bft) NW 306 0 min 0,000 mm 0 W/m 1,4 C 1,9 C 29,0 km/h (5 Bft) 100,00 %
11.01.2012 17:16 7,7 C 64 % 1030,4 hPa 0,0 l/m 26,6 km/h (4 Bft) W 275 0 min 0,000 mm 0 W/m 1,3 C -1,7 C 43,5 km/h (6 Bft) 100,00 %
11.01.2012 17:17 7,7 C 63 % 1030,4 hPa 0,0 l/m 38,3 km/h (5 Bft) W 281 0 min 0,000 mm 0 W/m 1,1 C -4,2 C 57,9 km/h (7 Bft) 95,83 %
11.01.2012 17:18 7,8 C 63 % 1030,5 hPa 0,0 l/m 30,6 km/h (5 Bft) W-NW 303 0 min 0,000 mm 0 W/m 1,2 C -2,6 C 46,7 km/h (6 Bft) 100,00 %
11.01.2012 17:19 7,8 C 63 % 1030,5 hPa 0,0 l/m 25,3 km/h (4 Bft) W-NW 296 0 min 0,000 mm 0 W/m 1,2 C -1,2 C 35,4 km/h (5 Bft) 100,00 %
11.01.2012 17:20 7,8 C 63 % 1030,5 hPa 0,0 l/m 19,7 km/h (3 Bft) W 271 0 min 0,000 mm 0 W/m 1,2 C 0,6 C 29,0 km/h (5 Bft) 100,00 %
11.01.2012 17:21 7,8 C 63 % 1030,5 hPa 0,0 l/m 18,0 km/h (3 Bft) W 268 0 min 0,000 mm 0 W/m 1,2 C 1,2 C 27,4 km/h (4 Bft) 100,00 %
11.01.2012 17:22 7,8 C 63 % 1030,5 hPa 0,0 l/m 18,8 km/h (3 Bft) W 280 0 min 0,000 mm 0 W/m 1,2 C 0,9 C 33,8 km/h (5 Bft) 100,00 %
11.01.2012 17:23 7,8 C 63 % 1030,3 hPa 0,0 l/m 29,0 km/h (5 Bft) W-NW 295 0 min 0,000 mm 0 W/m 1,2 C -2,2 C 38,6 km/h (5 Bft) 100,00 %
11.01.2012 17:24 7,8 C 63 % 1030,5 hPa 0,0 l/m 26,2 km/h (4 Bft) W 270 0 min 0,000 mm 0 W/m 1,2 C -1,5 C 40,2 km/h (6 Bft) 100,00 %
11.01.2012 17:25 7,8 C 63 % 1030,5 hPa 0,0 l/m 17,5 km/h (3 Bft) W 280 0 min 0,000 mm 0 W/m 1,2 C 1,4 C 29,0 km/h (5 Bft) 100,00 %
11.01.2012 17:26 7,8 C 63 % 1030,5 hPa 0,0 l/m 19,2 km/h (3 Bft) W-NW 291 0 min 0,000 mm 0 W/m 1,2 C 0,7 C 27,4 km/h (4 Bft) 100,00 %
11.01.2012 17:27 7,8 C 64 % 1030,5 hPa 0,0 l/m 15,9 km/h (3 Bft) W 273 0 min 0,000 mm 0 W/m 1,4 C 2,1 C 22,5 km/h (4 Bft) 100,00 %
11.01.2012 17:28 7,7 C 64 % 1030,5 hPa 0,0 l/m 17,9 km/h (3 Bft) W-NW 287 0 min 0,000 mm 0 W/m 1,3 C 1,1 C 29,0 km/h (5 Bft) 100,00 %
11.01.2012 17:29 7,7 C 64 % 1030,6 hPa 0,0 l/m 18,4 km/h (3 Bft) W 275 0 min 0,000 mm 0 W/m 1,3 C 0,9 C 37,0 km/h (5 Bft) 100,00 %
11.01.2012 17:30 7,7 C 64 % 1030,5 hPa 0,0 l/m 32,0 km/h (5 Bft) W 274 0 min 0,000 mm 0 W/m 1,3 C -3,0 C 49,9 km/h (6 Bft) 100,00 %
11.01.2012 17:31 7,7 C 63 % 1030,4 hPa 0,0 l/m 27,2 km/h (4 Bft) W 261 0 min 0,000 mm 0 W/m 1,1 C -1,9 C 43,5 km/h (6 Bft) 100,00 %
11.01.2012 17:32 7,7 C 63 % 1030,5 hPa 0,0 l/m 33,6 km/h (5 Bft) W-SW 252 0 min 0,000 mm 0 W/m 1,1 C -3,4 C 48,3 km/h (6 Bft) 100,00 %
11.01.2012 17:33 7,8 C 63 % 1030,5 hPa 0,0 l/m 22,4 km/h (4 Bft) W 281 0 min 0,000 mm 0 W/m 1,2 C -0,4 C 45,1 km/h (6 Bft) 96,00 %
11.01.2012 17:34 7,8 C 63 % 1030,6 hPa 0,0 l/m 23,3 km/h (4 Bft) W 265 0 min 0,000 mm 0 W/m 1,2 C -0,6 C 35,4 km/h (5 Bft) 100,00 %
11.01.2012 17:35 7,8 C 63 % 1030,6 hPa 0,0 l/m 23,3 km/h (4 Bft) W 281 0 min 0,000 mm 0 W/m 1,2 C -0,6 C 33,8 km/h (5 Bft) 100,00 %
11.01.2012 17:36 7,8 C 63 % 1030,5 hPa 0,0 l/m 21,0 km/h (4 Bft) W-NW 288 0 min 0,000 mm 0 W/m 1,2 C 0,1 C 37,0 km/h (5 Bft) 100,00 %
11.01.2012 17:37 7,8 C 63 % 1030,5 hPa 0,0 l/m 25,5 km/h (4 Bft) W-NW 292 0 min 0,000 mm 0 W/m 1,2 C -1,3 C 37,0 km/h (5 Bft) 100,00 %
11.01.2012 17:38 7,8 C 63 % 1030,4 hPa 0,0 l/m 19,5 km/h (3 Bft) W 270 0 min 0,000 mm 0 W/m 1,2 C 0,6 C 33,8 km/h (5 Bft) 100,00 %
11.01.2012 17:39 7,8 C 63 % 1030,5 hPa 0,0 l/m 17,4 km/h (3 Bft) W 264 0 min 0,000 mm 0 W/m 1,2 C 1,4 C 24,1 km/h (4 Bft) 100,00 %
11.01.2012 17:40 7,8 C 63 % 1030,6 hPa 0,0 l/m 24,7 km/h (4 Bft) W-SW 254 0 min 0,000 mm 0 W/m 1,2 C -1,1 C 35,4 km/h (5 Bft) 100,00 %
11.01.2012 17:41 7,8 C 63 % 1030,5 hPa 0,0 l/m 22,7 km/h (4 Bft) W 276 0 min 0,000 mm 0 W/m 1,2 C -0,5 C 38,6 km/h (5 Bft) 100,00 %
11.01.2012 17:42 7,8 C 63 % 1030,6 hPa 0,0 l/m 29,6 km/h (5 Bft) NW 322 0 min 0,000 mm 0 W/m 1,2 C -2,3 C 46,7 km/h (6 Bft) 100,00 %
11.01.2012 17:43 7,8 C 62 % 1030,5 hPa 0,0 l/m 30,7 km/h (5 Bft) W-SW 252 0 min 0,000 mm 0 W/m 1,0 C -2,6 C 41,8 km/h (6 Bft) 100,00 %
11.01.2012 17:44 7,9 C 62 % 1030,6 hPa 0,0 l/m 25,9 km/h (4 Bft) W-NW 295 0 min 0,000 mm 0 W/m 1,1 C -1,3 C 41,8 km/h (6 Bft) 100,00 %
11.01.2012 17:45 7,9 C 62 % 1030,7 hPa 0,0 l/m 18,9 km/h (3 Bft) W-SW 254 0 min 0,000 mm 0 W/m 1,1 C 1,0 C 32,2 km/h (5 Bft) 100,00 %
11.01.2012 17:46 7,9 C 62 % 1030,6 hPa 0,0 l/m 26,2 km/h (4 Bft) W-NW 292 0 min 0,000 mm 0 W/m 1,1 C -1,3 C 37,0 km/h (5 Bft) 100,00 %
11.01.2012 17:47 8,0 C 61 % 1030,5 hPa 0,0 l/m 26,7 km/h (4 Bft) W 277 0 min 0,000 mm 0 W/m 0,9 C -1,3 C 40,2 km/h (6 Bft) 100,00 %
11.01.2012 17:48 8,0 C 61 % 1030,6 hPa 0,0 l/m 23,3 km/h (4 Bft) W 261 0 min 0,000 mm 0 W/m 0,9 C -0,4 C 32,2 km/h (5 Bft) 100,00 %
11.01.2012 17:49 8,1 C 61 % 1030,5 hPa 0,0 l/m 21,9 km/h (4 Bft) W 268 0 min 0,000 mm 0 W/m 1,0 C 0,2 C 33,8 km/h (5 Bft) 100,00 %
11.01.2012 17:50 8,1 C 61 % 1030,5 hPa 0,0 l/m 28,6 km/h (4 Bft) W 277 0 min 0,000 mm 0 W/m 1,0 C -1,7 C 38,6 km/h (5 Bft) 100,00 %
11.01.2012 17:51 8,1 C 61 % 1030,6 hPa 0,0 l/m 21,4 km/h (4 Bft) W 276 0 min 0,000 mm 0 W/m 1,0 C 0,4 C 30,6 km/h (5 Bft) 100,00 %
11.01.2012 17:52 8,1 C 61 % 1030,6 hPa 0,0 l/m 23,1 km/h (4 Bft) W-SW 247 0 min 0,000 mm 0 W/m 1,0 C -0,2 C 30,6 km/h (5 Bft) 100,00 %
11.01.2012 17:53 8,1 C 61 % 1030,6 hPa 0,0 l/m 22,5 km/h (4 Bft) W 263 0 min 0,000 mm 0 W/m 1,0 C 0,0 C 35,4 km/h (5 Bft) 95,83 %
11.01.2012 17:54 8,1 C 61 % 1030,6 hPa 0,0 l/m 25,2 km/h (4 Bft) W 263 0 min 0,000 mm 0 W/m 1,0 C -0,8 C 41,8 km/h (6 Bft) 100,00 %
11.01.2012 17:55 8,1 C 61 % 1030,5 hPa 0,0 l/m 32,2 km/h (5 Bft) W-NW 302 0 min 0,000 mm 0 W/m 1,0 C -2,5 C 45,1 km/h (6 Bft) 100,00 %
11.01.2012 17:56 8,2 C 60 % 1030,6 hPa 0,0 l/m 24,9 km/h (4 Bft) W-SW 253 0 min 0,000 mm 0 W/m 0,9 C -0,6 C 37,0 km/h (5 Bft) 100,00 %
11.01.2012 17:57 8,2 C 60 % 1030,6 hPa 0,0 l/m 17,0 km/h (3 Bft) W 265 0 min 0,000 mm 0 W/m 0,9 C 2,1 C 25,7 km/h (4 Bft) 100,00 %
11.01.2012 17:58 8,2 C 60 % 1030,6 hPa 0,0 l/m 33,3 km/h (5 Bft) W 261 0 min 0,000 mm 0 W/m 0,9 C -2,6 C 51,5 km/h (7 Bft) 100,00 %
11.01.2012 17:59 8,2 C 60 % 1030,6 hPa 0,0 l/m 29,0 km/h (5 Bft) W-NW 290 0 min 0,000 mm 0 W/m 0,9 C -1,6 C 43,5 km/h (6 Bft) 100,00 %
11.01.2012 18:00 8,2 C 60 % 1030,6 hPa 0,0 l/m 26,8 km/h (4 Bft) W-SW 254 0 min 0,000 mm 0 W/m 0,9 C -1,1 C 40,2 km/h (6 Bft) 100,00 %
11.01.2012 18:01 8,2 C 60 % 1030,5 hPa 0,0 l/m 35,3 km/h (5 Bft) W-SW 252 0 min 0,001 mm 0 W/m 0,9 C -3,0 C 49,9 km/h (6 Bft) 100,00 %
11.01.2012 18:02 8,3 C 60 % 1030,4 hPa 0,0 l/m 35,4 km/h (5 Bft) W 272 0 min 0,000 mm 0 W/m 1,0 C -2,8 C 59,5 km/h (7 Bft) 100,00 %
11.01.2012 18:03 8,3 C 60 % 1030,4 hPa 0,0 l/m 39,1 km/h (6 Bft) W-SW 246 0 min 0,000 mm 0 W/m 1,0 C -3,5 C 59,5 km/h (7 Bft) 100,00 %
11.01.2012 18:04 8,3 C 60 % 1030,5 hPa 0,0 l/m 35,2 km/h (5 Bft) W 273 0 min 0,000 mm 0 W/m 1,0 C -2,8 C 51,5 km/h (7 Bft) 100,00 %
11.01.2012 18:05 8,4 C 60 % 1030,5 hPa 0,0 l/m 28,2 km/h (4 Bft) W 278 0 min 0,000 mm 0 W/m 1,1 C -1,2 C 40,2 km/h (6 Bft) 100,00 %
11.01.2012 18:06 8,4 C 60 % 1030,6 hPa 0,0 l/m 25,4 km/h (4 Bft) W 267 0 min 0,000 mm 0 W/m 1,1 C -0,4 C 35,4 km/h (5 Bft) 100,00 %
11.01.2012 18:07 8,4 C 60 % 1030,6 hPa 0,0 l/m 25,2 km/h (4 Bft) W-SW 255 0 min 0,000 mm 0 W/m 1,1 C -0,4 C 38,6 km/h (5 Bft) 100,00 %
11.01.2012 18:08 8,4 C 60 % 1030,6 hPa 0,0 l/m 31,6 km/h (5 Bft) W-SW 257 0 min 0,000 mm 0 W/m 1,1 C -1,9 C 45,1 km/h (6 Bft) 100,00 %
11.01.2012 18:09 8,4 C 60 % 1030,4 hPa 0,0 l/m 33,1 km/h (5 Bft) W 264 0 min 0,000 mm 0 W/m 1,1 C -2,3 C 48,3 km/h (6 Bft) 96,00 %
11.01.2012 18:10 8,4 C 60 % 1030,4 hPa 0,0 l/m 30,0 km/h (5 Bft) SW 234 0 min 0,000 mm 0 W/m 1,1 C -1,6 C 41,8 km/h (6 Bft) 100,00 %
11.01.2012 18:11 8,4 C 60 % 1030,5 hPa 0,0 l/m 26,9 km/h (4 Bft) W 263 0 min 0,000 mm 0 W/m 1,1 C -0,8 C 38,6 km/h (5 Bft) 100,00 %
11.01.2012 18:12 8,4 C 60 % 1030,5 hPa 0,0 l/m 22,8 km/h (4 Bft) W-NW 286 0 min 0,000 mm 0 W/m 1,1 C 0,3 C 38,6 km/h (5 Bft) 100,00 %
11.01.2012 18:13 8,4 C 60 % 1030,4 hPa 0,0 l/m 27,6 km/h (4 Bft) W-SW 243 0 min 0,000 mm 0 W/m 1,1 C -1,0 C 41,8 km/h (6 Bft) 100,00 %
11.01.2012 18:14 8,4 C 60 % 1030,4 hPa 0,0 l/m 32,9 km/h (5 Bft) W 262 0 min 0,000 mm 0 W/m 1,1 C -2,2 C 54,7 km/h (7 Bft) 100,00 %
11.01.2012 18:15 8,4 C 60 % 1030,4 hPa 0,0 l/m 27,2 km/h (4 Bft) W-SW 238 0 min 0,000 mm 0 W/m 1,1 C -0,9 C 43,5 km/h (6 Bft) 100,00 %
11.01.2012 18:16 8,4 C 60 % 1030,4 hPa 0,0 l/m 32,0 km/h (5 Bft) W 267 0 min 0,000 mm 0 W/m 1,1 C -2,0 C 49,9 km/h (6 Bft) 100,00 %
11.01.2012 18:17 8,4 C 60 % 1030,3 hPa 0,0 l/m 24,8 km/h (4 Bft) W-SW 251 0 min 0,000 mm 0 W/m 1,1 C -0,3 C 41,8 km/h (6 Bft) 100,00 %
11.01.2012 18:18 8,4 C 60 % 1030,4 hPa 0,0 l/m 26,4 km/h (4 Bft) W 261 0 min 0,000 mm 0 W/m 1,1 C -0,7 C 33,8 km/h (5 Bft) 96,00 %
11.01.2012 18:19 8,4 C 60 % 1030,5 hPa 0,0 l/m 25,7 km/h (4 Bft) W 268 0 min 0,000 mm 0 W/m 1,1 C -0,5 C 43,5 km/h (6 Bft) 100,00 %
11.01.2012 18:20 8,3 C 60 % 1030,4 hPa 0,0 l/m 30,1 km/h (5 Bft) W-NW 283 0 min 0,000 mm 0 W/m 1,0 C -1,8 C 41,8 km/h (6 Bft) 100,00 %
11.01.2012 18:21 8,3 C 60 % 1030,5 hPa 0,0 l/m 24,9 km/h (4 Bft) W 265 0 min 0,000 mm 0 W/m 1,0 C -0,4 C 32,2 km/h (5 Bft) 100,00 %
11.01.2012 18:22 8,3 C 60 % 1030,6 hPa 0,0 l/m 21,8 km/h (4 Bft) W 261 0 min 0,000 mm 0 W/m 1,0 C 0,5 C 30,6 km/h (5 Bft) 100,00 %
11.01.2012 18:23 8,3 C 60 % 1030,5 hPa 0,0 l/m 17,1 km/h (3 Bft) W 263 0 min 0,000 mm 0 W/m 1,0 C 2,2 C 24,1 km/h (4 Bft) 100,00 %
11.01.2012 18:24 8,3 C 61 % 1030,6 hPa 0,0 l/m 27,3 km/h (4 Bft) W-SW 245 0 min 0,000 mm 0 W/m 1,2 C -1,1 C 43,5 km/h (6 Bft) 100,00 %
11.01.2012 18:25 8,3 C 60 % 1030,6 hPa 0,0 l/m 26,7 km/h (4 Bft) W 276 0 min 0,000 mm 0 W/m 1,0 C -0,9 C 40,2 km/h (6 Bft) 100,00 %
11.01.2012 18:26 8,3 C 61 % 1030,6 hPa 0,0 l/m 23,6 km/h (4 Bft) W 273 0 min 0,000 mm 0 W/m 1,2 C -0,1 C 30,6 km/h (5 Bft) 100,00 %
11.01.2012 18:27 8,3 C 61 % 1030,6 hPa 0,0 l/m 18,7 km/h (3 Bft) W 263 0 min 0,000 mm 0 W/m 1,2 C 1,6 C 27,4 km/h (4 Bft) 100,00 %
11.01.2012 18:28 8,3 C 60 % 1030,6 hPa 0,0 l/m 22,7 km/h (4 Bft) W-SW 247 0 min 0,000 mm 0 W/m 1,0 C 0,2 C 37,0 km/h (5 Bft) 100,00 %
11.01.2012 18:29 8,3 C 60 % 1030,6 hPa 0,0 l/m 21,2 km/h (4 Bft) W 261 0 min 0,000 mm 0 W/m 1,0 C 0,7 C 37,0 km/h (5 Bft) 100,00 %
11.01.2012 18:30 8,3 C 61 % 1030,5 hPa 0,0 l/m 19,5 km/h (3 Bft) W 267 0 min 0,000 mm 0 W/m 1,2 C 1,3 C 30,6 km/h (5 Bft) 100,00 %
11.01.2012 18:31 8,3 C 61 % 1030,7 hPa 0,0 l/m 23,6 km/h (4 Bft) W 277 0 min 0,000 mm 0 W/m 1,2 C -0,1 C 30,6 km/h (5 Bft) 100,00 %
11.01.2012 18:32 8,3 C 61 % 1030,6 hPa 0,0 l/m 17,8 km/h (3 Bft) NW 320 0 min 0,000 mm 0 W/m 1,2 C 1,9 C 29,0 km/h (5 Bft) 100,00 %
11.01.2012 18:33 8,3 C 61 % 1030,7 hPa 0,0 l/m 21,1 km/h (4 Bft) W 267 0 min 0,000 mm 0 W/m 1,2 C 0,7 C 32,2 km/h (5 Bft) 100,00 %
11.01.2012 18:34 8,3 C 61 % 1030,7 hPa 0,0 l/m 28,5 km/h (4 Bft) W 279 0 min 0,000 mm 0 W/m 1,2 C -1,4 C 40,2 km/h (6 Bft) 100,00 %
11.01.2012 18:35 8,3 C 60 % 1030,7 hPa 0,0 l/m 25,4 km/h (4 Bft) W-NW 283 0 min 0,000 mm 0 W/m 1,0 C -0,6 C 40,2 km/h (6 Bft) 100,00 %
11.01.2012 18:36 8,3 C 60 % 1030,6 hPa 0,0 l/m 27,9 km/h (4 Bft) W 265 0 min 0,000 mm 0 W/m 1,0 C -1,2 C 40,2 km/h (6 Bft) 100,00 %
11.01.2012 18:37 8,3 C 61 % 1030,6 hPa 0,0 l/m 19,0 km/h (3 Bft) W-NW 292 0 min 0,000 mm 0 W/m 1,2 C 1,4 C 29,0 km/h (5 Bft) 100,00 %
11.01.2012 18:38 8,3 C 61 % 1030,7 hPa 0,0 l/m 21,8 km/h (4 Bft) W 263 0 min 0,000 mm 0 W/m 1,2 C 0,5 C 38,6 km/h (5 Bft) 100,00 %
11.01.2012 18:39 8,3 C 61 % 1030,7 hPa 0,0 l/m 27,0 km/h (4 Bft) W 261 0 min 0,000 mm 0 W/m 1,2 C -1,0 C 40,2 km/h (6 Bft) 100,00 %
11.01.2012 18:40 8,3 C 61 % 1030,7 hPa 0,0 l/m 19,8 km/h (3 Bft) W-NW 284 0 min 0,000 mm 0 W/m 1,2 C 1,2 C 27,4 km/h (4 Bft) 100,00 %
11.01.2012 18:41 8,3 C 61 % 1030,7 hPa 0,0 l/m 21,3 km/h (4 Bft) W-NW 300 0 min 0,000 mm 0 W/m 1,2 C 0,7 C 29,0 km/h (5 Bft) 100,00 %
11.01.2012 18:42 8,3 C 61 % 1030,6 hPa 0,0 l/m 13,7 km/h (3 Bft) W 269 0 min 0,000 mm 0 W/m 1,2 C 3,7 C 24,1 km/h (4 Bft) 100,00 %
11.01.2012 18:43 8,2 C 61 % 1030,5 hPa 0,0 l/m 23,5 km/h (4 Bft) W-SW 253 0 min 0,000 mm 0 W/m 1,1 C -0,2 C 33,8 km/h (5 Bft) 100,00 %
11.01.2012 18:44 8,2 C 61 % 1030,5 hPa 0,0 l/m 27,2 km/h (4 Bft) W 261 0 min 0,000 mm 0 W/m 1,1 C -1,2 C 43,5 km/h (6 Bft) 100,00 %
11.01.2012 18:45 8,2 C 61 % 1030,5 hPa 0,0 l/m 29,7 km/h (5 Bft) W-SW 256 0 min 0,000 mm 0 W/m 1,1 C -1,8 C 37,0 km/h (5 Bft) 100,00 %
11.01.2012 18:46 8,2 C 61 % 1030,5 hPa 0,0 l/m 23,5 km/h (4 Bft) W 259 0 min 0,000 mm 0 W/m 1,1 C -0,2 C 32,2 km/h (5 Bft) 100,00 %
11.01.2012 18:47 8,2 C 61 % 1030,4 hPa 0,0 l/m 24,9 km/h (4 Bft) W 261 0 min 0,000 mm 0 W/m 1,1 C -0,6 C 33,8 km/h (5 Bft) 100,00 %
11.01.2012 18:48 8,2 C 61 % 1030,4 hPa 0,0 l/m 24,8 km/h (4 Bft) W 279 0 min 0,000 mm 0 W/m 1,1 C -0,6 C 33,8 km/h (5 Bft) 100,00 %
11.01.2012 18:49 8,2 C 61 % 1030,4 hPa 0,0 l/m 22,7 km/h (4 Bft) W 281 0 min 0,000 mm 0 W/m 1,1 C 0,1 C 35,4 km/h (5 Bft) 100,00 %
11.01.2012 18:50 8,2 C 61 % 1030,4 hPa 0,0 l/m 29,2 km/h (5 Bft) W 273 0 min 0,000 mm 0 W/m 1,1 C -1,7 C 37,0 km/h (5 Bft) 100,00 %
11.01.2012 18:51 8,2 C 61 % 1030,4 hPa 0,0 l/m 28,6 km/h (4 Bft) W 277 0 min 0,000 mm 0 W/m 1,1 C -1,5 C 33,8 km/h (5 Bft) 100,00 %
11.01.2012 18:52 8,2 C 61 % 1030,3 hPa 0,0 l/m 29,2 km/h (5 Bft) W-SW 252 0 min 0,000 mm 0 W/m 1,1 C -1,7 C 41,8 km/h (6 Bft) 100,00 %
11.01.2012 18:53 8,2 C 61 % 1030,4 hPa 0,0 l/m 37,2 km/h (5 Bft) W-SW 254 0 min 0,000 mm 0 W/m 1,1 C -3,3 C 49,9 km/h (6 Bft) 100,00 %
11.01.2012 18:54 8,3 C 61 % 1030,4 hPa 0,0 l/m 33,3 km/h (5 Bft) W 273 0 min 0,000 mm 0 W/m 1,2 C -2,4 C 45,1 km/h (6 Bft) 100,00 %
11.01.2012 18:55 8,3 C 61 % 1030,4 hPa 0,0 l/m 29,0 km/h (5 Bft) W-SW 244 0 min 0,000 mm 0 W/m 1,2 C -1,5 C 45,1 km/h (6 Bft) 100,00 %
11.01.2012 18:56 8,3 C 61 % 1030,3 hPa 0,0 l/m 23,2 km/h (4 Bft) W 266 0 min 0,000 mm 0 W/m 1,2 C 0,1 C 29,0 km/h (5 Bft) 100,00 %
11.01.2012 18:57 8,3 C 61 % 1030,3 hPa 0,0 l/m 27,6 km/h (4 Bft) W-SW 249 0 min 0,000 mm 0 W/m 1,2 C -1,2 C 43,5 km/h (6 Bft) 100,00 %
11.01.2012 18:58 8,3 C 61 % 1030,4 hPa 0,0 l/m 26,4 km/h (4 Bft) W 265 0 min 0,000 mm 0 W/m 1,2 C -0,9 C 35,4 km/h (5 Bft) 100,00 %
11.01.2012 18:59 8,3 C 61 % 1030,3 hPa 0,0 l/m 27,9 km/h (4 Bft) W 266 0 min 0,000 mm 0 W/m 1,2 C -1,2 C 40,2 km/h (6 Bft) 100,00 %
11.01.2012 19:00 8,3 C 61 % 1030,4 hPa 0,0 l/m 24,5 km/h (4 Bft) W 261 0 min 0,000 mm 0 W/m 1,2 C -0,3 C 43,5 km/h (6 Bft) 100,00 %
11.01.2012 19:01 8,3 C 61 % 1030,4 hPa 0,0 l/m 29,9 km/h (5 Bft) W 277 0 min 0,101 mm 0 W/m 1,2 C -1,7 C 43,5 km/h (6 Bft) 100,00 %
11.01.2012 19:03 8,3 C 61 % 1030,4 hPa 0,0 l/m 30,1 km/h (5 Bft) W-NW 284 0 min 0,000 mm 0 W/m 1,2 C -1,8 C 41,8 km/h (6 Bft) 100,00 %
11.01.2012 19:04 8,3 C 61 % 1030,5 hPa 0,0 l/m 31,3 km/h (5 Bft) W 264 0 min 0,000 mm 0 W/m 1,2 C -2,0 C 38,6 km/h (5 Bft) 100,00 %
11.01.2012 19:05 8,3 C 61 % 1030,5 hPa 0,0 l/m 31,1 km/h (5 Bft) W 263 0 min 0,000 mm 0 W/m 1,2 C -2,0 C 46,7 km/h (6 Bft) 100,00 %
11.01.2012 19:06 8,3 C 61 % 1030,5 hPa 0,0 l/m 33,3 km/h (5 Bft) W 272 0 min 0,000 mm 0 W/m 1,2 C -2,4 C 45,1 km/h (6 Bft) 100,00 %
11.01.2012 19:07 8,3 C 61 % 1030,5 hPa 0,0 l/m 27,3 km/h (4 Bft) W-NW 283 0 min 0,000 mm 0 W/m 1,2 C -1,1 C 45,1 km/h (6 Bft) 100,00 %
11.01.2012 19:08 8,3 C 61 % 1030,5 hPa 0,0 l/m 29,5 km/h (5 Bft) W 269 0 min 0,000 mm 0 W/m 1,2 C -1,6 C 40,2 km/h (6 Bft) 100,00 %
11.01.2012 19:09 8,3 C 61 % 1030,5 hPa 0,0 l/m 26,0 km/h (4 Bft) W 281 0 min 0,000 mm 0 W/m 1,2 C -0,7 C 35,4 km/h (5 Bft) 100,00 %
11.01.2012 19:10 8,3 C 61 % 1030,5 hPa 0,0 l/m 21,6 km/h (4 Bft) W-SW 237 0 min 0,000 mm 0 W/m 1,2 C 0,6 C 27,4 km/h (4 Bft) 100,00 %
11.01.2012 19:11 8,3 C 61 % 1030,5 hPa 0,0 l/m 29,7 km/h (5 Bft) W 261 0 min 0,000 mm 0 W/m 1,2 C -1,7 C 43,5 km/h (6 Bft) 100,00 %
11.01.2012 19:12 8,3 C 61 % 1030,6 hPa 0,0 l/m 22,7 km/h (4 Bft) W 279 0 min 0,000 mm 0 W/m 1,2 C 0,2 C 35,4 km/h (5 Bft) 100,00 %
11.01.2012 19:13 8,3 C 61 % 1030,5 hPa 0,0 l/m 23,3 km/h (4 Bft) W 263 0 min 0,000 mm 0 W/m 1,2 C 0,0 C 38,6 km/h (5 Bft) 100,00 %
11.01.2012 19:14 8,3 C 61 % 1030,5 hPa 0,0 l/m 22,8 km/h (4 Bft) W-NW 291 0 min 0,000 mm 0 W/m 1,2 C 0,2 C 40,2 km/h (6 Bft) 100,00 %
11.01.2012 19:15 8,3 C 61 % 1030,6 hPa 0,0 l/m 23,7 km/h (4 Bft) W 259 0 min 0,000 mm 0 W/m 1,2 C -0,1 C 33,8 km/h (5 Bft) 100,00 %
11.01.2012 19:16 8,3 C 61 % 1030,6 hPa 0,0 l/m 28,3 km/h (4 Bft) W-SW 249 0 min 0,000 mm 0 W/m 1,2 C -1,3 C 38,6 km/h (5 Bft) 100,00 %
11.01.2012 19:17 8,3 C 61 % 1030,6 hPa 0,0 l/m 25,6 km/h (4 Bft) W 259 0 min 0,000 mm 0 W/m 1,2 C -0,6 C 37,0 km/h (5 Bft) 100,00 %
11.01.2012 19:18 8,3 C 61 % 1030,6 hPa 0,0 l/m 24,4 km/h (4 Bft) W 268 0 min 0,000 mm 0 W/m 1,2 C -0,3 C 33,8 km/h (5 Bft) 100,00 %
11.01.2012 19:19 8,3 C 61 % 1030,6 hPa 0,0 l/m 20,9 km/h (4 Bft) W 260 0 min 0,000 mm 0 W/m 1,2 C 0,8 C 30,6 km/h (5 Bft) 100,00 %
11.01.2012 19:20 8,3 C 62 % 1030,6 hPa 0,0 l/m 22,1 km/h (4 Bft) W 274 0 min 0,000 mm 0 W/m 1,5 C 0,4 C 37,0 km/h (5 Bft) 100,00 %
11.01.2012 19:21 8,3 C 61 % 1030,6 hPa 0,0 l/m 29,5 km/h (5 Bft) W-NW 298 0 min 0,000 mm 0 W/m 1,2 C -1,6 C 43,5 km/h (6 Bft) 100,00 %
11.01.2012 19:22 8,3 C 61 % 1030,6 hPa 0,0 l/m 32,0 km/h (5 Bft) W-NW 282 0 min 0,000 mm 0 W/m 1,2 C -2,2 C 46,7 km/h (6 Bft) 100,00 %
11.01.2012 19:23 8,3 C 61 % 1030,6 hPa 0,0 l/m 34,1 km/h (5 Bft) W 270 0 min 0,000 mm 0 W/m 1,2 C -2,6 C 46,7 km/h (6 Bft) 100,00 %
11.01.2012 19:24 8,3 C 61 % 1030,6 hPa 0,0 l/m 29,2 km/h (5 Bft) W 271 0 min 0,000 mm 0 W/m 1,2 C -1,5 C 41,8 km/h (6 Bft) 100,00 %
11.01.2012 19:25 8,3 C 61 % 1030,6 hPa 0,0 l/m 27,5 km/h (4 Bft) SW 233 0 min 0,000 mm 0 W/m 1,2 C -1,1 C 40,2 km/h (6 Bft) 95,83 %
11.01.2012 19:26 8,3 C 61 % 1030,4 hPa 0,0 l/m 32,0 km/h (5 Bft) W-NW 297 0 min 0,000 mm 0 W/m 1,2 C -2,2 C 45,1 km/h (6 Bft) 100,00 %
11.01.2012 19:27 8,3 C 61 % 1030,5 hPa 0,0 l/m 31,1 km/h (5 Bft) W 281 0 min 0,000 mm 0 W/m 1,2 C -2,0 C 40,2 km/h (6 Bft) 100,00 %
11.01.2012 19:28 8,3 C 61 % 1030,4 hPa 0,0 l/m 31,8 km/h (5 Bft) W-SW 251 0 min 0,000 mm 0 W/m 1,2 C -2,1 C 46,7 km/h (6 Bft) 100,00 %
11.01.2012 19:29 8,3 C 61 % 1030,4 hPa 0,0 l/m 23,6 km/h (4 Bft) W 272 0 min 0,000 mm 0 W/m 1,2 C -0,1 C 37,0 km/h (5 Bft) 100,00 %
11.01.2012 19:30 8,3 C 61 % 1030,3 hPa 0,0 l/m 26,5 km/h (4 Bft) W-NW 296 0 min 0,000 mm 0 W/m 1,2 C -0,9 C 37,0 km/h (5 Bft) 100,00 %
11.01.2012 19:31 8,3 C 61 % 1030,4 hPa 0,0 l/m 26,4 km/h (4 Bft) W 265 0 min 0,000 mm 0 W/m 1,2 C -0,9 C 37,0 km/h (5 Bft) 100,00 %
11.01.2012 19:32 8,3 C 61 % 1030,5 hPa 0,0 l/m 34,2 km/h (5 Bft) W-NW 287 0 min 0,000 mm 0 W/m 1,2 C -2,6 C 51,5 km/h (7 Bft) 100,00 %
11.01.2012 19:33 8,3 C 61 % 1030,4 hPa 0,0 l/m 30,2 km/h (5 Bft) W 265 0 min 0,000 mm 0 W/m 1,2 C -1,8 C 45,1 km/h (6 Bft) 100,00 %
11.01.2012 19:34 8,3 C 61 % 1030,2 hPa 0,0 l/m 34,5 km/h (5 Bft) W 273 0 min 0,000 mm 0 W/m 1,2 C -2,7 C 48,3 km/h (6 Bft) 100,00 %
11.01.2012 19:35 8,3 C 61 % 1030,4 hPa 0,0 l/m 33,1 km/h (5 Bft) W 266 0 min 0,000 mm 0 W/m 1,2 C -2,4 C 49,9 km/h (6 Bft) 100,00 %
11.01.2012 19:36 8,3 C 61 % 1030,2 hPa 0,0 l/m 29,5 km/h (5 Bft) W 271 0 min 0,000 mm 0 W/m 1,2 C -1,6 C 37,0 km/h (5 Bft) 100,00 %
11.01.2012 19:37 8,3 C 61 % 1030,5 hPa 0,0 l/m 30,0 km/h (5 Bft) W 259 0 min 0,000 mm 0 W/m 1,2 C -1,7 C 41,8 km/h (6 Bft) 100,00 %
11.01.2012 19:38 8,3 C 62 % 1030,2 hPa 0,0 l/m 30,7 km/h (5 Bft) W-SW 256 0 min 0,000 mm 0 W/m 1,5 C -1,9 C 45,1 km/h (6 Bft) 100,00 %
11.01.2012 19:39 8,3 C 62 % 1030,3 hPa 0,0 l/m 31,1 km/h (5 Bft) W 266 0 min 0,000 mm 0 W/m 1,5 C -2,0 C 40,2 km/h (6 Bft) 100,00 %
11.01.2012 19:40 8,3 C 62 % 1030,2 hPa 0,0 l/m 30,8 km/h (5 Bft) W-NW 284 0 min 0,000 mm 0 W/m 1,5 C -1,9 C 45,1 km/h (6 Bft) 100,00 %
11.01.2012 19:41 8,3 C 62 % 1030,5 hPa 0,0 l/m 27,4 km/h (4 Bft) W 265 0 min 0,000 mm 0 W/m 1,5 C -1,1 C 41,8 km/h (6 Bft) 100,00 %
11.01.2012 19:42 8,3 C 62 % 1030,3 hPa 0,0 l/m 29,5 km/h (5 Bft) W 262 0 min 0,000 mm 0 W/m 1,5 C -1,6 C 46,7 km/h (6 Bft) 100,00 %
11.01.2012 19:43 8,3 C 62 % 1030,3 hPa 0,0 l/m 30,3 km/h (5 Bft) W 279 0 min 0,000 mm 0 W/m 1,5 C -1,8 C 45,1 km/h (6 Bft) 100,00 %
11.01.2012 19:44 8,3 C 62 % 1030,3 hPa 0,0 l/m 29,5 km/h (5 Bft) W-NW 283 0 min 0,000 mm 0 W/m 1,5 C -1,6 C 59,5 km/h (7 Bft) 100,00 %
11.01.2012 19:45 8,3 C 62 % 1030,3 hPa 0,0 l/m 37,4 km/h (5 Bft) W 275 0 min 0,000 mm 0 W/m 1,5 C -3,2 C 54,7 km/h (7 Bft) 100,00 %
11.01.2012 19:46 8,3 C 62 % 1030,3 hPa 0,0 l/m 34,5 km/h (5 Bft) W 268 0 min 0,000 mm 0 W/m 1,5 C -2,7 C 46,7 km/h (6 Bft) 100,00 %
11.01.2012 19:47 8,3 C 62 % 1030,2 hPa 0,0 l/m 26,2 km/h (4 Bft) W-SW 254 0 min 0,000 mm 0 W/m 1,5 C -0,8 C 35,4 km/h (5 Bft) 100,00 %
11.01.2012 19:48 8,3 C 62 % 1030,2 hPa 0,0 l/m 31,3 km/h (5 Bft) W-SW 253 0 min 0,000 mm 0 W/m 1,5 C -2,0 C 40,2 km/h (6 Bft) 100,00 %
11.01.2012 19:49 8,3 C 62 % 1030,2 hPa 0,0 l/m 25,7 km/h (4 Bft) W 267 0 min 0,000 mm 0 W/m 1,5 C -0,7 C 37,0 km/h (5 Bft) 100,00 %
11.01.2012 19:50 8,3 C 62 % 1030,2 hPa 0,0 l/m 26,9 km/h (4 Bft) W 269 0 min 0,000 mm 0 W/m 1,5 C -1,0 C 38,6 km/h (5 Bft) 100,00 %
11.01.2012 19:51 8,3 C 62 % 1030,2 hPa 0,0 l/m 34,9 km/h (5 Bft) NW 308 0 min 0,000 mm 0 W/m 1,5 C -2,8 C 46,7 km/h (6 Bft) 100,00 %
11.01.2012 19:52 8,3 C 62 % 1030,2 hPa 0,0 l/m 31,6 km/h (5 Bft) W-SW 250 0 min 0,000 mm 0 W/m 1,5 C -2,1 C 43,5 km/h (6 Bft) 100,00 %
11.01.2012 19:53 8,3 C 62 % 1030,2 hPa 0,0 l/m 31,6 km/h (5 Bft) W-SW 245 0 min 0,000 mm 0 W/m 1,5 C -2,1 C 43,5 km/h (6 Bft) 100,00 %
11.01.2012 19:54 8,3 C 62 % 1030,2 hPa 0,0 l/m 28,7 km/h (4 Bft) W 267 0 min 0,000 mm 0 W/m 1,5 C -1,4 C 33,8 km/h (5 Bft) 100,00 %
11.01.2012 19:55 8,2 C 62 % 1030,3 hPa 0,0 l/m 32,3 km/h (5 Bft) W 263 0 min 0,000 mm 0 W/m 1,4 C -2,4 C 48,3 km/h (6 Bft) 100,00 %
11.01.2012 19:56 8,2 C 62 % 1030,2 hPa 0,0 l/m 27,3 km/h (4 Bft) W 260 0 min 0,000 mm 0 W/m 1,4 C -1,2 C 37,0 km/h (5 Bft) 100,00 %
11.01.2012 19:57 8,2 C 62 % 1030,2 hPa 0,0 l/m 29,8 km/h (5 Bft) W-NW 296 0 min 0,000 mm 0 W/m 1,4 C -1,8 C 35,4 km/h (5 Bft) 100,00 %
11.01.2012 19:58 8,2 C 62 % 1030,3 hPa 0,0 l/m 23,7 km/h (4 Bft) W-SW 249 0 min 0,000 mm 0 W/m 1,4 C -0,2 C 35,4 km/h (5 Bft) 100,00 %
11.01.2012 19:59 8,2 C 62 % 1030,3 hPa 0,0 l/m 25,1 km/h (4 Bft) W 279 0 min 0,000 mm 0 W/m 1,4 C -0,6 C 48,3 km/h (6 Bft) 100,00 %
11.01.2012 20:00 8,2 C 62 % 1030,3 hPa 0,0 l/m 34,3 km/h (5 Bft) W-SW 257 0 min 0,000 mm 0 W/m 1,4 C -2,8 C 46,7 km/h (6 Bft) 100,00 %
11.01.2012 20:01 8,2 C 62 % 1030,3 hPa 0,0 l/m 25,3 km/h (4 Bft) W 260 0 min 0,102 mm 0 W/m 1,4 C -0,7 C 40,2 km/h (6 Bft) 100,00 %
11.01.2012 20:02 8,2 C 62 % 1030,3 hPa 0,0 l/m 19,3 km/h (3 Bft) W 265 0 min 0,000 mm 0 W/m 1,4 C 1,2 C 46,7 km/h (6 Bft) 100,00 %
11.01.2012 20:03 8,2 C 62 % 1030,3 hPa 0,0 l/m 28,4 km/h (4 Bft) W-SW 249 0 min 0,000 mm 0 W/m 1,4 C -1,5 C 46,7 km/h (6 Bft) 100,00 %
11.01.2012 20:04 8,2 C 62 % 1030,3 hPa 0,0 l/m 28,7 km/h (4 Bft) W 273 0 min 0,000 mm 0 W/m 1,4 C -1,6 C 41,8 km/h (6 Bft) 100,00 %
11.01.2012 20:05 8,2 C 62 % 1030,3 hPa 0,0 l/m 25,9 km/h (4 Bft) W-SW 256 0 min 0,000 mm 0 W/m 1,4 C -0,9 C 37,0 km/h (5 Bft) 100,00 %
11.01.2012 20:06 8,2 C 62 % 1030,5 hPa 0,0 l/m 29,2 km/h (5 Bft) W 265 0 min 0,000 mm 0 W/m 1,4 C -1,7 C 40,2 km/h (6 Bft) 100,00 %
11.01.2012 20:07 8,2 C 62 % 1030,3 hPa 0,0 l/m 25,9 km/h (4 Bft) W 262 0 min 0,000 mm 0 W/m 1,4 C -0,9 C 38,6 km/h (5 Bft) 100,00 %
11.01.2012 20:08 8,2 C 62 % 1030,3 hPa 0,0 l/m 23,5 km/h (4 Bft) W 276 0 min 0,000 mm 0 W/m 1,4 C -0,2 C 38,6 km/h (5 Bft) 100,00 %
11.01.2012 20:09 8,2 C 62 % 1030,5 hPa 0,0 l/m 24,3 km/h (4 Bft) W 277 0 min 0,000 mm 0 W/m 1,4 C -0,4 C 33,8 km/h (5 Bft) 100,00 %
11.01.2012 20:10 8,2 C 63 % 1030,4 hPa 0,0 l/m 19,6 km/h (3 Bft) W 267 0 min 0,000 mm 0 W/m 1,6 C 1,1 C 30,6 km/h (5 Bft) 100,00 %
11.01.2012 20:11 8,2 C 63 % 1030,6 hPa 0,0 l/m 21,8 km/h (4 Bft) W-NW 292 0 min 0,000 mm 0 W/m 1,6 C 0,4 C 33,8 km/h (5 Bft) 100,00 %
11.01.2012 20:12 8,2 C 63 % 1030,6 hPa 0,0 l/m 25,5 km/h (4 Bft) W-SW 256 0 min 0,000 mm 0 W/m 1,6 C -0,7 C 41,8 km/h (6 Bft) 100,00 %
11.01.2012 20:13 8,2 C 63 % 1030,6 hPa 0,0 l/m 22,7 km/h (4 Bft) W 272 0 min 0,000 mm 0 W/m 1,6 C 0,1 C 35,4 km/h (5 Bft) 100,00 %
11.01.2012 20:14 8,2 C 63 % 1030,6 hPa 0,0 l/m 19,7 km/h (3 Bft) W-SW 257 0 min 0,000 mm 0 W/m 1,6 C 1,1 C 29,0 km/h (5 Bft) 100,00 %
11.01.2012 20:15 8,2 C 63 % 1030,6 hPa 0,0 l/m 23,0 km/h (4 Bft) W-SW 257 0 min 0,000 mm 0 W/m 1,6 C -0,0 C 37,0 km/h (5 Bft) 100,00 %
11.01.2012 20:16 8,2 C 63 % 1030,6 hPa 0,0 l/m 23,9 km/h (4 Bft) W 271 0 min 0,000 mm 0 W/m 1,6 C -0,3 C 38,6 km/h (5 Bft) 100,00 %
11.01.2012 20:17 8,2 C 63 % 1030,6 hPa 0,0 l/m 23,0 km/h (4 Bft) W-SW 253 0 min 0,000 mm 0 W/m 1,6 C -0,0 C 37,0 km/h (5 Bft) 100,00 %
11.01.2012 20:18 8,2 C 63 % 1030,6 hPa 0,0 l/m 22,4 km/h (4 Bft) W 273 0 min 0,000 mm 0 W/m 1,6 C 0,2 C 32,2 km/h (5 Bft) 100,00 %
11.01.2012 20:19 8,2 C 63 % 1030,6 hPa 0,0 l/m 20,5 km/h (4 Bft) W-NW 302 0 min 0,000 mm 0 W/m 1,6 C 0,8 C 29,0 km/h (5 Bft) 100,00 %
11.01.2012 20:20 8,2 C 63 % 1030,6 hPa 0,0 l/m 20,5 km/h (4 Bft) W 261 0 min 0,000 mm 0 W/m 1,6 C 0,8 C 33,8 km/h (5 Bft) 100,00 %
11.01.2012 20:21 8,2 C 63 % 1030,6 hPa 0,0 l/m 22,2 km/h (4 Bft) W 280 0 min 0,000 mm 0 W/m 1,6 C 0,2 C 33,8 km/h (5 Bft) 100,00 %
11.01.2012 20:22 8,2 C 63 % 1030,6 hPa 0,0 l/m 21,7 km/h (4 Bft) W-SW 258 0 min 0,000 mm 0 W/m 1,6 C 0,4 C 33,8 km/h (5 Bft) 100,00 %
11.01.2012 20:23 8,2 C 63 % 1030,6 hPa 0,0 l/m 17,6 km/h (3 Bft) W-NW 296 0 min 0,000 mm 0 W/m 1,6 C 1,9 C 27,4 km/h (4 Bft) 100,00 %
11.01.2012 20:24 8,2 C 63 % 1030,6 hPa 0,0 l/m 23,0 km/h (4 Bft) W 271 0 min 0,000 mm 0 W/m 1,6 C -0,0 C 37,0 km/h (5 Bft) 100,00 %
11.01.2012 20:25 8,2 C 63 % 1030,7 hPa 0,0 l/m 22,5 km/h (4 Bft) W 274 0 min 0,000 mm 0 W/m 1,6 C 0,1 C 32,2 km/h (5 Bft) 100,00 %
11.01.2012 20:26 8,2 C 63 % 1030,7 hPa 0,0 l/m 27,1 km/h (4 Bft) W-NW 286 0 min 0,000 mm 0 W/m 1,6 C -1,2 C 41,8 km/h (6 Bft) 100,00 %
11.01.2012 20:27 8,2 C 63 % 1030,7 hPa 0,0 l/m 14,5 km/h (3 Bft) W 272 0 min 0,000 mm 0 W/m 1,6 C 3,2 C 24,1 km/h (4 Bft) 100,00 %
11.01.2012 20:28 8,2 C 63 % 1030,7 hPa 0,0 l/m 14,9 km/h (3 Bft) W-NW 284 0 min 0,000 mm 0 W/m 1,6 C 3,0 C 24,1 km/h (4 Bft) 100,00 %
11.01.2012 20:29 8,2 C 63 % 1030,7 hPa 0,0 l/m 18,2 km/h (3 Bft) W 281 0 min 0,000 mm 0 W/m 1,6 C 1,6 C 24,1 km/h (4 Bft) 100,00 %
11.01.2012 20:30 8,2 C 63 % 1030,8 hPa 0,0 l/m 27,6 km/h (4 Bft) W 271 0 min 0,000 mm 0 W/m 1,6 C -1,3 C 38,6 km/h (5 Bft) 100,00 %
11.01.2012 20:31 8,2 C 63 % 1030,9 hPa 0,0 l/m 22,7 km/h (4 Bft) W 269 0 min 0,000 mm 0 W/m 1,6 C 0,1 C 30,6 km/h (5 Bft) 100,00 %
11.01.2012 20:32 8,2 C 63 % 1030,6 hPa 0,0 l/m 24,3 km/h (4 Bft) W 264 0 min 0,000 mm 0 W/m 1,6 C -0,4 C 35,4 km/h (5 Bft) 95,83 %
11.01.2012 20:33 8,2 C 62 % 1030,7 hPa 0,0 l/m 20,3 km/h (4 Bft) W 272 0 min 0,000 mm 0 W/m 1,4 C 0,9 C 38,6 km/h (5 Bft) 100,00 %
11.01.2012 20:34 8,2 C 62 % 1030,6 hPa 0,0 l/m 16,9 km/h (3 Bft) W 265 0 min 0,000 mm 0 W/m 1,4 C 2,1 C 32,2 km/h (5 Bft) 100,00 %
11.01.2012 20:35 8,2 C 63 % 1030,6 hPa 0,0 l/m 14,9 km/h (3 Bft) W-NW 302 0 min 0,000 mm 0 W/m 1,6 C 3,0 C 22,5 km/h (4 Bft) 100,00 %
11.01.2012 20:36 8,2 C 63 % 1030,7 hPa 0,0 l/m 20,0 km/h (4 Bft) W 269 0 min 0,000 mm 0 W/m 1,6 C 1,0 C 37,0 km/h (5 Bft) 100,00 %
11.01.2012 20:37 8,2 C 63 % 1030,6 hPa 0,0 l/m 21,3 km/h (4 Bft) W 271 0 min 0,000 mm 0 W/m 1,6 C 0,5 C 33,8 km/h (5 Bft) 100,00 %
11.01.2012 20:38 8,2 C 63 % 1030,7 hPa 0,0 l/m 17,0 km/h (3 Bft) W-SW 254 0 min 0,000 mm 0 W/m 1,6 C 2,1 C 25,7 km/h (4 Bft) 100,00 %
11.01.2012 20:39 8,2 C 62 % 1030,7 hPa 0,0 l/m 19,4 km/h (3 Bft) W 275 0 min 0,000 mm 0 W/m 1,4 C 1,2 C 27,4 km/h (4 Bft) 100,00 %
11.01.2012 20:40 8,2 C 62 % 1030,6 hPa 0,0 l/m 18,0 km/h (3 Bft) W-NW 286 0 min 0,000 mm 0 W/m 1,4 C 1,7 C 32,2 km/h (5 Bft) 100,00 %
11.01.2012 20:41 8,2 C 63 % 1030,8 hPa 0,0 l/m 16,3 km/h (3 Bft) W-NW 295 0 min 0,000 mm 0 W/m 1,6 C 2,4 C 25,7 km/h (4 Bft) 100,00 %
11.01.2012 20:42 8,2 C 63 % 1030,8 hPa 0,0 l/m 14,6 km/h (3 Bft) W 264 0 min 0,000 mm 0 W/m 1,6 C 3,1 C 27,4 km/h (4 Bft) 100,00 %
11.01.2012 20:43 8,2 C 63 % 1030,8 hPa 0,0 l/m 12,9 km/h (3 Bft) W 269 0 min 0,000 mm 0 W/m 1,6 C 4,0 C 19,3 km/h (3 Bft) 100,00 %
11.01.2012 20:44 8,2 C 63 % 1030,7 hPa 0,0 l/m 12,3 km/h (3 Bft) W-SW 257 0 min 0,000 mm 0 W/m 1,6 C 4,3 C 20,9 km/h (4 Bft) 100,00 %
11.01.2012 20:45 8,2 C 63 % 1030,7 hPa 0,0 l/m 17,1 km/h (3 Bft) W-NW 290 0 min 0,000 mm 0 W/m 1,6 C 2,1 C 29,0 km/h (5 Bft) 100,00 %
11.01.2012 20:46 8,2 C 63 % 1030,6 hPa 0,0 l/m 17,7 km/h (3 Bft) W-NW 284 0 min 0,000 mm 0 W/m 1,6 C 1,8 C 29,0 km/h (5 Bft) 100,00 %
11.01.2012 20:47 8,2 C 63 % 1030,7 hPa 0,0 l/m 18,2 km/h (3 Bft) W 277 0 min 0,000 mm 0 W/m 1,6 C 1,6 C 29,0 km/h (5 Bft) 100,00 %
11.01.2012 20:48 8,2 C 63 % 1030,6 hPa 0,0 l/m 18,0 km/h (3 Bft) W 265 0 min 0,000 mm 0 W/m 1,6 C 1,7 C 24,1 km/h (4 Bft) 100,00 %
11.01.2012 20:49 8,1 C 63 % 1030,7 hPa 0,0 l/m 20,5 km/h (4 Bft) W 272 0 min 0,000 mm 0 W/m 1,5 C 0,7 C 33,8 km/h (5 Bft) 100,00 %
11.01.2012 20:50 8,1 C 63 % 1030,6 hPa 0,0 l/m 15,9 km/h (3 Bft) W-SW 258 0 min 0,000 mm 0 W/m 1,5 C 2,4 C 22,5 km/h (4 Bft) 100,00 %
11.01.2012 20:51 8,1 C 63 % 1030,6 hPa 0,0 l/m 19,3 km/h (3 Bft) W 269 0 min 0,000 mm 0 W/m 1,5 C 1,1 C 32,2 km/h (5 Bft) 100,00 %
11.01.2012 20:52 8,1 C 63 % 1030,6 hPa 0,0 l/m 18,8 km/h (3 Bft) W 270 0 min 0,000 mm 0 W/m 1,5 C 1,3 C 25,7 km/h (4 Bft) 100,00 %
11.01.2012 20:53 8,1 C 63 % 1030,6 hPa 0,0 l/m 18,1 km/h (3 Bft) W-NW 287 0 min 0,000 mm 0 W/m 1,5 C 1,5 C 25,7 km/h (4 Bft) 100,00 %
11.01.2012 20:54 8,2 C 63 % 1030,6 hPa 0,0 l/m 22,9 km/h (4 Bft) NW 318 0 min 0,000 mm 0 W/m 1,6 C 0,0 C 38,6 km/h (5 Bft) 100,00 %
11.01.2012 20:55 8,2 C 62 % 1030,6 hPa 0,0 l/m 19,7 km/h (3 Bft) W-SW 250 0 min 0,000 mm 0 W/m 1,4 C 1,1 C 35,4 km/h (5 Bft) 100,00 %
11.01.2012 20:56 8,2 C 62 % 1030,6 hPa 0,0 l/m 17,3 km/h (3 Bft) W 279 0 min 0,000 mm 0 W/m 1,4 C 2,0 C 25,7 km/h (4 Bft) 100,00 %
11.01.2012 20:57 8,2 C 62 % 1030,6 hPa 0,0 l/m 13,3 km/h (3 Bft) W-NW 285 0 min 0,000 mm 0 W/m 1,4 C 3,8 C 22,5 km/h (4 Bft) 100,00 %
11.01.2012 20:58 8,2 C 63 % 1030,6 hPa 0,0 l/m 16,7 km/h (3 Bft) W 271 0 min 0,000 mm 0 W/m 1,6 C 2,2 C 25,7 km/h (4 Bft) 100,00 %
11.01.2012 20:59 8,2 C 63 % 1030,6 hPa 0,0 l/m 16,2 km/h (3 Bft) W 281 0 min 0,000 mm 0 W/m 1,6 C 2,4 C 25,7 km/h (4 Bft) 100,00 %
11.01.2012 21:00 8,2 C 62 % 1030,6 hPa 0,0 l/m 16,3 km/h (3 Bft) W 269 0 min 0,000 mm 0 W/m 1,4 C 2,4 C 30,6 km/h (5 Bft) 95,83 %
11.01.2012 21:01 8,2 C 62 % 1030,7 hPa 0,0 l/m 10,3 km/h (2 Bft) W-NW 288 0 min 0,076 mm 0 W/m 1,4 C 5,4 C 17,7 km/h (3 Bft) 100,00 %
11.01.2012 21:03 8,1 C 63 % 1030,7 hPa 0,0 l/m 13,1 km/h (3 Bft) W 273 0 min 0,000 mm 0 W/m 1,5 C 3,7 C 27,4 km/h (4 Bft) 100,00 %
11.01.2012 21:04 8,1 C 63 % 1030,6 hPa 0,0 l/m 15,5 km/h (3 Bft) W 269 0 min 0,000 mm 0 W/m 1,5 C 2,6 C 29,0 km/h (5 Bft) 100,00 %
11.01.2012 21:05 8,1 C 63 % 1030,7 hPa 0,0 l/m 17,1 km/h (3 Bft) W-NW 286 0 min 0,000 mm 0 W/m 1,5 C 1,9 C 29,0 km/h (5 Bft) 100,00 %
11.01.2012 21:06 8,1 C 63 % 1030,6 hPa 0,0 l/m 11,0 km/h (2 Bft) W-NW 296 0 min 0,000 mm 0 W/m 1,5 C 4,9 C 22,5 km/h (4 Bft) 100,00 %
11.01.2012 21:07 8,1 C 63 % 1030,6 hPa 0,0 l/m 12,5 km/h (3 Bft) W 269 0 min 0,000 mm 0 W/m 1,5 C 4,1 C 22,5 km/h (4 Bft) 100,00 %
11.01.2012 21:08 8,1 C 63 % 1030,7 hPa 0,0 l/m 13,1 km/h (3 Bft) W 280 0 min 0,000 mm 0 W/m 1,5 C 3,7 C 19,3 km/h (3 Bft) 100,00 %
11.01.2012 21:09 8,1 C 63 % 1030,7 hPa 0,0 l/m 15,3 km/h (3 Bft) W 281 0 min 0,000 mm 0 W/m 1,5 C 2,7 C 25,7 km/h (4 Bft) 100,00 %
11.01.2012 21:10 8,1 C 63 % 1030,7 hPa 0,0 l/m 14,3 km/h (3 Bft) W 259 0 min 0,000 mm 0 W/m 1,5 C 3,2 C 20,9 km/h (4 Bft) 100,00 %
11.01.2012 21:11 8,1 C 63 % 1030,7 hPa 0,0 l/m 11,7 km/h (2 Bft) W 273 0 min 0,000 mm 0 W/m 1,5 C 4,5 C 16,1 km/h (3 Bft) 100,00 %
11.01.2012 21:12 8,1 C 63 % 1030,6 hPa 0,0 l/m 17,4 km/h (3 Bft) W 265 0 min 0,000 mm 0 W/m 1,5 C 1,8 C 24,1 km/h (4 Bft) 100,00 %
11.01.2012 21:13 8,1 C 63 % 1030,6 hPa 0,0 l/m 15,2 km/h (3 Bft) W 281 0 min 0,000 mm 0 W/m 1,5 C 2,7 C 25,7 km/h (4 Bft) 100,00 %
11.01.2012 21:14 8,1 C 63 % 1030,5 hPa 0,0 l/m 18,8 km/h (3 Bft) W 279 0 min 0,000 mm 0 W/m 1,5 C 1,3 C 29,0 km/h (5 Bft) 100,00 %
11.01.2012 21:15 8,1 C 63 % 1030,5 hPa 0,0 l/m 17,3 km/h (3 Bft) W 280 0 min 0,000 mm 0 W/m 1,5 C 1,8 C 25,7 km/h (4 Bft) 100,00 %
11.01.2012 21:16 8,1 C 63 % 1030,4 hPa 0,0 l/m 19,6 km/h (3 Bft) W-NW 288 0 min 0,000 mm 0 W/m 1,5 C 1,0 C 29,0 km/h (5 Bft) 100,00 %
11.01.2012 21:17 8,1 C 63 % 1030,5 hPa 0,0 l/m 16,2 km/h (3 Bft) W 281 0 min 0,000 mm 0 W/m 1,5 C 2,3 C 25,7 km/h (4 Bft) 100,00 %
11.01.2012 21:18 8,1 C 63 % 1030,5 hPa 0,0 l/m 23,2 km/h (4 Bft) W-NW 295 0 min 0,000 mm 0 W/m 1,5 C -0,2 C 35,4 km/h (5 Bft) 100,00 %
11.01.2012 21:19 8,1 C 63 % 1030,5 hPa 0,0 l/m 20,7 km/h (4 Bft) W 279 0 min 0,000 mm 0 W/m 1,5 C 0,6 C 29,0 km/h (5 Bft) 100,00 %
11.01.2012 21:20 8,1 C 63 % 1030,4 hPa 0,0 l/m 20,1 km/h (4 Bft) W 274 0 min 0,000 mm 0 W/m 1,5 C 0,8 C 30,6 km/h (5 Bft) 100,00 %
11.01.2012 21:21 8,1 C 63 % 1030,3 hPa 0,0 l/m 13,8 km/h (3 Bft) W 279 0 min 0,000 mm 0 W/m 1,5 C 3,4 C 20,9 km/h (4 Bft) 100,00 %
11.01.2012 21:22 8,1 C 63 % 1030,4 hPa 0,0 l/m 15,4 km/h (3 Bft) W 265 0 min 0,000 mm 0 W/m 1,5 C 2,7 C 30,6 km/h (5 Bft) 100,00 %
11.01.2012 21:23 8,1 C 63 % 1030,4 hPa 0,0 l/m 13,8 km/h (3 Bft) W 273 0 min 0,000 mm 0 W/m 1,5 C 3,4 C 27,4 km/h (4 Bft) 100,00 %
11.01.2012 21:24 8,2 C 63 % 1030,4 hPa 0,0 l/m 11,0 km/h (2 Bft) W-NW 289 0 min 0,000 mm 0 W/m 1,6 C 5,0 C 19,3 km/h (3 Bft) 100,00 %
11.01.2012 21:25 8,1 C 63 % 1030,4 hPa 0,0 l/m 18,4 km/h (3 Bft) W-SW 252 0 min 0,000 mm 0 W/m 1,5 C 1,4 C 25,7 km/h (4 Bft) 100,00 %
11.01.2012 21:26 8,1 C 63 % 1030,4 hPa 0,0 l/m 20,0 km/h (4 Bft) W 263 0 min 0,000 mm 0 W/m 1,5 C 0,8 C 27,4 km/h (4 Bft) 100,00 %
11.01.2012 21:27 8,1 C 63 % 1030,4 hPa 0,0 l/m 14,1 km/h (3 Bft) W 273 0 min 0,000 mm 0 W/m 1,5 C 3,3 C 20,9 km/h (4 Bft) 100,00 %
11.01.2012 21:28 8,2 C 63 % 1030,4 hPa 0,0 l/m 15,3 km/h (3 Bft) W 259 0 min 0,000 mm 0 W/m 1,6 C 2,8 C 22,5 km/h (4 Bft) 100,00 %
11.01.2012 21:29 8,2 C 63 % 1030,4 hPa 0,0 l/m 14,3 km/h (3 Bft) W 261 0 min 0,000 mm 0 W/m 1,6 C 3,3 C 20,9 km/h (4 Bft) 100,00 %
11.01.2012 21:30 8,1 C 63 % 1030,4 hPa 0,0 l/m 14,5 km/h (3 Bft) W 267 0 min 0,000 mm 0 W/m 1,5 C 3,1 C 24,1 km/h (4 Bft) 100,00 %
11.01.2012 21:31 8,1 C 63 % 1030,4 hPa 0,0 l/m 17,0 km/h (3 Bft) W 274 0 min 0,000 mm 0 W/m 1,5 C 2,0 C 30,6 km/h (5 Bft) 100,00 %
11.01.2012 21:32 8,1 C 63 % 1030,4 hPa 0,0 l/m 16,8 km/h (3 Bft) W-NW 297 0 min 0,000 mm 0 W/m 1,5 C 2,1 C 22,5 km/h (4 Bft) 100,00 %
11.01.2012 21:33 8,1 C 63 % 1030,4 hPa 0,0 l/m 14,6 km/h (3 Bft) W-NW 286 0 min 0,000 mm 0 W/m 1,5 C 3,0 C 24,1 km/h (4 Bft) 100,00 %
11.01.2012 21:34 8,1 C 63 % 1030,4 hPa 0,0 l/m 18,0 km/h (3 Bft) W-NW 284 0 min 0,000 mm 0 W/m 1,5 C 1,6 C 25,7 km/h (4 Bft) 100,00 %
11.01.2012 21:35 8,1 C 63 % 1030,4 hPa 0,0 l/m 21,1 km/h (4 Bft) W-NW 299 0 min 0,000 mm 0 W/m 1,5 C 0,5 C 29,0 km/h (5 Bft) 100,00 %
11.01.2012 21:36 8,1 C 63 % 1030,4 hPa 0,0 l/m 11,5 km/h (2 Bft) W 279 0 min 0,000 mm 0 W/m 1,5 C 4,6 C 22,5 km/h (4 Bft) 100,00 %
11.01.2012 21:37 8,1 C 63 % 1030,4 hPa 0,0 l/m 10,1 km/h (2 Bft) W 260 0 min 0,000 mm 0 W/m 1,5 C 5,4 C 19,3 km/h (3 Bft) 100,00 %
11.01.2012 21:38 8,1 C 63 % 1030,5 hPa 0,0 l/m 9,2 km/h (2 Bft) W 265 0 min 0,000 mm 0 W/m 1,5 C 6,0 C 19,3 km/h (3 Bft) 100,00 %
11.01.2012 21:39 8,1 C 64 % 1030,5 hPa 0,0 l/m 13,4 km/h (3 Bft) W-NW 295 0 min 0,000 mm 0 W/m 1,7 C 3,6 C 24,1 km/h (4 Bft) 100,00 %
11.01.2012 21:40 8,1 C 64 % 1030,6 hPa 0,0 l/m 14,8 km/h (3 Bft) W 276 0 min 0,000 mm 0 W/m 1,7 C 2,9 C 27,4 km/h (4 Bft) 100,00 %
11.01.2012 21:41 8,1 C 64 % 1030,6 hPa 0,0 l/m 12,9 km/h (3 Bft) W-NW 287 0 min 0,000 mm 0 W/m 1,7 C 3,8 C 27,4 km/h (4 Bft) 100,00 %
11.01.2012 21:42 8,1 C 64 % 1030,6 hPa 0,0 l/m 16,0 km/h (3 Bft) W-NW 302 0 min 0,000 mm 0 W/m 1,7 C 2,4 C 25,7 km/h (4 Bft) 100,00 %
11.01.2012 21:43 8,1 C 64 % 1030,5 hPa 0,0 l/m 11,1 km/h (2 Bft) W 271 0 min 0,000 mm 0 W/m 1,7 C 4,8 C 17,7 km/h (3 Bft) 100,00 %
11.01.2012 21:44 8,0 C 64 % 1030,6 hPa 0,0 l/m 15,8 km/h (3 Bft) W 276 0 min 0,000 mm 0 W/m 1,6 C 2,4 C 27,4 km/h (4 Bft) 100,00 %
11.01.2012 21:45 8,0 C 64 % 1030,5 hPa 0,0 l/m 10,4 km/h (2 Bft) W 271 0 min 0,000 mm 0 W/m 1,6 C 5,1 C 17,7 km/h (3 Bft) 100,00 %
11.01.2012 21:46 8,0 C 64 % 1030,6 hPa 0,0 l/m 14,2 km/h (3 Bft) W-SW 244 0 min 0,000 mm 0 W/m 1,6 C 3,1 C 25,7 km/h (4 Bft) 100,00 %
11.01.2012 21:47 8,0 C 64 % 1030,5 hPa 0,0 l/m 18,4 km/h (3 Bft) W 279 0 min 0,000 mm 0 W/m 1,6 C 1,3 C 29,0 km/h (5 Bft) 100,00 %
11.01.2012 21:48 8,0 C 64 % 1030,5 hPa 0,0 l/m 16,1 km/h (3 Bft) W-SW 257 0 min 0,000 mm 0 W/m 1,6 C 2,2 C 27,4 km/h (4 Bft) 100,00 %
11.01.2012 21:49 8,0 C 64 % 1030,4 hPa 0,0 l/m 23,9 km/h (4 Bft) W 260 0 min 0,000 mm 0 W/m 1,6 C -0,6 C 35,4 km/h (5 Bft) 100,00 %
11.01.2012 21:50 8,0 C 64 % 1030,5 hPa 0,0 l/m 14,6 km/h (3 Bft) W-NW 298 0 min 0,000 mm 0 W/m 1,6 C 2,9 C 20,9 km/h (4 Bft) 100,00 %
11.01.2012 21:51 8,0 C 64 % 1030,4 hPa 0,0 l/m 14,8 km/h (3 Bft) NW 313 0 min 0,000 mm 0 W/m 1,6 C 2,8 C 25,7 km/h (4 Bft) 100,00 %
11.01.2012 21:52 8,0 C 64 % 1030,4 hPa 0,0 l/m 15,3 km/h (3 Bft) W 261 0 min 0,000 mm 0 W/m 1,6 C 2,6 C 24,1 km/h (4 Bft) 100,00 %
11.01.2012 21:53 8,0 C 64 % 1030,4 hPa 0,0 l/m 15,5 km/h (3 Bft) W 260 0 min 0,000 mm 0 W/m 1,6 C 2,5 C 24,1 km/h (4 Bft) 100,00 %
11.01.2012 21:54 8,1 C 64 % 1030,5 hPa 0,0 l/m 19,7 km/h (3 Bft) W 263 0 min 0,000 mm 0 W/m 1,7 C 0,9 C 29,0 km/h (5 Bft) 100,00 %
11.01.2012 21:55 8,1 C 64 % 1030,5 hPa 0,0 l/m 21,1 km/h (4 Bft) W 264 0 min 0,000 mm 0 W/m 1,7 C 0,5 C 30,6 km/h (5 Bft) 100,00 %
11.01.2012 21:56 8,1 C 64 % 1030,5 hPa 0,0 l/m 16,4 km/h (3 Bft) W 272 0 min 0,000 mm 0 W/m 1,7 C 2,2 C 24,1 km/h (4 Bft) 100,00 %
11.01.2012 21:57 8,1 C 64 % 1030,5 hPa 0,0 l/m 19,8 km/h (3 Bft) W 276 0 min 0,000 mm 0 W/m 1,7 C 0,9 C 27,4 km/h (4 Bft) 100,00 %
11.01.2012 21:58 8,1 C 64 % 1030,6 hPa 0,0 l/m 15,3 km/h (3 Bft) W-SW 240 0 min 0,000 mm 0 W/m 1,7 C 2,7 C 22,5 km/h (4 Bft) 100,00 %
11.01.2012 21:59 8,1 C 64 % 1030,6 hPa 0,0 l/m 19,0 km/h (3 Bft) W-SW 253 0 min 0,000 mm 0 W/m 1,7 C 1,2 C 25,7 km/h (4 Bft) 100,00 %
11.01.2012 22:00 8,1 C 64 % 1030,6 hPa 0,0 l/m 18,2 km/h (3 Bft) W 275 0 min 0,000 mm 0 W/m 1,7 C 1,5 C 30,6 km/h (5 Bft) 100,00 %
11.01.2012 22:01 8,1 C 64 % 1030,6 hPa 0,0 l/m 12,1 km/h (2 Bft) W-SW 238 0 min 0,076 mm 0 W/m 1,7 C 4,3 C 19,3 km/h (3 Bft) 100,00 %
11.01.2012 22:02 8,1 C 64 % 1030,6 hPa 0,0 l/m 15,3 km/h (3 Bft) W 261 0 min 0,000 mm 0 W/m 1,7 C 2,7 C 20,9 km/h (4 Bft) 100,00 %
11.01.2012 22:04 8,1 C 64 % 1030,5 hPa 0,0 l/m 9,6 km/h (2 Bft) W 262 0 min 0,000 mm 0 W/m 1,7 C 5,8 C 20,9 km/h (4 Bft) 100,00 %
11.01.2012 22:05 8,1 C 64 % 1030,6 hPa 0,0 l/m 12,9 km/h (3 Bft) W-NW 301 0 min 0,000 mm 0 W/m 1,7 C 3,8 C 17,7 km/h (3 Bft) 100,00 %
11.01.2012 22:06 8,1 C 64 % 1030,6 hPa 0,0 l/m 12,0 km/h (2 Bft) W 279 0 min 0,000 mm 0 W/m 1,7 C 4,3 C 20,9 km/h (4 Bft) 100,00 %
11.01.2012 22:07 8,1 C 64 % 1030,6 hPa 0,0 l/m 15,7 km/h (3 Bft) W-SW 246 0 min 0,000 mm 0 W/m 1,7 C 2,5 C 25,7 km/h (4 Bft) 100,00 %
11.01.2012 22:08 8,1 C 64 % 1030,6 hPa 0,0 l/m 15,8 km/h (3 Bft) W 278 0 min 0,000 mm 0 W/m 1,7 C 2,5 C 29,0 km/h (5 Bft) 100,00 %
11.01.2012 22:09 8,1 C 64 % 1030,6 hPa 0,0 l/m 11,5 km/h (2 Bft) NW 310 0 min 0,000 mm 0 W/m 1,7 C 4,6 C 27,4 km/h (4 Bft) 100,00 %
11.01.2012 22:10 8,1 C 64 % 1030,6 hPa 0,0 l/m 16,2 km/h (3 Bft) W-SW 242 0 min 0,000 mm 0 W/m 1,7 C 2,3 C 27,4 km/h (4 Bft) 100,00 %
11.01.2012 22:11 8,1 C 64 % 1030,6 hPa 0,0 l/m 9,4 km/h (2 Bft) W 266 0 min 0,000 mm 0 W/m 1,7 C 5,9 C 17,7 km/h (3 Bft) 100,00 %
11.01.2012 22:12 8,1 C 64 % 1030,6 hPa 0,0 l/m 11,5 km/h (2 Bft) W-SW 253 0 min 0,000 mm 0 W/m 1,7 C 4,6 C 19,3 km/h (3 Bft) 100,00 %
11.01.2012 22:13 8,1 C 64 % 1030,7 hPa 0,0 l/m 10,8 km/h (2 Bft) W 279 0 min 0,000 mm 0 W/m 1,7 C 5,0 C 20,9 km/h (4 Bft) 100,00 %
11.01.2012 22:14 8,1 C 64 % 1030,6 hPa 0,0 l/m 8,1 km/h (2 Bft) W 269 0 min 0,000 mm 0 W/m 1,7 C 6,8 C 12,9 km/h (3 Bft) 100,00 %
11.01.2012 22:15 8,1 C 64 % 1030,6 hPa 0,0 l/m 9,2 km/h (2 Bft) W 259 0 min 0,000 mm 0 W/m 1,7 C 6,0 C 17,7 km/h (3 Bft) 100,00 %
11.01.2012 22:16 8,1 C 64 % 1030,6 hPa 0,0 l/m 8,2 km/h (2 Bft) W 259 0 min 0,000 mm 0 W/m 1,7 C 6,7 C 11,3 km/h (2 Bft) 100,00 %
11.01.2012 22:17 8,1 C 64 % 1030,6 hPa 0,0 l/m 6,6 km/h (2 Bft) W 269 0 min 0,000 mm 0 W/m 1,7 C 8,0 C 11,3 km/h (2 Bft) 100,00 %
11.01.2012 22:18 8,1 C 64 % 1030,6 hPa 0,0 l/m 11,0 km/h (2 Bft) W-SW 257 0 min 0,000 mm 0 W/m 1,7 C 4,9 C 19,3 km/h (3 Bft) 100,00 %
11.01.2012 22:19 8,1 C 64 % 1030,6 hPa 0,0 l/m 12,2 km/h (2 Bft) W 270 0 min 0,000 mm 0 W/m 1,7 C 4,2 C 19,3 km/h (3 Bft) 100,00 %
11.01.2012 22:20 8,1 C 64 % 1030,6 hPa 0,0 l/m 8,9 km/h (2 Bft) W-NW 289 0 min 0,000 mm 0 W/m 1,7 C 6,2 C 16,1 km/h (3 Bft) 100,00 %
11.01.2012 22:21 8,1 C 64 % 1030,6 hPa 0,0 l/m 10,5 km/h (2 Bft) W 278 0 min 0,000 mm 0 W/m 1,7 C 5,2 C 22,5 km/h (4 Bft) 100,00 %
11.01.2012 22:22 8,1 C 64 % 1030,6 hPa 0,0 l/m 8,8 km/h (2 Bft) W 277 0 min 0,000 mm 0 W/m 1,7 C 6,3 C 22,5 km/h (4 Bft) 100,00 %
11.01.2012 22:23 8,0 C 64 % 1030,5 hPa 0,0 l/m 11,3 km/h (2 Bft) W 269 0 min 0,000 mm 0 W/m 1,6 C 4,6 C 19,3 km/h (3 Bft) 100,00 %
11.01.2012 22:24 8,0 C 64 % 1030,6 hPa 0,0 l/m 10,3 km/h (2 Bft) W 272 0 min 0,000 mm 0 W/m 1,6 C 5,2 C 17,7 km/h (3 Bft) 100,00 %
11.01.2012 22:25 8,1 C 64 % 1030,5 hPa 0,0 l/m 6,2 km/h (2 Bft) W 267 0 min 0,000 mm 0 W/m 1,7 C 8,1 C 11,3 km/h (2 Bft) 100,00 %
11.01.2012 22:26 8,0 C 64 % 1030,5 hPa 0,0 l/m 13,9 km/h (3 Bft) W 274 0 min 0,000 mm 0 W/m 1,6 C 3,2 C 17,7 km/h (3 Bft) 100,00 %
11.01.2012 22:27 8,0 C 64 % 1030,5 hPa 0,0 l/m 7,2 km/h (2 Bft) W 279 0 min 0,000 mm 0 W/m 1,6 C 7,4 C 11,3 km/h (2 Bft) 100,00 %
11.01.2012 22:28 8,0 C 64 % 1030,5 hPa 0,0 l/m 6,7 km/h (2 Bft) W 259 0 min 0,000 mm 0 W/m 1,6 C 7,8 C 11,3 km/h (2 Bft) 100,00 %
11.01.2012 22:29 8,0 C 64 % 1030,5 hPa 0,0 l/m 6,6 km/h (2 Bft) W 267 0 min 0,000 mm 0 W/m 1,6 C 7,9 C 14,5 km/h (3 Bft) 100,00 %
11.01.2012 22:30 8,0 C 64 % 1030,5 hPa 0,0 l/m 8,9 km/h (2 Bft) W 263 0 min 0,000 mm 0 W/m 1,6 C 6,1 C 14,5 km/h (3 Bft) 100,00 %
11.01.2012 22:31 7,9 C 64 % 1030,6 hPa 0,0 l/m 4,4 km/h (1 Bft) W 263 0 min 0,000 mm 0 W/m 1,5 C 7,9 C 6,4 km/h (2 Bft) 100,00 %
11.01.2012 22:32 7,9 C 64 % 1030,6 hPa 0,0 l/m 7,4 km/h (2 Bft) W 271 0 min 0,000 mm 0 W/m 1,5 C 7,1 C 11,3 km/h (2 Bft) 100,00 %
11.01.2012 22:33 7,9 C 65 % 1030,6 hPa 0,0 l/m 4,7 km/h (1 Bft) W 273 0 min 0,000 mm 0 W/m 1,7 C 7,9 C 8,0 km/h (2 Bft) 100,00 %
11.01.2012 22:34 7,9 C 65 % 1030,6 hPa 0,0 l/m 6,5 km/h (2 Bft) W 273 0 min 0,000 mm 0 W/m 1,7 C 7,8 C 14,5 km/h (3 Bft) 100,00 %
11.01.2012 22:35 7,9 C 65 % 1030,6 hPa 0,0 l/m 9,9 km/h (2 Bft) W-NW 297 0 min 0,000 mm 0 W/m 1,7 C 5,3 C 19,3 km/h (3 Bft) 100,00 %
11.01.2012 22:36 7,9 C 65 % 1030,6 hPa 0,0 l/m 6,4 km/h (2 Bft) W-NW 287 0 min 0,000 mm 0 W/m 1,7 C 7,9 C 9,7 km/h (2 Bft) 100,00 %
11.01.2012 22:37 7,9 C 65 % 1030,6 hPa 0,0 l/m 9,4 km/h (2 Bft) W-NW 295 0 min 0,000 mm 0 W/m 1,7 C 5,7 C 12,9 km/h (3 Bft) 100,00 %
11.01.2012 22:38 7,9 C 65 % 1030,6 hPa 0,0 l/m 7,0 km/h (2 Bft) W-NW 299 0 min 0,000 mm 0 W/m 1,7 C 7,4 C 14,5 km/h (3 Bft) 100,00 %
11.01.2012 22:39 7,9 C 65 % 1030,6 hPa 0,0 l/m 7,6 km/h (2 Bft) W 281 0 min 0,000 mm 0 W/m 1,7 C 7,0 C 12,9 km/h (3 Bft) 100,00 %
11.01.2012 22:40 7,9 C 65 % 1030,6 hPa 0,0 l/m 6,1 km/h (2 Bft) W-SW 255 0 min 0,000 mm 0 W/m 1,7 C 7,9 C 11,3 km/h (2 Bft) 100,00 %
11.01.2012 22:41 7,8 C 65 % 1030,6 hPa 0,0 l/m 5,0 km/h (1 Bft) W 276 0 min 0,000 mm 0 W/m 1,6 C 7,8 C 8,0 km/h (2 Bft) 100,00 %
11.01.2012 22:42 7,8 C 65 % 1030,6 hPa 0,0 l/m 9,2 km/h (2 Bft) NW 309 0 min 0,000 mm 0 W/m 1,6 C 5,7 C 16,1 km/h (3 Bft) 100,00 %
11.01.2012 22:43 7,8 C 65 % 1030,6 hPa 0,0 l/m 7,0 km/h (2 Bft) W-NW 288 0 min 0,000 mm 0 W/m 1,6 C 7,3 C 17,7 km/h (3 Bft) 100,00 %
11.01.2012 22:44 7,8 C 65 % 1030,6 hPa 0,0 l/m 8,2 km/h (2 Bft) W 271 0 min 0,000 mm 0 W/m 1,6 C 6,4 C 16,1 km/h (3 Bft) 100,00 %
11.01.2012 22:45 7,8 C 65 % 1030,6 hPa 0,0 l/m 7,3 km/h (2 Bft) W-NW 283 0 min 0,000 mm 0 W/m 1,6 C 7,1 C 11,3 km/h (2 Bft) 95,83 %
11.01.2012 22:46 7,8 C 65 % 1030,6 hPa 0,0 l/m 7,2 km/h (2 Bft) W 281 0 min 0,000 mm 0 W/m 1,6 C 7,2 C 11,3 km/h (2 Bft) 100,00 %
11.01.2012 22:47 7,8 C 66 % 1030,5 hPa 0,0 l/m 8,6 km/h (2 Bft) W 280 0 min 0,000 mm 0 W/m 1,9 C 6,1 C 12,9 km/h (3 Bft) 100,00 %
11.01.2012 22:48 7,8 C 66 % 1030,5 hPa 0,0 l/m 8,9 km/h (2 Bft) W 278 0 min 0,000 mm 0 W/m 1,9 C 5,9 C 14,5 km/h (3 Bft) 100,00 %
11.01.2012 22:49 7,8 C 66 % 1030,6 hPa 0,0 l/m 6,7 km/h (2 Bft) W 263 0 min 0,000 mm 0 W/m 1,9 C 7,6 C 11,3 km/h (2 Bft) 100,00 %
11.01.2012 22:50 7,8 C 66 % 1030,5 hPa 0,0 l/m 6,6 km/h (2 Bft) W 273 0 min 0,000 mm 0 W/m 1,9 C 7,7 C 11,3 km/h (2 Bft) 100,00 %
11.01.2012 22:51 7,8 C 66 % 1030,6 hPa 0,0 l/m 5,7 km/h (1 Bft) W 261 0 min 0,000 mm 0 W/m 1,9 C 7,8 C 16,1 km/h (3 Bft) 100,00 %
11.01.2012 22:52 7,8 C 66 % 1030,6 hPa 0,0 l/m 4,6 km/h (1 Bft) W 263 0 min 0,000 mm 0 W/m 1,9 C 7,8 C 8,0 km/h (2 Bft) 100,00 %
11.01.2012 22:53 7,8 C 66 % 1030,6 hPa 0,0 l/m 7,2 km/h (2 Bft) W 269 0 min 0,000 mm 0 W/m 1,9 C 7,2 C 11,3 km/h (2 Bft) 100,00 %
11.01.2012 22:54 7,8 C 66 % 1030,5 hPa 0,0 l/m 10,6 km/h (2 Bft) W-NW 286 0 min 0,000 mm 0 W/m 1,9 C 4,8 C 19,3 km/h (3 Bft) 100,00 %
11.01.2012 22:55 7,7 C 66 % 1030,5 hPa 0,0 l/m 7,1 km/h (2 Bft) W-NW 290 0 min 0,000 mm 0 W/m 1,8 C 7,1 C 11,3 km/h (2 Bft) 100,00 %
11.01.2012 22:56 7,7 C 66 % 1030,6 hPa 0,0 l/m 6,9 km/h (2 Bft) W-NW 290 0 min 0,000 mm 0 W/m 1,8 C 7,3 C 9,7 km/h (2 Bft) 100,00 %
11.01.2012 22:57 7,7 C 66 % 1030,6 hPa 0,0 l/m 8,0 km/h (2 Bft) W 275 0 min 0,000 mm 0 W/m 1,8 C 6,4 C 14,5 km/h (3 Bft) 100,00 %
11.01.2012 22:58 7,7 C 66 % 1030,6 hPa 0,0 l/m 5,4 km/h (1 Bft) W-NW 283 0 min 0,000 mm 0 W/m 1,8 C 7,7 C 11,3 km/h (2 Bft) 95,83 %
11.01.2012 22:59 7,7 C 66 % 1030,6 hPa 0,0 l/m 5,1 km/h (1 Bft) W 281 0 min 0,000 mm 0 W/m 1,8 C 7,7 C 8,0 km/h (2 Bft) 100,00 %
11.01.2012 23:00 7,7 C 66 % 1030,6 hPa 0,0 l/m 5,7 km/h (1 Bft) W 275 0 min 0,000 mm 0 W/m 1,8 C 7,7 C 11,3 km/h (2 Bft) 100,00 %
11.01.2012 23:01 7,7 C 67 % 1030,6 hPa 0,0 l/m 5,7 km/h (1 Bft) W 278 0 min 0,051 mm 0 W/m 2,0 C 7,7 C 9,7 km/h (2 Bft) 100,00 %
11.01.2012 23:03 7,7 C 67 % 1030,6 hPa 0,0 l/m 5,7 km/h (1 Bft) W 277 0 min 0,000 mm 0 W/m 2,0 C 7,7 C 11,3 km/h (2 Bft) 100,00 %
11.01.2012 23:04 7,7 C 66 % 1030,5 hPa 0,0 l/m 3,8 km/h (1 Bft) W 277 0 min 0,000 mm 0 W/m 1,8 C 7,7 C 8,0 km/h (2 Bft) 100,00 %
11.01.2012 23:05 7,7 C 66 % 1030,6 hPa 0,0 l/m 7,9 km/h (2 Bft) W 275 0 min 0,000 mm 0 W/m 1,8 C 6,5 C 12,9 km/h (3 Bft) 100,00 %
11.01.2012 23:06 7,7 C 67 % 1030,6 hPa 0,0 l/m 7,9 km/h (2 Bft) W 269 0 min 0,000 mm 0 W/m 2,0 C 6,5 C 19,3 km/h (3 Bft) 100,00 %
11.01.2012 23:07 7,6 C 67 % 1030,6 hPa 0,0 l/m 6,4 km/h (2 Bft) W-NW 288 0 min 0,000 mm 0 W/m 1,9 C 7,6 C 12,9 km/h (3 Bft) 100,00 %
11.01.2012 23:08 7,6 C 67 % 1030,6 hPa 0,0 l/m 4,9 km/h (1 Bft) W-NW 294 0 min 0,000 mm 0 W/m 1,9 C 7,6 C 8,0 km/h (2 Bft) 100,00 %
11.01.2012 23:09 7,6 C 67 % 1030,6 hPa 0,0 l/m 7,1 km/h (2 Bft) W 271 0 min 0,000 mm 0 W/m 1,9 C 7,0 C 17,7 km/h (3 Bft) 100,00 %
11.01.2012 23:10 7,6 C 67 % 1030,6 hPa 0,0 l/m 5,4 km/h (1 Bft) W 271 0 min 0,000 mm 0 W/m 1,9 C 7,6 C 9,7 km/h (2 Bft) 100,00 %
11.01.2012 23:11 7,6 C 67 % 1030,6 hPa 0,0 l/m 7,1 km/h (2 Bft) W 275 0 min 0,000 mm 0 W/m 1,9 C 7,0 C 9,7 km/h (2 Bft) 100,00 %
11.01.2012 23:12 7,6 C 67 % 1030,6 hPa 0,0 l/m 6,0 km/h (2 Bft) W 269 0 min 0,000 mm 0 W/m 1,9 C 7,6 C 9,7 km/h (2 Bft) 100,00 %
11.01.2012 23:13 7,6 C 67 % 1030,6 hPa 0,0 l/m 13,7 km/h (3 Bft) W 280 0 min 0,000 mm 0 W/m 1,9 C 2,9 C 22,5 km/h (4 Bft) 100,00 %
11.01.2012 23:14 7,6 C 67 % 1030,6 hPa 0,0 l/m 12,0 km/h (2 Bft) W-NW 288 0 min 0,000 mm 0 W/m 1,9 C 3,8 C 22,5 km/h (4 Bft) 100,00 %
11.01.2012 23:15 7,6 C 67 % 1030,6 hPa 0,0 l/m 14,1 km/h (3 Bft) W 272 0 min 0,000 mm 0 W/m 1,9 C 2,7 C 20,9 km/h (4 Bft) 100,00 %
11.01.2012 23:16 7,6 C 67 % 1030,5 hPa 0,0 l/m 11,0 km/h (2 Bft) W 273 0 min 0,000 mm 0 W/m 1,9 C 4,3 C 17,7 km/h (3 Bft) 100,00 %
11.01.2012 23:17 7,6 C 67 % 1030,6 hPa 0,0 l/m 9,7 km/h (2 Bft) W 270 0 min 0,000 mm 0 W/m 1,9 C 5,1 C 16,1 km/h (3 Bft) 100,00 %
11.01.2012 23:18 7,6 C 67 % 1030,6 hPa 0,0 l/m 15,0 km/h (3 Bft) W-NW 283 0 min 0,000 mm 0 W/m 1,9 C 2,2 C 27,4 km/h (4 Bft) 100,00 %
11.01.2012 23:19 7,6 C 67 % 1030,6 hPa 0,0 l/m 18,3 km/h (3 Bft) W-NW 284 0 min 0,000 mm 0 W/m 1,9 C 0,8 C 25,7 km/h (4 Bft) 100,00 %
11.01.2012 23:20 7,6 C 67 % 1030,6 hPa 0,0 l/m 18,7 km/h (3 Bft) W 270 0 min 0,000 mm 0 W/m 1,9 C 0,7 C 29,0 km/h (5 Bft) 100,00 %
11.01.2012 23:21 7,7 C 67 % 1030,6 hPa 0,0 l/m 11,5 km/h (2 Bft) W 279 0 min 0,000 mm 0 W/m 2,0 C 4,1 C 20,9 km/h (4 Bft) 100,00 %
11.01.2012 23:22 7,7 C 67 % 1030,6 hPa 0,0 l/m 9,2 km/h (2 Bft) W-NW 288 0 min 0,000 mm 0 W/m 2,0 C 5,6 C 16,1 km/h (3 Bft) 100,00 %
11.01.2012 23:23 7,7 C 67 % 1030,6 hPa 0,0 l/m 12,7 km/h (3 Bft) W 260 0 min 0,000 mm 0 W/m 2,0 C 3,5 C 19,3 km/h (3 Bft) 100,00 %
11.01.2012 23:24 7,7 C 67 % 1030,6 hPa 0,0 l/m 12,4 km/h (3 Bft) W 273 0 min 0,000 mm 0 W/m 2,0 C 3,6 C 19,3 km/h (3 Bft) 100,00 %
11.01.2012 23:25 7,7 C 67 % 1030,6 hPa 0,0 l/m 8,0 km/h (2 Bft) W 275 0 min 0,000 mm 0 W/m 2,0 C 6,4 C 17,7 km/h (3 Bft) 100,00 %
11.01.2012 23:26 7,7 C 67 % 1030,6 hPa 0,0 l/m 12,8 km/h (3 Bft) W 275 0 min 0,000 mm 0 W/m 2,0 C 3,4 C 24,1 km/h (4 Bft) 100,00 %
11.01.2012 23:27 7,7 C 67 % 1030,6 hPa 0,0 l/m 17,3 km/h (3 Bft) W-SW 250 0 min 0,000 mm 0 W/m 2,0 C 1,3 C 24,1 km/h (4 Bft) 100,00 %
11.01.2012 23:28 7,7 C 67 % 1030,6 hPa 0,0 l/m 11,9 km/h (2 Bft) W 263 0 min 0,000 mm 0 W/m 2,0 C 3,9 C 20,9 km/h (4 Bft) 100,00 %
11.01.2012 23:29 7,7 C 67 % 1030,6 hPa 0,0 l/m 15,4 km/h (3 Bft) W 276 0 min 0,000 mm 0 W/m 2,0 C 2,2 C 22,5 km/h (4 Bft) 100,00 %
11.01.2012 23:30 7,7 C 67 % 1030,6 hPa 0,0 l/m 10,5 km/h (2 Bft) W-NW 284 0 min 0,000 mm 0 W/m 2,0 C 4,7 C 19,3 km/h (3 Bft) 100,00 %
11.01.2012 23:31 7,7 C 67 % 1030,6 hPa 0,0 l/m 13,3 km/h (3 Bft) W 269 0 min 0,000 mm 0 W/m 2,0 C 3,2 C 24,1 km/h (4 Bft) 100,00 %
11.01.2012 23:32 7,7 C 67 % 1030,6 hPa 0,0 l/m 16,7 km/h (3 Bft) W-NW 295 0 min 0,000 mm 0 W/m 2,0 C 1,6 C 27,4 km/h (4 Bft) 100,00 %
11.01.2012 23:33 7,7 C 67 % 1030,6 hPa 0,0 l/m 18,6 km/h (3 Bft) W-NW 287 0 min 0,000 mm 0 W/m 2,0 C 0,8 C 29,0 km/h (5 Bft) 100,00 %
11.01.2012 23:34 7,7 C 67 % 1030,5 hPa 0,0 l/m 16,0 km/h (3 Bft) W 264 0 min 0,000 mm 0 W/m 2,0 C 1,9 C 27,4 km/h (4 Bft) 100,00 %
11.01.2012 23:35 7,7 C 67 % 1030,6 hPa 0,0 l/m 26,0 km/h (4 Bft) W 277 0 min 0,000 mm 0 W/m 2,0 C -1,6 C 32,2 km/h (5 Bft) 100,00 %
11.01.2012 23:36 7,8 C 67 % 1030,5 hPa 0,0 l/m 21,5 km/h (4 Bft) W 275 0 min 0,000 mm 0 W/m 2,1 C -0,1 C 37,0 km/h (5 Bft) 100,00 %
11.01.2012 23:37 7,8 C 66 % 1030,6 hPa 0,0 l/m 14,2 km/h (3 Bft) W 277 0 min 0,000 mm 0 W/m 1,9 C 2,8 C 24,1 km/h (4 Bft) 100,00 %
11.01.2012 23:38 7,8 C 66 % 1030,6 hPa 0,0 l/m 14,8 km/h (3 Bft) W-NW 283 0 min 0,000 mm 0 W/m 1,9 C 2,6 C 25,7 km/h (4 Bft) 100,00 %
11.01.2012 23:39 7,8 C 67 % 1030,6 hPa 0,0 l/m 11,6 km/h (2 Bft) W-NW 289 0 min 0,000 mm 0 W/m 2,1 C 4,2 C 20,9 km/h (4 Bft) 100,00 %
11.01.2012 23:40 7,8 C 67 % 1030,6 hPa 0,0 l/m 18,4 km/h (3 Bft) W 262 0 min 0,000 mm 0 W/m 2,1 C 1,0 C 38,6 km/h (5 Bft) 100,00 %
11.01.2012 23:41 7,8 C 67 % 1030,5 hPa 0,0 l/m 19,8 km/h (3 Bft) W 273 0 min 0,000 mm 0 W/m 2,1 C 0,5 C 30,6 km/h (5 Bft) 100,00 %
11.01.2012 23:42 7,8 C 66 % 1030,4 hPa 0,0 l/m 18,6 km/h (3 Bft) W-NW 291 0 min 0,000 mm 0 W/m 1,9 C 1,0 C 27,4 km/h (4 Bft) 100,00 %
11.01.2012 23:43 7,8 C 66 % 1030,5 hPa 0,0 l/m 13,3 km/h (3 Bft) W 264 0 min 0,000 mm 0 W/m 1,9 C 3,3 C 32,2 km/h (5 Bft) 100,00 %
11.01.2012 23:44 7,8 C 67 % 1030,5 hPa 0,0 l/m 24,0 km/h (4 Bft) W 275 0 min 0,000 mm 0 W/m 2,1 C -0,9 C 33,8 km/h (5 Bft) 95,65 %
11.01.2012 23:45 7,8 C 66 % 1030,5 hPa 0,0 l/m 17,3 km/h (3 Bft) W-NW 282 0 min 0,000 mm 0 W/m 1,9 C 1,5 C 30,6 km/h (5 Bft) 100,00 %
11.01.2012 23:46 7,8 C 66 % 1030,5 hPa 0,0 l/m 18,5 km/h (3 Bft) W 273 0 min 0,000 mm 0 W/m 1,9 C 1,0 C 29,0 km/h (5 Bft) 100,00 %
11.01.2012 23:47 7,8 C 66 % 1030,4 hPa 0,0 l/m 20,3 km/h (4 Bft) W 276 0 min 0,000 mm 0 W/m 1,9 C 0,3 C 32,2 km/h (5 Bft) 100,00 %
11.01.2012 23:48 7,8 C 66 % 1030,5 hPa 0,0 l/m 18,8 km/h (3 Bft) W 277 0 min 0,000 mm 0 W/m 1,9 C 0,9 C 27,4 km/h (4 Bft) 100,00 %
11.01.2012 23:49 7,9 C 66 % 1030,5 hPa 0,0 l/m 20,1 km/h (4 Bft) W 277 0 min 0,000 mm 0 W/m 1,9 C 0,5 C 29,0 km/h (5 Bft) 100,00 %
11.01.2012 23:50 7,8 C 66 % 1030,5 hPa 0,0 l/m 22,6 km/h (4 Bft) W-SW 256 0 min 0,000 mm 0 W/m 1,9 C -0,4 C 40,2 km/h (6 Bft) 100,00 %
11.01.2012 23:51 7,9 C 66 % 1030,6 hPa 0,0 l/m 22,6 km/h (4 Bft) W-SW 257 0 min 0,000 mm 0 W/m 1,9 C -0,3 C 38,6 km/h (5 Bft) 100,00 %
11.01.2012 23:52 7,9 C 66 % 1030,5 hPa 0,0 l/m 14,8 km/h (3 Bft) W-NW 286 0 min 0,000 mm 0 W/m 1,9 C 2,7 C 27,4 km/h (4 Bft) 100,00 %
11.01.2012 23:53 7,9 C 66 % 1030,5 hPa 0,0 l/m 14,2 km/h (3 Bft) W 264 0 min 0,000 mm 0 W/m 1,9 C 3,0 C 32,2 km/h (5 Bft) 100,00 %
11.01.2012 23:54 7,9 C 66 % 1030,4 hPa 0,0 l/m 16,8 km/h (3 Bft) W-NW 284 0 min 0,000 mm 0 W/m 1,9 C 1,8 C 27,4 km/h (4 Bft) 100,00 %
11.01.2012 23:55 7,9 C 66 % 1030,5 hPa 0,0 l/m 19,8 km/h (3 Bft) W 279 0 min 0,000 mm 0 W/m 1,9 C 0,6 C 43,5 km/h (6 Bft) 100,00 %
11.01.2012 23:56 7,9 C 66 % 1030,4 hPa 0,0 l/m 27,9 km/h (4 Bft) W-NW 296 0 min 0,000 mm 0 W/m 1,9 C -1,8 C 37,0 km/h (5 Bft) 100,00 %
11.01.2012 23:57 7,9 C 66 % 1030,4 hPa 0,0 l/m 18,0 km/h (3 Bft) W 267 0 min 0,000 mm 0 W/m 1,9 C 1,3 C 32,2 km/h (5 Bft) 100,00 %
11.01.2012 23:58 7,9 C 66 % 1030,3 hPa 0,0 l/m 16,6 km/h (3 Bft) W 261 0 min 0,000 mm 0 W/m 1,9 C 1,9 C 29,0 km/h (5 Bft) 100,00 %
11.01.2012 23:59 7,9 C 66 % 1030,4 hPa 0,0 l/m 22,4 km/h (4 Bft) NW 323 0 min 0,000 mm 0 W/m 1,9 C -0,2 C 33,8 km/h (5 Bft) 100,00 %
_ Min-Zeit 00:52 18:36 15:01 - 09:33 - - - - - 00:15 17:01 09:33 00:40
Minimum _ 2,8 C 60 % 1029,5 hPa - 0,0 km/h (0 Bft) - - - - - -0,9 C -4,6 C 0,0 km/h (0 Bft) 91,67 %
_ Max-Zeit 13:28 07:55 09:50 23:59 17:01 - - 14:10 14:01 12:26 11:06 12:27 19:44 23:59
Maximum _ 9,6 C 85 % 1032,3 hPa 0,0 l/m 41,8 km/h
W-SW (6 Bft)
- - 1 min 0,152 mm 455 W/m 3,1 C 9,6 C 59,5 km/h
W-NW (7 Bft)
100,00 %
Durchschnitt _ 6,8 C 70 % 1030,9 hPa #0,0 l/m 12,0 km/h (2 Bft) NW - #2:41 h #1,524 mm 124 W/m 1,6 C 3,1 C 18,4 km/h (3 Bft) 99,80 %